[[{"header":{"parameterUnit":"m.s-1","parameterCategory":1,"la1":30.6,"la2":28.766,"lo1":-90.7593,"lo2":-88.6598,"dx":0.0162,"dy":0.0183,"nx":116,"ny":114,"refTime":"2022-11-19T18:00:00:Z","depth":0,"parameterNumber":2,"parameterNumberName":"U-component_of_WINDS"},"data":[0.0,0.0,0.0,0.0,0.0,0.0,0.0,0.0,0.0,0.0,0.0,0.0,0.0,0.0,0.0,0.0,0.0,0.0,0.0,0.0,0.0,0.0,0.0,0.0,0.0,0.0,0.0,0.0,0.0,0.0,0.0,0.0,0.0,0.0,0.0,0.0,0.0,0.0,0.0,0.0,0.0,0.0,0.0,0.0,0.0,0.0,0.0,0.0,0.0,0.0,0.0,0.0,0.0,0.0,0.0,0.0,0.0,0.0,0.0,0.0,0.0,0.0,0.0,0.0,0.0,0.0,0.0,0.0,0.0,0.0,0.0,0.0,0.0,0.0,0.0,0.0,0.0,0.0,0.0,0.0,0.0,0.0,0.0,0.0,0.0,0.0,0.0,0.0,0.0,0.0,0.0,0.0,0.0,0.0,0.0,0.0,0.0,0.0,0.0,0.0,0.0,0.0,0.0,0.0,0.0,0.0,0.0,0.0,0.0,0.0,0.0,0.0,0.0,0.0,0.0,0.0,0.0,0.0,0.0,0.0,0.0,0.0,0.0,0.0,0.0,0.0,0.0,0.0,0.0,0.0,0.0,0.0,0.0,0.0,0.0,0.0,0.0,0.0,0.0,0.0,0.0,0.0,0.0,0.0,0.0,0.0,0.0,0.0,0.0,0.0,0.0,0.0,0.0,0.0,0.0,0.0,0.0,0.0,0.0,0.0,0.0,0.0,0.0,0.0,0.0,0.0,0.0,0.0,0.0,0.0,0.0,0.0,0.0,0.0,0.0,0.0,0.0,0.0,0.0,0.0,0.0,0.0,0.0,0.0,0.0,0.0,0.0,0.0,0.0,0.0,0.0,0.0,0.0,0.0,0.0,0.0,0.0,0.0,0.0,0.0,0.0,0.0,0.0,0.0,0.0,0.0,0.0,0.0,0.0,0.0,0.0,0.0,0.0,0.0,0.0,0.0,0.0,0.0,0.0,0.0,0.0,0.0,0.0,0.0,0.0,0.0,0.0,0.0,0.0,0.0,0.0,0.0,0.0,0.0,0.0,0.0,0.0,0.0,0.0,0.0,0.0,0.0,0.0,0.0,0.0,0.0,0.0,0.0,0.0,0.0,0.0,0.0,0.0,0.0,0.0,0.0,0.0,0.0,0.0,0.0,0.0,0.0,0.0,0.0,0.0,0.0,0.0,0.0,0.0,0.0,0.0,0.0,0.0,0.0,0.0,0.0,0.0,0.0,0.0,0.0,0.0,0.0,0.0,0.0,0.0,0.0,0.0,0.0,0.0,0.0,0.0,0.0,0.0,0.0,0.0,0.0,0.0,0.0,0.0,0.0,0.0,0.0,0.0,0.0,0.0,0.0,0.0,0.0,0.0,0.0,0.0,0.0,0.0,0.0,0.0,0.0,0.0,0.0,0.0,0.0,0.0,0.0,0.0,0.0,0.0,0.0,0.0,0.0,0.0,0.0,0.0,0.0,0.0,0.0,0.0,0.0,0.0,0.0,0.0,0.0,0.0,0.0,0.0,0.0,0.0,0.0,0.0,0.0,0.0,0.0,0.0,0.0,0.0,0.0,0.0,0.0,0.0,0.0,0.0,0.0,0.0,0.0,0.0,0.0,0.0,0.0,0.0,0.0,0.0,0.0,0.0,0.0,0.0,0.0,0.0,0.0,0.0,0.0,0.0,0.0,0.0,0.0,0.0,0.0,0.0,0.0,0.0,0.0,0.0,0.0,0.0,0.0,0.0,0.0,0.0,0.0,0.0,0.0,0.0,0.0,0.0,0.0,0.0,0.0,0.0,0.0,0.0,0.0,0.0,0.0,0.0,0.0,0.0,0.0,0.0,0.0,0.0,0.0,0.0,0.0,0.0,0.0,0.0,0.0,0.0,0.0,0.0,0.0,0.0,0.0,0.0,0.0,0.0,0.0,0.0,0.0,0.0,0.0,0.0,0.0,0.0,0.0,0.0,0.0,0.0,0.0,0.0,0.0,0.0,0.0,0.0,0.0,0.0,0.0,0.0,0.0,0.0,0.0,0.0,0.0,0.0,0.0,0.0,0.0,0.0,0.0,0.0,0.0,0.0,0.0,0.0,0.0,0.0,0.0,0.0,0.0,0.0,0.0,0.0,0.0,0.0,0.0,0.0,0.0,0.0,0.0,0.0,0.0,0.0,0.0,0.0,0.0,0.0,0.0,0.0,0.0,0.0,0.0,0.0,0.0,0.0,0.0,0.0,0.0,0.0,0.0,0.0,0.0,0.0,0.0,0.0,0.0,0.0,0.0,0.0,0.0,0.0,0.0,0.0,0.0,0.0,0.0,0.0,0.0,0.0,0.0,0.0,0.0,0.0,0.0,0.0,0.0,0.0,0.0,0.0,0.0,0.0,0.0,0.0,0.0,0.0,0.0,0.0,0.0,0.0,0.0,0.0,0.0,0.0,0.0,0.0,0.0,0.0,0.0,0.0,0.0,0.0,0.0,0.0,0.0,0.0,0.0,0.0,0.0,0.0,0.0,0.0,0.0,0.0,0.0,0.0,0.0,0.0,0.0,0.0,0.0,0.0,0.0,0.0,0.0,0.0,0.0,0.0,0.0,0.0,0.0,0.0,0.0,0.0,0.0,0.0,0.0,0.0,0.0,0.0,0.0,0.0,0.0,0.0,0.0,0.0,0.0,0.0,0.0,0.0,0.0,0.0,0.0,0.0,0.0,0.0,0.0,0.0,0.0,0.0,0.0,0.0,0.0,0.0,0.0,0.0,0.0,0.0,0.0,0.0,0.0,0.0,0.0,0.0,0.0,0.0,0.0,0.0,0.0,0.0,0.0,0.0,0.0,0.0,0.0,0.0,0.0,0.0,0.0,0.0,0.0,0.0,0.0,0.0,0.0,0.0,0.0,0.0,0.0,0.0,0.0,0.0,0.0,0.0,0.0,0.0,0.0,0.0,0.0,0.0,0.0,0.0,0.0,0.0,0.0,0.0,0.0,0.0,0.0,0.0,0.0,0.0,0.0,0.0,0.0,0.0,0.0,0.0,0.0,0.0,0.0,0.0,0.0,0.0,0.0,0.0,0.0,0.0,0.0,0.0,0.0,0.0,0.0,0.0,0.0,0.0,0.0,0.0,0.0,0.0,0.0,0.0,0.0,0.0,0.0,0.0,0.0,0.0,0.0,0.0,0.0,0.0,0.0,0.0,0.0,0.0,0.0,0.0,0.0,0.0,0.0,0.0,0.0,0.0,0.0,0.0,0.0,0.0,0.0,0.0,0.0,0.0,0.0,0.0,0.0,0.0,0.0,0.0,0.0,0.0,0.0,0.0,0.0,0.0,0.0,0.0,0.0,0.0,0.0,0.0,0.0,0.0,0.0,0.0,0.0,0.0,0.0,0.0,0.0,0.0,0.0,0.0,0.0,0.0,0.0,0.0,0.0,0.0,0.0,0.0,0.0,0.0,0.0,0.0,0.0,0.0,0.0,0.0,0.0,0.0,0.0,0.0,0.0,0.0,0.0,0.0,0.0,0.0,0.0,0.0,0.0,0.0,0.0,0.0,0.0,0.0,0.0,0.0,0.0,0.0,0.0,0.0,0.0,0.0,0.0,0.0,0.0,0.0,0.0,0.0,0.0,0.0,0.0,0.0,0.0,0.0,0.0,0.0,0.0,0.0,0.0,0.0,0.0,0.0,0.0,0.0,0.0,0.0,0.0,0.0,0.0,0.0,0.0,0.0,0.0,0.0,0.0,0.0,0.0,0.0,0.0,0.0,0.0,0.0,0.0,0.0,0.0,0.0,0.0,0.0,0.0,0.0,0.0,0.0,0.0,0.0,0.0,0.0,0.0,0.0,0.0,0.0,0.0,0.0,0.0,0.0,0.0,0.0,0.0,0.0,0.0,0.0,0.0,0.0,0.0,0.0,0.0,0.0,0.0,0.0,0.0,0.0,0.0,0.0,0.0,0.0,0.0,0.0,0.0,0.0,0.0,0.0,0.0,0.0,0.0,0.0,0.0,0.0,0.0,0.0,0.0,0.0,0.0,0.0,0.0,0.0,0.0,0.0,0.0,0.0,0.0,0.0,0.0,0.0,0.0,0.0,0.0,0.0,0.0,0.0,0.0,0.0,0.0,0.0,0.0,0.0,0.0,0.0,0.0,0.0,0.0,0.0,0.0,0.0,0.0,0.0,0.0,0.0,0.0,0.0,0.0,0.0,0.0,0.0,0.0,0.0,0.0,0.0,0.0,0.0,0.0,0.0,0.0,0.0,0.0,0.0,0.0,0.0,0.0,0.0,0.0,0.0,0.0,0.0,0.0,0.0,0.0,0.0,0.0,0.0,0.0,0.0,0.0,0.0,0.0,0.0,0.0,0.0,0.0,0.0,0.0,0.0,0.0,0.0,0.0,0.0,0.0,0.0,0.0,0.0,0.0,0.0,0.0,0.0,0.0,0.0,0.0,0.0,0.0,0.0,0.0,0.0,0.0,0.0,0.0,0.0,0.0,0.0,0.0,0.0,0.0,0.0,0.0,0.0,0.0,0.0,0.0,0.0,0.0,0.0,0.0,0.0,0.0,0.0,0.0,0.0,0.0,0.0,0.0,0.0,0.0,0.0,0.0,0.0,0.0,0.0,0.0,0.0,0.0,0.0,0.0,0.0,0.0,0.0,0.0,0.0,0.0,0.0,0.0,0.0,0.0,0.0,0.0,0.0,0.0,0.0,0.0,0.0,0.0,0.0,0.0,0.0,0.0,0.0,0.0,0.0,0.0,0.0,0.0,0.0,0.0,0.0,0.0,0.0,0.0,0.0,0.0,0.0,0.0,0.0,0.0,0.0,0.0,0.0,0.0,0.0,0.0,0.0,0.0,0.0,0.0,0.0,0.0,0.0,0.0,0.0,0.0,0.0,0.0,0.0,0.0,0.0,0.0,0.0,0.0,0.0,0.0,0.0,0.0,0.0,0.0,0.0,0.0,0.0,0.0,0.0,0.0,0.0,0.0,0.0,0.0,0.0,0.0,0.0,0.0,0.0,0.0,0.0,0.0,0.0,0.0,0.0,0.0,0.0,0.0,0.0,0.0,0.0,0.0,0.0,0.0,0.0,0.0,0.0,0.0,0.0,0.0,0.0,0.0,0.0,0.0,0.0,0.0,0.0,0.0,0.0,0.0,0.0,0.0,0.0,0.0,0.0,0.0,0.0,0.0,0.0,0.0,0.0,0.0,0.0,0.0,0.0,0.0,0.0,0.0,0.0,0.0,0.0,0.0,0.0,0.0,0.0,0.0,0.0,0.0,0.0,0.0,0.0,0.0,0.0,0.0,0.0,0.0,0.0,0.0,0.0,0.0,0.0,0.0,0.0,0.0,0.0,0.0,0.0,0.0,0.0,0.0,0.0,0.0,0.0,0.0,0.0,0.0,0.0,0.0,0.0,0.0,0.0,0.0,0.0,0.0,0.0,0.0,0.0,0.0,0.0,0.0,0.0,0.0,0.0,0.0,0.0,0.0,0.0,0.0,0.0,0.0,0.0,0.0,0.0,0.0,0.0,0.0,0.0,0.0,0.0,0.0,0.0,0.0,0.0,0.0,0.0,0.0,0.0,0.0,0.0,0.0,0.0,0.0,0.0,0.0,0.0,0.0,0.0,0.0,0.0,0.0,0.0,0.0,0.0,0.0,0.0,0.0,0.0,0.0,0.0,0.0,0.0,0.0,0.0,0.0,0.0,0.0,0.0,0.0,0.0,0.0,0.0,0.0,0.0,0.0,0.0,0.0,0.0,0.0,0.0,0.0,0.0,0.0,0.0,0.0,0.0,0.0,0.0,0.0,0.0,0.0,0.0,0.0,0.0,0.0,0.0,0.0,0.0,0.0,0.0,0.0,0.0,0.0,0.0,0.0,0.0,0.0,0.0,0.0,0.0,0.0,0.0,0.0,0.0,0.0,0.0,0.0,0.0,0.0,0.0,0.0,0.0,0.0,0.0,0.0,0.0,0.0,0.0,0.0,0.0,0.0,0.0,0.0,0.0,0.0,0.0,0.0,0.0,0.0,0.0,0.0,0.0,0.0,0.0,0.0,0.0,0.0,0.0,0.0,0.0,0.0,0.0,0.0,0.0,0.0,0.0,0.0,0.0,0.0,3.4122,0.0,0.0,0.0,0.0,0.0,0.0,0.0,0.0,0.0,0.0,0.0,0.0,0.0,0.0,0.0,0.0,0.0,0.0,0.0,0.0,0.0,0.0,0.0,0.0,2.4178,2.4603,2.4552,2.4926,0.0,0.0,0.0,0.0,0.0,0.0,0.0,0.0,0.0,2.5431,2.6669,2.7376,2.8906,3.1103,2.9273,2.7424,2.5629,0.0,0.0,0.0,0.0,0.0,0.0,0.0,0.0,0.0,0.0,0.0,0.0,0.0,0.0,0.0,0.0,0.0,0.0,0.0,0.0,0.0,0.0,0.0,0.0,0.0,0.0,0.0,0.0,0.0,0.0,0.0,0.0,0.0,0.0,0.0,0.0,0.0,0.0,0.0,0.0,0.0,0.0,0.0,0.0,0.0,0.0,0.0,0.0,0.0,0.0,0.0,0.0,0.0,0.0,0.0,0.0,0.0,0.0,0.0,0.0,0.0,0.0,0.0,0.0,0.0,0.0,0.0,0.0,0.0,0.0,0.0,3.4765,0.0,0.0,0.0,0.0,0.0,0.0,0.0,0.0,0.0,0.0,0.0,0.0,0.0,0.0,0.0,0.0,0.0,0.0,0.0,0.0,0.0,2.3511,2.3748,2.5426,2.6473,2.6251,2.7219,2.7596,2.7125,2.6472,0.0,0.0,0.0,0.0,2.6954,2.6862,2.767,2.9371,3.147,3.28,3.3369,3.3527,3.2237,2.9679,2.6986,0.0,0.0,0.0,0.0,0.0,0.0,0.0,0.0,0.0,0.0,0.0,0.0,0.0,0.0,0.0,0.0,0.0,0.0,0.0,0.0,0.0,0.0,0.0,0.0,0.0,0.0,0.0,0.0,0.0,0.0,0.0,0.0,0.0,0.0,0.0,0.0,0.0,0.0,0.0,0.0,0.0,0.0,0.0,0.0,0.0,0.0,0.0,0.0,0.0,0.0,0.0,0.0,0.0,0.0,0.0,0.0,0.0,0.0,0.0,0.0,0.0,0.0,0.0,3.6214,3.7126,3.6916,3.8277,3.925,3.9724,3.8125,3.7626,3.7765,3.5722,0.0,0.0,0.0,0.0,0.0,0.0,0.0,0.0,0.0,0.0,0.0,0.0,0.0,0.0,0.0,0.0,0.0,0.0,0.0,2.3883,2.5161,2.5662,2.6479,2.7859,2.7155,2.6635,2.6668,2.6047,0.0,0.0,0.0,0.0,2.6464,2.7029,2.8452,3.0819,3.5893,3.8091,3.7601,3.8393,3.7795,3.5927,3.2227,2.9719,2.814,0.0,0.0,0.0,0.0,0.0,0.0,0.0,0.0,0.0,0.0,0.0,0.0,0.0,0.0,0.0,0.0,0.0,0.0,0.0,0.0,0.0,0.0,0.0,0.0,0.0,0.0,0.0,0.0,0.0,0.0,0.0,0.0,0.0,0.0,0.0,0.0,0.0,0.0,0.0,0.0,0.0,3.0111,3.0236,0.0,0.0,0.0,0.0,0.0,0.0,0.0,0.0,0.0,0.0,0.0,0.0,0.0,3.5025,3.5787,3.6483,3.6979,3.7387,3.9146,3.9955,3.9928,4.0613,4.0966,4.1063,4.0789,0.0,3.7341,3.7819,0.0,0.0,0.0,0.0,0.0,0.0,0.0,0.0,0.0,0.0,0.0,0.0,0.0,0.0,0.0,0.0,0.0,0.0,0.0,0.0,0.0,2.8748,3.0204,3.1751,3.2184,3.1721,3.0192,2.9113,0.0,0.0,0.0,2.652,2.7566,2.9236,3.1935,3.5715,3.82,3.9673,4.0086,4.0474,4.0293,3.9524,3.7804,3.4781,3.0891,3.0188,0.0,0.0,0.0,0.0,0.0,0.0,0.0,0.0,0.0,0.0,0.0,0.0,0.0,0.0,0.0,0.0,0.0,0.0,0.0,0.0,0.0,0.0,0.0,0.0,0.0,0.0,0.0,0.0,0.0,0.0,0.0,0.0,0.0,0.0,0.0,0.0,0.0,0.0,0.0,2.9377,3.0382,3.0984,3.0306,2.9553,0.0,0.0,0.0,0.0,0.0,0.0,0.0,0.0,0.0,3.7184,3.6916,3.7481,3.8962,3.9651,4.0276,4.0802,4.1555,4.2057,4.2359,4.2582,4.2858,4.3159,4.3148,4.2295,4.0806,3.9357,3.7667,3.6031,0.0,0.0,0.0,0.0,3.7414,3.7228,0.0,0.0,0.0,0.0,0.0,0.0,0.0,0.0,0.0,0.0,0.0,0.0,2.9427,3.167,3.3725,3.539,3.5883,3.5457,3.3932,3.2191,3.0589,0.0,0.0,2.7953,2.9511,3.2319,3.5688,3.959,4.0136,4.0917,4.1912,4.1912,4.1912,4.1912,4.1912,3.898,3.4076,3.384,3.1575,2.7997,0.0,0.0,0.0,0.0,0.0,0.0,0.0,0.0,0.0,0.0,0.0,0.0,0.0,0.0,0.0,0.0,0.0,0.0,0.0,0.0,0.0,0.0,0.0,0.0,0.0,0.0,0.0,0.0,0.0,0.0,0.0,0.0,0.0,0.0,0.0,0.0,0.0,3.0859,3.1562,3.1808,3.1738,3.1135,0.0,0.0,0.0,0.0,0.0,0.0,3.7011,3.6605,3.7309,3.9379,3.9474,4.0248,4.193,4.2509,4.3014,4.3388,4.3388,4.3614,4.4016,4.4016,4.4213,4.4618,4.4587,4.4353,4.3794,4.1225,3.9839,3.9271,3.8969,3.8597,3.8356,3.9498,3.9884,3.9933,0.0,0.0,0.0,0.0,0.0,0.0,0.0,0.0,0.0,0.0,0.0,3.0257,3.1163,3.3206,3.5415,3.7649,3.5288,3.4516,3.6473,3.3968,3.2661,3.3185,3.0804,3.0338,3.2272,3.611,3.884,4.0332,4.2192,4.314,4.32,4.32,4.32,4.32,4.32,4.1528,3.8591,3.7513,3.5393,3.2436,2.8718,0.0,0.0,0.0,0.0,0.0,0.0,0.0,0.0,0.0,0.0,0.0,0.0,0.0,0.0,0.0,0.0,0.0,0.0,0.0,0.0,0.0,0.0,0.0,0.0,0.0,0.0,0.0,0.0,0.0,0.0,0.0,0.0,0.0,0.0,0.0,0.0,0.0,0.0,3.3266,3.5276,0.0,0.0,0.0,0.0,3.537,3.6796,3.8018,3.8742,3.9221,4.0252,4.1965,4.2989,4.3564,4.3664,4.4188,4.4489,4.4514,4.4514,4.4514,4.4564,4.4564,4.4564,4.4589,4.4618,4.4564,4.4514,4.3848,4.2341,4.052,4.1364,4.0782,3.9605,4.1196,4.177,4.1852,0.0,0.0,0.0,2.4898,2.4432,2.4101,2.4101,2.4208,2.4563,2.5327,2.8315,3.1153,3.3123,3.6167,3.8897,4.0898,4.0594,3.9982,3.9347,3.7139,3.5338,3.419,3.2841,3.3829,3.7494,3.9397,4.1403,4.3539,4.344,4.3356,4.3356,4.2152,4.1611,4.1611,4.1284,4.0526,3.9619,4.0305,3.8308,3.4566,3.2812,2.9595,0.0,0.0,0.0,0.0,0.0,0.0,0.0,0.0,0.0,0.0,0.0,0.0,0.0,0.0,0.0,0.0,0.0,0.0,0.0,0.0,0.0,0.0,0.0,0.0,0.0,0.0,0.0,0.0,0.0,0.0,0.0,0.0,0.0,0.0,0.0,0.0,0.0,3.4778,3.6157,0.0,3.5627,3.7142,3.823,3.8215,3.9702,4.1047,4.1984,4.2233,4.276,4.3714,4.4116,4.4518,4.4869,4.507,4.5347,4.5668,4.5668,4.5668,4.5668,4.5668,4.5668,4.5668,4.5668,4.5668,4.5668,4.5488,4.451,4.3184,4.35,4.3286,4.2856,4.3413,4.3642,4.3663,0.0,0.0,0.0,2.5634,2.5211,2.4872,2.4872,2.5021,2.5657,2.7061,3.0196,3.3214,3.5573,3.8885,4.1531,4.3079,4.3143,4.2708,4.1775,3.9123,3.7059,3.5868,3.5386,3.6913,4.0666,4.1822,4.3339,4.5266,4.4015,4.3268,4.2996,4.1619,4.0956,4.0928,4.0393,4.0167,4.0221,4.1159,3.9688,3.6607,3.5464,3.2589,2.87,0.0,0.0,0.0,0.0,0.0,0.0,0.0,0.0,0.0,0.0,0.0,0.0,0.0,0.0,0.0,0.0,0.0,0.0,0.0,0.0,0.0,0.0,0.0,0.0,0.0,0.0,0.0,0.0,0.0,0.0,0.0,0.0,0.0,0.0,3.5177,3.6659,3.5907,3.7638,3.8517,3.7587,3.9371,4.0703,4.1053,4.2258,4.3313,4.4041,4.4267,4.4543,4.4895,4.5066,4.5372,4.5773,4.5949,4.6225,4.6572,4.6753,4.6853,4.6853,4.6853,4.6853,4.6853,4.6853,4.6853,4.6853,4.6853,4.6371,4.5668,4.5292,4.5167,4.5167,4.5167,4.5167,4.5167,0.0,0.0,2.6454,2.577,2.5634,2.5634,2.5644,2.5734,2.6841,2.9768,3.3321,3.6371,3.8508,4.1121,4.3083,4.3903,4.2431,4.207,4.3544,3.9745,3.7764,3.8422,3.8559,3.9499,4.1466,4.3389,4.4613,4.5184,4.398,4.302,4.2289,4.1709,4.1434,4.1402,4.0866,4.0613,4.0586,4.003,3.9452,3.8657,3.654,3.4929,3.3269,0.0,0.0,0.0,0.0,0.0,0.0,0.0,0.0,0.0,0.0,0.0,0.0,0.0,0.0,0.0,0.0,0.0,0.0,0.0,0.0,0.0,0.0,0.0,0.0,0.0,0.0,0.0,0.0,0.0,0.0,0.0,0.0,0.0,3.5759,3.7062,3.7764,3.6734,3.9949,4.1607,3.9998,4.2258,4.384,4.384,4.4313,4.464,4.464,4.5221,4.5547,4.5547,4.6075,4.6351,4.6351,4.6873,4.7124,4.7124,4.7626,4.7908,4.7908,4.7908,4.7908,4.7908,4.7908,4.7908,4.7908,4.7908,4.7908,4.7807,4.6778,4.6351,4.6351,4.6351,4.6351,4.6351,2.67,2.67,2.6632,2.642,2.6387,2.6421,2.6519,2.63,2.7243,3.0552,3.3345,3.6102,3.8892,4.1733,4.3439,4.348,4.3053,4.2578,4.2081,4.0034,3.9152,3.9828,4.1683,4.3127,4.4124,4.5169,4.5511,4.5143,4.3884,4.2946,4.2358,4.0886,3.9972,3.9584,3.8991,3.8733,3.8707,3.8164,3.7828,3.7645,3.7487,3.5991,3.3678,0.0,0.0,0.0,0.0,0.0,0.0,0.0,0.0,0.0,0.0,0.0,0.0,0.0,0.0,0.0,0.0,0.0,0.0,0.0,0.0,0.0,0.0,0.0,0.0,0.0,0.0,0.0,0.0,0.0,0.0,0.0,3.7086,3.8768,3.8065,3.9748,4.108,4.1153,4.2459,4.3338,4.3263,4.394,4.4568,4.4995,4.5171,4.5422,4.5824,4.6346,4.6647,4.6647,4.7179,4.7481,4.7481,4.7631,4.7682,4.7682,4.7832,4.7908,4.7908,4.7908,4.7908,4.7908,4.7908,4.7908,4.7908,4.7908,4.7908,4.7883,4.7581,4.7481,4.7481,4.7481,4.7481,4.7481,2.67,2.67,2.67,2.67,2.6748,2.6809,2.6883,2.6725,2.8033,3.2033,3.3953,3.6425,4.0236,4.2387,4.3483,4.3319,4.2436,4.1774,4.1414,4.0157,4.0199,4.1953,4.3173,4.4734,4.6745,4.6574,4.6237,4.576,4.4519,4.3467,4.2628,4.135,4.0326,3.9546,3.8969,3.8592,3.8341,3.7764,3.7538,3.7561,3.7926,3.6811,3.4828,3.3556,3.2389,3.1185,3.004,2.8523,2.7191,2.7965,0.0,0.0,0.0,0.0,0.0,0.0,0.0,0.0,0.0,0.0,0.0,0.0,0.0,0.0,0.0,0.0,0.0,0.0,0.0,0.0,0.0,0.0,0.0,0.0,4.0073,4.1656,4.1329,4.221,4.309,4.3614,4.4166,4.4618,4.4945,4.5196,4.5543,4.6125,4.6175,4.6401,4.6954,4.7249,4.7425,4.7425,4.7757,4.8033,4.8259,4.851,4.8736,4.8962,4.9213,4.9314,4.9314,4.9314,4.9314,4.9314,4.9314,4.9314,4.9314,4.9314,4.9314,0.0,0.0,0.0,0.0,0.0,4.7908,4.7908,2.6818,2.6826,2.681,2.6851,2.6872,2.692,2.6967,2.7056,2.888,3.3798,3.4892,3.7061,4.1955,4.3,4.319,4.2962,4.1184,4.0451,4.1284,4.052,4.1345,4.4251,4.39,4.5215,4.8543,4.7414,4.6678,4.6483,4.5405,4.4253,4.309,4.2587,4.1808,4.0777,4.0149,3.9622,3.912,3.8391,3.809,3.809,3.804,3.7412,3.6362,3.4404,3.3398,3.2889,3.1813,3.0716,2.9887,3.0835,0.0,0.0,0.0,0.0,0.0,0.0,0.0,0.0,0.0,0.0,0.0,0.0,0.0,0.0,0.0,0.0,0.0,0.0,0.0,0.0,0.0,0.0,0.0,0.0,4.3335,4.4707,4.4532,4.4327,4.4317,4.464,4.5271,4.5673,4.5673,4.6175,4.6702,4.7149,4.7199,4.74,4.7883,0.0,0.0,0.0,0.0,4.8535,4.9069,4.954,5.0017,5.0519,5.1046,5.1306,5.1306,5.1306,5.1306,5.1306,5.1306,5.1306,5.1306,5.1306,5.1306,5.1105,4.9063,4.8284,4.8284,4.8284,4.8284,4.8284,2.7517,2.7587,2.7633,2.7812,2.7325,2.6993,2.7267,2.7194,2.9074,3.4538,3.5234,3.7207,4.2543,4.325,4.2585,4.0802,4.0621,4.0735,4.0895,4.2844,4.4274,4.4902,4.6199,4.6709,4.6357,4.6594,4.6163,4.4998,4.477,4.4323,4.3639,4.3539,4.3137,4.2459,4.1428,4.0926,4.075,3.932,3.8743,3.8693,3.8191,3.7889,3.7639,3.7218,3.6995,3.6895,3.6646,3.5303,3.3715,3.434,3.3002,3.0968,3.0215,2.9648,0.0,0.0,0.0,0.0,0.0,0.0,0.0,0.0,0.0,0.0,0.0,0.0,0.0,0.0,0.0,0.0,0.0,0.0,0.0,4.2585,4.4518,4.547,4.4061,4.5379,4.617,4.5422,4.617,4.6772,4.6772,4.728,4.7631,4.7757,4.7757,4.7807,4.7908,4.8786,4.9264,4.9264,5.0142,5.0695,5.0828,5.0929,5.0996,5.1122,0.0,0.0,5.1306,5.1306,5.1306,5.1306,5.1306,5.1306,5.1306,5.1306,5.1306,5.128,5.0795,5.0619,5.0619,5.0619,5.0619,5.0619,2.8396,2.8181,2.7964,2.8069,2.7563,2.7164,2.7248,2.7133,2.8655,3.3066,3.3462,3.5047,3.9478,3.9933,3.9495,3.8384,3.894,3.9402,3.9532,4.2372,4.4933,4.6879,4.7073,4.713,4.71,4.6728,4.6156,4.5443,4.5443,4.5196,4.4644,4.4644,4.4192,4.3363,4.2534,4.2007,4.1681,4.0576,3.9948,3.9672,3.9371,3.9094,3.8793,3.8216,3.8015,3.8015,3.8015,3.7295,3.6382,3.6668,3.5853,3.4472,3.3159,3.2518,3.176,0.0,0.0,0.0,0.0,0.0,0.0,0.0,0.0,0.0,0.0,0.0,0.0,0.0,0.0,3.927,4.0651,0.0,4.3135,4.3939,4.4655,4.4604,4.323,4.4238,4.4736,4.3756,4.5105,4.6148,4.6148,4.6392,4.7041,4.8247,4.8586,4.8862,4.9138,4.9967,5.0444,5.0444,5.0055,4.9918,5.0186,4.9235,4.8869,4.9165,4.9165,4.9165,4.9165,4.9391,4.9475,4.9569,5.0807,5.1373,5.1419,5.2167,5.2503,5.2503,5.2503,5.2,5.1306,5.1306,5.1306,5.1306,2.9075,2.8684,2.819,2.819,2.771,2.7315,2.717,2.7046,2.8075,3.1225,3.1549,3.2766,3.605,3.6426,3.6292,3.5966,3.7202,3.8168,3.8622,4.1836,4.5177,4.8409,4.7221,4.6955,4.8038,4.6934,4.6301,4.6301,4.6301,4.6075,4.5648,4.5648,4.5095,4.4091,4.313,4.256,4.2286,4.1255,4.0759,4.0623,4.0333,3.9927,3.9431,3.8537,3.8241,3.8341,3.8341,3.8141,3.7941,3.8091,3.8066,3.7617,3.6015,3.5258,3.4245,3.0738,3.0601,0.0,0.0,0.0,0.0,0.0,0.0,0.0,0.0,3.6651,3.7717,3.9746,4.1103,4.2424,4.3929,4.3893,4.3939,4.4953,4.4492,4.3606,4.2345,4.2858,4.288,4.1469,4.3456,4.4968,4.4968,4.5099,4.6216,4.8521,4.8772,4.9125,4.9959,5.0203,5.033,5.033,4.8921,4.8404,4.8803,4.7358,4.6807,4.7246,4.7246,4.7246,4.7269,4.7634,4.7813,4.7947,5.0363,5.1397,5.1556,5.3197,5.3858,5.3858,5.3858,5.308,5.1959,5.1959,5.1663,5.1333,2.9128,2.8896,2.844,2.844,2.7735,2.7187,2.7253,2.6986,2.7782,3.0699,3.1341,3.2595,3.5504,3.5795,3.519,3.3721,3.6497,3.8785,3.982,4.3911,4.6689,4.7615,4.6777,4.639,4.6516,4.6391,4.6301,4.6301,4.6301,4.6276,4.6225,4.6225,4.5899,4.5187,4.2725,4.2062,4.2755,4.0231,3.9959,4.1068,3.964,3.9045,3.8998,3.8851,3.9111,3.9496,3.9496,3.8672,3.7687,3.8538,3.8252,3.7663,3.8237,3.724,3.5806,3.5568,3.2577,2.9447,2.9901,3.0781,3.1869,3.3133,3.3847,3.547,0.0,4.0415,4.0697,4.4074,4.5999,4.6755,4.5774,4.6328,4.6448,4.4911,4.4572,4.3762,4.1629,4.311,4.3195,3.9874,4.22,4.4074,4.4074,4.486,4.6206,4.8233,4.6808,4.6645,4.8434,4.7409,4.6761,4.6761,4.7403,4.7825,4.787,4.7999,4.8095,4.814,4.814,4.814,4.814,4.8207,4.8229,4.8342,5.0466,5.1397,5.158,5.3654,5.4496,5.4496,5.4496,5.4396,5.422,5.422,5.3012,5.1392,2.8709,2.8314,2.7793,2.7793,2.7492,2.715,2.6988,2.681,2.7226,2.8662,2.8976,2.9624,3.1103,3.1563,3.1591,3.1248,3.4903,3.7685,3.8793,4.3031,4.587,4.6766,4.6479,4.6301,4.6301,4.6301,4.6301,4.6301,4.5281,4.4798,4.4743,4.3514,4.2791,4.2501,4.078,4.026,4.0587,3.9088,3.8683,3.8967,3.8291,3.7822,3.7524,3.7254,3.714,3.724,3.7903,3.7536,0.0,3.7912,3.7996,3.7793,3.8469,3.822,3.7191,3.4532,3.355,3.3571,3.4897,3.494,3.5113,3.6989,3.8689,4.0495,4.293,4.2784,4.2821,4.5285,4.5915,4.5879,4.5278,4.4893,4.4373,4.3551,4.2989,4.2183,4.0958,4.1837,4.1966,4.0189,4.1127,4.222,4.3078,4.3508,4.4551,4.6468,4.6162,4.6325,4.7349,4.7222,4.7187,4.7418,4.6713,4.638,4.638,4.5377,4.4857,4.4857,4.4857,4.4857,4.4877,4.5147,4.6067,4.7557,4.9666,5.1085,5.2093,5.4198,5.4367,5.3242,5.3242,5.2714,5.199,5.2538,5.2151,5.125,2.7867,2.7316,2.6805,2.6919,2.6904,2.6863,2.6728,2.6664,2.6743,2.7029,2.7211,2.7462,2.7846,2.848,2.9007,2.9302,3.3244,3.6358,3.7914,4.1731,4.4644,4.625,4.6301,4.6301,4.6301,4.6301,4.6059,4.5555,4.4312,4.3387,4.2779,4.1228,4.0347,4.0025,3.8878,3.8509,3.8716,3.7878,3.7554,3.7568,3.7126,3.6663,3.615,3.5696,3.5005,3.4492,3.5596,3.5395,3.4839,3.6077,3.6411,3.6488,3.7376,3.7654,3.7047,3.4024,3.4582,3.6449,3.7753,3.815,3.8618,4.0448,4.2678,4.4611,4.5303,4.506,4.5005,4.6343,4.6123,4.5407,4.4507,4.3555,4.2856,4.2422,4.1902,4.1367,4.0937,4.1152,4.1191,4.0762,4.0703,4.1121,4.2259,4.2368,4.3166,4.5056,4.5162,4.5521,4.6392,4.629,4.6371,4.6656,4.5412,4.4769,4.4769,4.3419,4.2811,4.2928,4.2832,4.287,4.3123,4.3476,4.4615,4.6413,4.855,5.0461,5.2178,5.3656,5.3731,5.2844,5.2254,5.1339,5.0378,5.0467,5.0352,4.9934,2.6549,2.596,2.5572,2.591,2.5942,2.6095,2.6622,2.6592,2.6508,2.6524,2.6977,2.7311,2.7311,2.8254,2.8706,2.8197,3.1712,3.5127,3.7839,4.0678,4.3492,4.62,4.6301,4.6301,4.6301,4.6301,4.5464,4.3793,4.3731,4.2638,4.0621,4.0536,3.9988,3.8977,3.7453,3.7295,3.8127,3.6539,3.676,3.8052,3.6487,3.5603,3.517,3.4737,3.3451,3.205,3.3038,3.2215,3.0944,3.265,3.2977,3.2984,3.4984,3.5109,3.4774,3.5931,3.5911,3.5726,3.6628,3.8975,4.1414,4.2389,4.427,4.6237,4.7361,4.7589,4.7688,4.8133,4.8217,4.7202,4.3958,4.3648,4.3407,4.2053,4.2149,4.2206,4.1816,4.1777,4.1621,4.125,4.1191,4.1348,4.1778,4.1817,4.2641,4.459,4.3355,4.3379,4.5344,4.3637,4.2562,4.2582,4.2953,4.3169,4.3169,4.3498,4.3887,4.4336,4.3887,4.4121,4.4899,4.4918,4.498,4.5193,4.7236,4.9377,5.1415,5.1438,5.2631,5.4326,5.2156,5.1278,5.1019,4.8968,4.7662,4.6945,2.5878,2.5748,2.5776,2.5873,2.61,2.6373,2.6535,2.6519,2.6348,2.5954,2.6424,0.0,0.0,0.0,0.0,0.0,3.1783,3.4048,3.5682,3.8768,4.1094,4.2331,4.313,4.3347,4.2926,4.2918,4.2612,4.2042,4.0892,3.9964,3.9195,3.7478,3.6494,3.6102,3.4992,3.4711,3.4984,3.4445,3.4539,3.4933,3.4123,3.3576,3.3145,3.2374,3.1019,2.9493,0.0,2.984,3.0092,3.1406,3.2227,3.2935,3.3886,3.438,3.4626,3.4715,3.6182,3.7941,3.881,4.1798,4.4828,4.5782,4.6789,4.7634,4.8001,4.6146,4.4354,4.4472,4.3941,4.3111,4.1982,4.2361,4.2683,4.2211,4.2545,4.2715,4.2266,4.2207,4.207,4.1641,4.1582,4.1641,4.1797,4.1797,4.2171,4.308,4.2683,4.282,4.3819,4.3256,4.2988,4.3262,4.3711,4.3965,4.3965,4.4375,4.4648,4.4824,4.4648,4.4746,4.4977,4.4977,4.4977,4.5104,4.7194,4.852,4.9319,5.0719,5.0902,5.0215,4.9482,4.8313,4.7047,4.6313,4.5839,4.562,2.5349,2.5251,2.5356,2.5728,2.6001,0.0,0.0,0.0,0.0,0.0,0.0,0.0,0.0,0.0,0.0,0.0,0.0,3.2646,3.3738,3.6034,3.7743,3.8568,3.916,3.9418,3.9326,3.9198,3.9075,3.8878,3.7911,3.7207,3.6725,3.5203,3.4394,3.4219,3.3672,3.3308,3.3184,3.3047,3.2969,3.291,3.2168,3.1651,3.1221,3.058,2.9253,0.0,2.7869,2.8405,2.916,2.9847,3.0849,3.1881,3.2556,3.3773,3.5079,3.5554,3.7613,4.0188,4.2137,4.4732,4.7047,4.7734,4.8096,4.8174,4.7668,4.564,4.3754,4.3226,4.2659,4.2061,4.1334,4.1939,4.2359,4.1897,4.2295,4.248,4.2031,4.1973,4.1992,4.2031,4.2031,4.209,4.2246,4.2266,4.2363,4.2637,4.3458,4.3858,4.3557,4.3555,4.375,4.416,4.4473,4.4629,4.4629,4.4883,4.4977,4.4996,4.5332,4.541,4.5254,4.541,4.5445,4.5512,4.6903,4.7918,4.8693,4.9255,4.9172,4.8568,4.775,4.6648,4.5445,4.5445,4.5445,4.543,2.4955,2.4515,2.4406,0.0,0.0,0.0,0.0,0.0,0.0,0.0,0.0,0.0,0.0,0.0,0.0,0.0,0.0,0.0,3.1971,3.2617,3.3598,3.5004,3.4706,3.4879,3.5663,3.537,3.4929,3.4441,3.4956,3.4543,3.323,3.3672,3.3652,3.323,3.3191,3.3008,3.2598,3.2237,3.2061,3.1925,3.0663,2.9937,2.9546,2.9398,2.8289,2.6892,2.7613,2.8013,2.8199,2.8199,2.9066,3.0344,3.1498,3.3674,3.621,3.8467,4.03,4.2431,4.6145,4.7626,4.8192,4.8338,4.8349,4.7924,4.6492,4.6075,4.5618,4.4266,4.4243,4.3872,4.1973,4.2335,4.249,4.1292,4.155,4.1758,4.1367,4.1308,4.1562,4.2304,4.2401,4.2617,4.3087,4.3227,4.3267,4.3185,4.5372,4.6086,4.4607,4.4498,4.4609,4.4977,4.4996,4.5058,4.5058,4.5078,4.5098,4.5098,4.5918,4.6094,4.5723,4.6113,4.6308,4.6308,4.6308,4.7511,4.9297,4.7184,4.7554,4.9211,4.7141,4.6308,4.6308,4.6308,4.6308,4.6191,0.0,0.0,0.0,0.0,0.0,0.0,0.0,0.0,0.0,0.0,0.0,0.0,0.0,0.0,0.0,0.0,0.0,0.0,2.9732,3.0663,3.0997,3.0504,3.1176,3.1455,3.1249,3.1896,3.1829,3.0906,3.2182,3.2182,3.1016,3.1133,3.1133,3.0996,3.0684,3.0517,3.0419,3.0302,3.0067,2.9772,2.9903,2.9554,2.9003,2.9863,2.9316,2.8297,2.9664,2.9807,2.9356,2.9356,3.1755,3.5105,3.7464,3.8944,4.0098,4.153,4.3689,4.5919,4.7299,4.9608,5.1277,4.9789,4.892,4.7939,4.6024,4.4206,4.2889,4.2758,4.2398,4.2115,4.2256,4.2459,4.2626,4.2766,4.304,4.3066,4.2696,4.2638,4.2539,4.2401,4.2715,4.2949,4.3107,4.5088,4.5759,4.4187,4.464,4.5507,4.664,4.5531,4.4879,4.5019,4.5332,4.5508,4.5508,4.582,4.5976,4.5976,4.6191,4.625,4.6152,4.625,4.6308,4.6308,4.6308,4.6638,4.7097,4.6507,4.6638,4.7097,4.6507,4.6308,4.6308,4.6308,4.6308,4.6269,0.0,0.0,0.0,0.0,0.0,0.0,0.0,0.0,0.0,0.0,0.0,0.0,0.0,0.0,0.0,0.0,0.0,0.0,0.0,2.7996,2.7612,2.6656,2.7006,2.7521,2.8035,2.846,2.8876,2.9348,2.9906,3.0048,2.9808,2.9506,2.9355,2.9355,2.9149,2.8933,2.8785,2.9086,2.9032,0.0,0.0,2.8967,2.869,2.9711,2.953,2.8965,3.058,3.1994,3.3248,3.4424,3.6502,3.8868,4.0676,4.1957,4.3034,4.4418,4.6426,4.8403,4.9464,5.1473,5.257,4.9612,4.8569,4.7512,4.4698,4.2815,4.1742,4.1784,4.1771,4.1859,4.2099,4.2693,4.3102,4.2887,4.3163,4.3281,4.2851,4.2793,4.2832,4.2969,4.3203,4.3808,4.4987,4.6616,4.7562,4.7484,4.6576,4.624,4.6673,4.5837,4.5391,4.5586,4.582,4.5957,4.5957,4.6191,4.6308,4.6308,4.6308,4.6308,4.6308,4.6308,4.6308,4.6308,0.0,4.6308,4.6308,4.6308,4.6308,4.6308,4.6308,4.6308,4.6308,4.6308,4.6308,4.6308,0.0,0.0,0.0,0.0,0.0,0.0,0.0,0.0,0.0,2.66,2.66,2.7002,0.0,0.0,0.0,0.0,0.0,0.0,0.0,0.0,2.4461,2.3736,2.3318,2.3985,2.5893,2.5692,2.6581,2.8675,2.8301,2.8371,2.8885,2.843,2.8179,2.8119,2.8179,2.8026,2.7751,2.8309,2.8544,2.8497,2.8471,2.841,2.8452,0.0,0.0,2.9429,3.1129,3.4246,3.7914,4.0524,4.1679,4.2105,4.2939,4.4166,4.5668,4.7199,4.8761,5.0203,5.1471,5.26,5.2405,4.831,4.7693,4.6994,4.2988,4.2001,4.1792,4.1165,4.1705,4.2185,4.1852,4.2938,4.3567,4.2535,4.2915,4.3213,4.2793,4.2957,4.3374,4.4223,4.4263,4.5145,4.754,4.7848,4.865,5.0502,4.9182,4.7648,4.6184,4.5895,4.5918,4.6289,4.6308,4.6308,4.6308,4.6308,4.6308,4.6308,4.6308,4.6308,4.6308,4.6308,4.6308,4.6308,4.6308,0.0,4.6308,4.6308,4.6308,4.6308,4.6308,4.6308,4.6308,4.6308,4.6308,4.6308,0.0,0.0,0.0,0.0,0.0,0.0,0.0,0.0,0.0,0.0,2.716,2.7412,0.0,0.0,0.0,0.0,0.0,0.0,0.0,0.0,0.0,0.0,2.314,2.3707,2.5018,2.5867,2.6521,2.6934,2.8086,2.803,2.6844,2.75,2.7583,2.717,2.7605,2.7758,2.7693,2.7808,2.7679,2.7457,2.8368,2.8498,2.838,3.0343,0.0,0.0,3.2853,3.5956,3.9546,4.1431,4.3539,4.5773,4.7707,4.8812,4.9565,5.0343,5.1096,5.1462,5.0589,5.1069,5.0734,4.6317,4.7045,4.7482,4.2062,4.2429,4.32,4.0732,4.0739,4.1353,4.2009,4.2759,4.3408,4.3643,4.424,4.4642,4.4542,4.5735,4.6843,4.7423,4.7112,4.7173,4.8125,4.8566,4.8212,4.6771,4.8351,4.9006,4.8293,4.6952,4.623,4.6308,4.6308,4.6308,4.6308,4.6308,4.6308,4.6308,4.6308,4.6308,4.6308,4.6308,4.6308,4.6308,4.6308,0.0,4.6308,4.6308,4.6308,4.6308,4.6308,4.6308,4.6308,4.6308,4.6308,4.6308,0.0,0.0,0.0,0.0,0.0,0.0,0.0,2.7135,2.7412,2.767,2.7971,2.8247,2.848,2.8756,2.9132,0.0,0.0,0.0,0.0,0.0,0.0,0.0,0.0,0.0,0.0,0.0,0.0,0.0,0.0,2.7881,2.6806,0.0,2.6761,2.6253,2.6805,2.7093,2.7092,2.7681,2.7794,2.773,2.8851,2.934,0.0,0.0,0.0,0.0,3.4226,3.6861,3.9873,4.0927,4.3714,4.7099,4.9339,5.0419,5.0971,5.1548,5.2101,5.2142,5.0444,5.0532,5.0083,4.5781,4.5814,4.5928,4.2099,4.2019,4.2235,4.0586,4.0947,4.1601,4.1693,4.2726,4.3686,4.4219,4.4829,4.5261,4.5351,4.6057,4.6984,4.8169,4.8063,4.8577,5.0216,5.06,4.9907,4.7878,4.8874,4.898,4.7576,4.6738,4.6308,4.6308,4.6308,4.6308,4.6308,4.6308,4.6308,4.6308,4.6308,4.6308,4.6308,4.6308,4.6308,4.6308,4.6308,0.0,4.6308,4.6308,4.6308,4.6308,4.6308,4.6308,4.6308,4.6308,4.6308,4.6308,0.0,0.0,0.0,0.0,0.0,0.0,2.7211,2.7512,2.7871,2.8549,2.9007,2.9239,2.9239,2.9157,2.9207,0.0,0.0,0.0,0.0,0.0,0.0,0.0,0.0,0.0,0.0,0.0,0.0,0.0,0.0,0.0,0.0,0.0,0.0,0.0,0.0,2.72,2.7261,2.8108,2.8466,0.0,0.0,3.0231,0.0,0.0,0.0,0.0,0.0,3.7087,3.9295,4.0199,4.2883,4.6271,4.8604,4.9992,5.0878,5.1398,5.1646,5.1373,4.9819,4.9419,4.8597,4.4871,4.4398,4.4224,4.1791,4.1474,4.1337,4.0217,4.0964,4.1733,4.1378,4.2584,4.3828,4.4475,4.5215,4.5729,4.582,4.666,4.7565,4.8463,4.9309,5.0319,5.1621,5.2157,5.1449,4.9063,4.887,4.8118,4.6396,4.6308,4.6308,4.6308,4.6308,4.6308,4.6308,4.6308,4.6308,4.6308,4.6308,4.6308,4.6308,4.6308,4.6308,4.6308,4.6308,0.0,0.0,4.6308,4.6308,4.6308,4.6308,4.6308,4.6308,4.6308,4.6308,4.6308,0.0,0.0,0.0,0.0,0.0,0.0,2.7135,2.8122,2.9157,3.0236,3.0412,3.0437,3.0437,3.0005,2.9335,0.0,0.0,0.0,0.0,0.0,0.0,0.0,0.0,0.0,0.0,0.0,0.0,0.0,0.0,0.0,0.0,0.0,0.0,0.0,0.0,0.0,0.0,2.9605,0.0,0.0,0.0,0.0,0.0,0.0,0.0,0.0,0.0,3.6334,3.7739,3.9823,4.1102,4.2331,4.507,4.7386,4.9145,4.9665,4.8984,4.788,4.7394,4.6274,4.4663,4.2144,4.3136,4.3727,4.0034,4.1237,4.2252,3.8999,3.957,4.0775,4.1227,4.2268,4.3418,4.4418,4.5522,4.6223,4.6221,4.9702,5.1525,4.9702,5.261,5.3451,5.0166,5.1654,5.1113,4.6924,4.6595,4.6507,4.6308,4.6308,4.6308,4.6308,4.6308,4.6308,4.6308,4.6308,4.6308,4.6308,4.6308,4.6308,4.6308,4.6308,4.6308,4.6308,4.6308,0.0,0.0,4.6308,4.6308,4.6308,4.6308,4.6308,4.6308,4.6308,4.6308,4.6308,0.0,0.0,0.0,0.0,0.0,0.0,2.762,2.8129,2.8932,3.0412,3.0331,3.0256,3.0563,3.0131,2.9624,2.9145,0.0,0.0,0.0,0.0,0.0,0.0,0.0,0.0,0.0,0.0,0.0,0.0,0.0,0.0,0.0,0.0,0.0,0.0,0.0,0.0,0.0,0.0,0.0,0.0,0.0,0.0,0.0,0.0,0.0,0.0,0.0,0.0,3.7814,3.8693,4.0275,4.1907,4.2359,4.379,4.564,4.7344,4.7686,4.7176,4.564,4.4805,4.3833,4.1735,4.1277,4.1118,4.0039,4.0154,4.0184,3.9242,3.9829,4.065,4.1202,4.1957,4.2648,4.3011,4.3461,4.4105,4.5112,4.7334,4.917,4.9968,5.2057,5.2424,4.9871,5.0399,4.9616,4.6507,4.6308,4.6308,4.6308,4.6308,4.6308,4.6308,4.6308,4.6308,4.6308,4.6308,4.6308,4.6308,4.6308,4.6308,4.6308,4.6308,4.6308,4.6308,4.6308,0.0,0.0,4.6308,4.6308,4.6308,4.6308,4.6308,4.6308,4.6308,4.6308,4.6308,0.0,0.0,0.0,0.0,0.0,2.6658,2.7921,2.8229,2.8932,3.0633,3.0382,3.0181,3.0563,3.0131,2.9804,2.9804,2.8767,0.0,0.0,0.0,0.0,0.0,0.0,0.0,0.0,0.0,2.9804,2.9804,2.9804,0.0,0.0,0.0,0.0,0.0,0.0,0.0,0.0,0.0,0.0,0.0,0.0,0.0,0.0,0.0,0.0,0.0,0.0,0.0,0.0,0.0,0.0,4.0879,4.04,4.1178,4.2759,4.5331,4.5865,4.5438,4.4511,4.3744,4.2922,4.154,4.0555,4.0007,4.031,3.9797,3.9281,3.9646,3.9998,4.0424,4.0976,4.153,4.1911,4.1839,4.2122,4.2859,4.439,4.5455,4.706,4.9629,5.0803,5.1057,5.0201,4.9786,4.8676,4.6464,4.6308,4.6308,4.6308,4.6308,4.6308,4.6308,4.6308,4.6308,4.6308,4.6308,4.6308,4.6308,4.6308,4.6308,4.6308,4.6308,4.6308,4.6308,4.6308,0.0,0.0,4.6308,4.6308,4.6308,4.6308,4.6308,4.6308,4.6308,4.6308,4.6308,0.0,0.0,0.0,0.0,0.0,0.0,2.7846,2.8555,2.9484,3.116,3.0934,3.0588,3.0588,3.0131,2.9804,2.9804,2.8767,0.0,0.0,0.0,0.0,0.0,0.0,0.0,0.0,0.0,2.9804,2.9804,2.9804,2.9804,2.9779,2.9804,0.0,0.0,0.0,0.0,0.0,0.0,0.0,0.0,0.0,0.0,3.4753,0.0,0.0,0.0,0.0,0.0,0.0,0.0,0.0,0.0,0.0,4.0099,4.1051,4.3808,4.3025,4.175,4.3972,4.2957,4.1211,4.1211,4.1381,4.136,4.0574,4.0637,4.0663,3.9882,3.9697,3.9873,4.0399,4.0951,4.1282,4.1232,4.2166,4.3285,4.4464,4.5329,4.6636,4.8573,4.9323,5.0123,5.117,5.0261,4.8676,4.6464,4.6308,0.0,4.6308,4.6308,4.6308,4.6308,4.6308,4.6308,4.6308,4.6308,4.6308,4.6308,4.6308,4.6308,4.6308,4.6308,4.6308,4.6308,0.0,0.0,0.0,4.6308,4.6308,4.6308,4.6308,4.6308,4.6308,4.6308,4.6308,4.6308,0.0,0.0,0.0,0.0,0.0,0.0,2.7412,2.8021,2.8806,3.0131,3.0156,3.0206,3.0563,3.0131,2.9804,2.9804,2.9463,0.0,0.0,0.0,0.0,0.0,0.0,0.0,0.0,0.0,3.0934,3.1305,3.1305,3.1144,3.0904,3.0532,3.0357,3.0351,0.0,0.0,0.0,0.0,0.0,0.0,0.0,3.5025,3.4803,0.0,0.0,0.0,0.0,0.0,0.0,0.0,0.0,0.0,0.0,0.0,0.0,4.1428,4.1692,4.1639,4.2137,4.2024,4.1813,4.1813,4.1173,4.0584,4.0707,4.0118,3.9555,3.9659,3.9697,3.9848,4.0399,4.0951,4.1409,4.1762,4.2434,4.3122,4.3771,4.5451,4.7133,4.8461,4.9217,4.9192,4.7991,4.7546,4.7054,4.6333,4.6308,4.6308,4.6308,4.6308,4.6308,4.6308,4.6308,4.6308,4.6308,4.6308,4.6308,4.6308,4.6308,4.6308,4.6308,4.6308,4.6308,0.0,0.0,0.0,0.0,4.6308,4.6308,4.6308,4.6308,4.6308,4.6308,4.6308,4.6308,4.6308,0.0,0.0,0.0,0.0,0.0,0.0,2.7211,2.7587,2.8197,2.9308,2.9478,2.9659,3.0256,3.0005,2.9804,2.9804,2.9804,0.0,0.0,0.0,0.0,0.0,0.0,0.0,0.0,3.1026,3.1401,3.1759,3.1759,3.1732,3.1687,3.1761,3.1559,3.1143,3.1819,0.0,0.0,0.0,0.0,0.0,3.5811,3.6011,3.536,0.0,0.0,0.0,0.0,0.0,0.0,0.0,0.0,0.0,0.0,0.0,0.0,0.0,4.0715,4.1208,4.1134,4.1266,4.1474,4.1474,4.0925,4.0426,4.055,4.002,3.9393,3.8962,3.8868,3.8967,3.9287,3.9493,3.991,4.0962,4.1637,4.2736,4.4871,4.5252,4.5611,4.636,4.8682,4.9049,4.6103,4.6855,4.7208,4.6352,4.6308,4.6308,4.6308,4.6308,4.6308,4.6308,4.6308,4.6308,4.6308,4.6308,4.6308,4.6308,4.6308,4.6308,4.6308,4.6308,4.6308,0.0,0.0,0.0,0.0,4.6308,4.6308,4.6308,4.6308,4.6308,4.6308,4.6308,4.6308,4.6308,0.0,0.0,0.0,0.0,0.0,0.0,0.0,2.7286,2.767,2.8706,2.8881,2.9132,2.9729,2.9804,2.9804,2.9804,0.0,0.0,0.0,0.0,0.0,0.0,0.0,0.0,3.0101,3.0932,3.1501,3.1706,3.1706,3.197,3.2516,3.3483,3.331,3.2224,3.3257,3.3399,0.0,0.0,0.0,0.0,3.7462,3.729,0.0,0.0,0.0,0.0,0.0,0.0,0.0,0.0,0.0,0.0,0.0,0.0,0.0,0.0,0.0,0.0,0.0,4.064,4.0462,4.0462,4.0678,4.0746,4.0169,4.0275,0.0,3.8048,3.7663,3.7663,3.7711,3.7239,3.7525,3.958,4.0361,4.2354,4.7048,4.5114,4.3304,4.3435,4.8186,4.9732,4.5424,4.7652,4.8505,4.6464,4.6308,4.6308,4.6308,4.6308,4.6308,4.6308,4.6308,4.6308,4.6308,4.6308,4.6308,4.6308,4.6308,4.6308,4.6308,4.6308,4.6308,0.0,0.0,0.0,0.0,4.6308,4.6308,4.6308,4.6308,4.6308,4.6308,4.6308,4.6308,4.6308,0.0,0.0,0.0,0.0,0.0,0.0,0.0,0.0,0.0,0.0,2.8656,2.9132,2.9729,2.9804,2.9804,0.0,0.0,0.0,0.0,0.0,0.0,0.0,0.0,0.0,3.2992,3.3237,3.3828,3.4855,3.4855,3.4988,3.5257,3.51,3.4588,3.3849,3.4435,3.501,0.0,0.0,0.0,0.0,3.7143,3.6672,0.0,0.0,0.0,0.0,3.623,3.6658,0.0,0.0,0.0,0.0,0.0,0.0,0.0,0.0,3.9798,3.9894,3.9947,0.0,4.1096,4.1096,4.1163,4.1049,0.0,4.0431,4.0245,3.9357,3.9181,3.933,3.9701,3.9005,3.9366,4.2347,4.2988,4.3718,4.5444,4.7894,4.8898,4.7256,5.0283,5.0528,4.5483,4.6256,4.6836,4.6352,4.6308,4.6308,4.6308,4.6308,4.6308,4.6308,4.6308,4.6308,4.6308,4.6308,4.6308,4.6308,4.6308,4.6308,4.6308,4.6308,4.6308,0.0,0.0,0.0,4.6308,4.6308,4.6308,4.6308,4.6308,4.6308,4.6308,4.6308,4.6308,4.6308,0.0,0.0,0.0,0.0,0.0,0.0,0.0,0.0,0.0,0.0,0.0,2.8756,2.9308,2.9628,0.0,0.0,0.0,0.0,0.0,0.0,0.0,0.0,0.0,3.2307,3.3359,3.3774,3.4528,3.561,3.5892,3.6385,3.7088,3.7234,3.6681,3.5488,3.5317,3.5697,0.0,0.0,0.0,3.751,3.7248,0.0,0.0,0.0,0.0,0.0,3.6281,3.6733,0.0,3.7814,3.8391,3.8944,0.0,0.0,0.0,0.0,3.9522,3.9697,3.9697,4.03,4.0926,4.0926,4.0926,4.0851,4.0549,4.0325,3.9866,3.8892,3.8687,3.8859,3.9398,3.9665,4.0429,4.2258,4.4334,4.5723,4.5679,4.8109,4.9102,4.7006,4.8233,4.8314,4.5821,4.6035,4.6308,4.6308,4.6308,4.6308,4.6308,4.6308,4.6308,4.6308,4.6308,4.6308,4.6308,4.6308,4.6308,4.6308,4.6308,4.6308,4.6308,4.6308,4.6308,0.0,0.0,0.0,4.6308,4.6308,4.6308,4.6308,4.6308,4.6308,4.6308,4.6308,4.6308,4.6308,0.0,0.0,0.0,0.0,0.0,0.0,0.0,0.0,0.0,0.0,0.0,0.0,0.0,0.0,0.0,0.0,0.0,0.0,0.0,0.0,0.0,0.0,0.0,3.2932,3.3202,3.3968,3.4838,3.5777,3.6487,3.7458,3.8626,3.9562,3.8967,3.7015,3.6166,3.6118,0.0,0.0,3.8292,3.8257,3.7501,0.0,0.0,0.0,0.0,0.0,0.0,0.0,0.0,3.7713,3.8316,3.8869,3.8793,0.0,0.0,0.0,0.0,0.0,3.9772,4.0475,4.0948,4.0237,4.0109,4.0159,4.0059,3.9686,3.9077,3.8058,3.7894,3.8257,3.9221,4.0074,4.092,4.1805,4.5096,4.7488,4.7227,4.7888,4.7631,4.5743,4.5628,4.5815,4.6098,4.623,4.6308,4.6308,4.6308,4.6308,4.6308,4.6308,4.6308,4.6308,4.6308,4.6308,4.6308,4.6308,4.6308,4.6308,4.6308,4.6308,4.6308,4.6308,4.6308,4.6308,0.0,0.0,4.6308,4.6308,4.6308,4.6308,4.6308,4.6308,4.6308,4.6308,4.6308,4.6308,0.0,0.0,0.0,0.0,0.0,0.0,0.0,0.0,0.0,0.0,0.0,0.0,0.0,0.0,0.0,0.0,0.0,0.0,0.0,0.0,0.0,3.355,3.3705,3.4454,3.5866,3.603,3.6713,3.7937,3.9151,4.0157,4.0916,4.1634,4.061,3.8121,3.7425,3.7165,3.7285,3.7464,3.7689,3.7851,3.7334,0.0,0.0,0.0,0.0,0.0,0.0,0.0,0.0,3.7311,3.8039,3.8818,3.8291,0.0,0.0,0.0,0.0,0.0,4.0149,4.213,4.2977,3.8989,3.8305,3.8521,3.8065,3.7921,3.8137,3.9155,3.9735,4.0931,4.385,4.1751,4.0932,4.5154,4.5845,4.6923,4.9979,5.0417,4.9782,4.7984,4.8441,4.7926,4.5444,4.5879,4.6308,4.6308,4.6308,4.6308,4.6308,4.6308,4.6308,4.6308,4.6308,4.6308,4.6308,4.6308,4.6308,4.6308,4.6308,4.6308,4.6308,4.6308,4.6308,4.6308,0.0,4.6308,4.6308,4.6308,4.6308,4.6308,4.6308,4.6308,4.6308,4.6308,4.6308,4.6308,0.0,0.0,0.0,0.0,0.0,0.0,0.0,0.0,0.0,0.0,0.0,0.0,0.0,0.0,0.0,0.0,0.0,0.0,0.0,0.0,0.0,3.5289,3.5369,3.5701,3.6477,3.7182,3.817,3.9469,4.1156,4.2293,4.294,4.2211,4.0625,3.8362,3.7704,3.7387,3.74,3.7158,3.7365,3.7701,0.0,0.0,0.0,0.0,0.0,0.0,0.0,0.0,0.0,0.0,3.7964,3.8743,3.7839,0.0,0.0,0.0,0.0,0.0,3.9496,4.1204,4.2323,4.0238,4.2069,4.4421,4.4446,4.3331,4.2179,4.19,4.1102,4.1088,4.3169,4.3195,4.4324,4.862,4.66,4.5453,4.8149,4.762,4.6887,4.6564,4.6867,4.6744,4.5789,4.6074,4.6308,4.6308,4.6308,4.6308,4.6308,4.6308,4.6308,4.6308,4.6308,4.6308,4.6308,4.6308,4.6308,4.6308,4.6308,4.6308,4.6308,4.6308,4.6308,4.6308,0.0,4.6308,4.6308,4.6308,4.6308,4.6308,4.6308,4.6308,4.6308,4.6308,4.6308,4.6308,0.0,0.0,0.0,0.0,0.0,0.0,0.0,0.0,0.0,0.0,0.0,0.0,0.0,0.0,0.0,0.0,0.0,0.0,0.0,0.0,3.4987,3.643,3.6643,3.6943,3.7392,3.8362,3.9589,4.1115,4.2891,4.4027,4.4496,4.2851,4.0924,3.8859,3.8182,3.7776,3.7605,3.7045,3.7109,3.7517,0.0,0.0,0.0,0.0,0.0,0.0,0.0,0.0,0.0,0.0,0.0,0.0,0.0,0.0,0.0,3.7813,3.8215,3.8944,3.922,4.0386,4.1713,4.2496,4.5049,4.7737,4.9179,4.708,4.4729,4.4404,4.2658,4.1551,4.2787,4.4876,4.7173,4.9478,4.6724,4.4805,4.625,4.5293,4.4668,4.5254,4.5289,4.5586,4.623,4.6308,4.6308,4.6308,4.6308,4.6308,4.6308,4.6308,4.6308,4.6308,4.6308,4.6308,4.6308,4.6308,4.6308,4.6308,4.6308,4.6308,4.6308,4.6308,4.6308,4.6308,4.6308,4.6308,4.6308,4.6308,4.6308,4.6308,4.6308,4.6308,4.6308,4.6308,4.6308,4.6308,0.0,0.0,0.0,0.0,0.0,0.0,0.0,0.0,0.0,0.0,0.0,0.0,0.0,0.0,0.0,0.0,0.0,0.0,0.0,0.0,3.5723,3.6464,3.7045,3.8212,4.0068,4.0217,4.1205,4.318,4.4496,4.5185,4.5214,4.4466,4.2731,4.0217,3.9541,3.8913,0.0,0.0,3.6949,3.711,3.6481,0.0,0.0,0.0,0.0,0.0,0.0,0.0,0.0,0.0,0.0,0.0,0.0,0.0,3.8165,3.8642,3.8843,3.912,4.0124,4.1282,4.2831,4.5345,4.3296,4.1758,4.5934,4.3525,4.1527,4.5318,4.4743,4.411,4.6011,4.7009,4.6985,4.52,4.5617,4.6289,4.6816,4.6733,4.6538,4.625,4.6211,4.623,4.6289,4.6308,4.6308,4.6308,4.6308,4.6308,4.6308,4.6308,4.6308,4.6308,4.6308,4.6308,4.6308,4.6308,4.6308,4.6308,4.6308,4.6308,4.6308,4.6308,4.6308,4.6308,4.6308,4.6308,4.6308,4.6308,4.6308,4.6308,4.6308,4.6308,4.6308,4.6308,4.6308,4.6308,0.0,0.0,0.0,0.0,0.0,0.0,0.0,0.0,0.0,0.0,0.0,0.0,0.0,0.0,0.0,0.0,0.0,0.0,0.0,3.5294,3.5968,3.7015,3.7674,3.8662,3.9983,4.0665,4.2204,4.4586,4.5122,4.5349,4.5254,4.3381,4.1754,4.033,3.8988,0.0,0.0,0.0,0.0,3.6572,3.603,3.5671,0.0,0.0,0.0,0.0,0.0,0.0,0.0,0.0,3.716,3.7613,3.716,3.7713,3.8467,3.7989,3.8341,3.8994,3.9371,4.1872,4.4438,4.5099,4.4315,4.4893,5.0733,4.892,4.6374,4.7761,4.5982,0.0,4.4772,4.6589,4.755,4.6185,4.6387,4.6836,4.7266,4.6875,4.6484,4.6328,4.6308,4.6308,4.6308,4.6308,4.6308,4.6308,4.6308,4.6308,4.6308,4.6308,4.6308,4.6308,4.6308,4.6308,4.6308,4.6308,4.6308,4.6308,4.6308,4.6308,4.6308,4.6308,4.6308,4.6308,4.6308,4.6308,4.6308,4.6308,4.6308,4.6308,4.6308,4.6308,4.6308,4.6308,4.6308,4.6308,0.0,0.0,0.0,0.0,0.0,0.0,0.0,0.0,0.0,0.0,0.0,0.0,0.0,0.0,0.0,0.0,0.0,0.0,3.5519,3.5519,3.6088,3.7327,3.8033,3.9119,4.0597,4.1344,4.2718,4.4786,4.561,4.5756,4.5254,4.3239,4.1737,0.0,0.0,0.0,0.0,0.0,0.0,0.0,3.5765,3.5608,0.0,0.0,0.0,0.0,0.0,0.0,0.0,0.0,3.7034,3.7437,3.7261,3.7838,3.8542,3.8115,3.9296,4.0651,4.0502,4.2675,4.5001,4.5115,4.4783,4.6006,5.2115,5.0467,4.8012,4.9204,4.7051,4.4902,4.459,4.6211,4.7363,4.666,4.6714,4.6992,4.7148,4.668,4.6308,4.6308,4.6308,4.6308,4.6308,4.6308,4.6308,4.6308,4.6308,4.6308,4.6308,4.6308,4.6308,4.6308,4.6308,4.6308,4.6308,4.6308,4.6308,4.6308,4.6308,4.6308,4.6308,4.6308,4.6308,4.6308,4.6308,4.6308,4.6308,4.6308,4.6308,4.6308,4.6308,4.6308,4.6308,4.6308,4.6308,4.6308,0.0,0.0,0.0,0.0,0.0,0.0,0.0,0.0,0.0,0.0,0.0,0.0,0.0,0.0,0.0,0.0,0.0,0.0,3.5519,3.5519,3.6088,3.7327,3.8033,3.9637,4.2301,4.2382,4.2825,4.3704,4.6097,4.657,4.5274,4.4596,4.3248,0.0,0.0,0.0,0.0,0.0,0.0,0.0,3.5989,3.5904,3.6428,0.0,0.0,0.0,0.0,0.0,0.0,0.0,3.6833,3.6707,3.8341,3.8467,3.8241,3.9346,4.2007,4.4439,4.3887,4.383,4.4269,4.5847,4.4284,4.3547,4.8293,4.6348,4.4787,4.9279,4.8096,4.6308,4.6308,4.6308,4.6172,4.5742,4.6387,4.6777,4.6367,4.6308,4.6308,4.6308,4.6308,4.6308,4.6308,4.6308,4.6308,4.6308,4.6308,4.6308,4.6308,4.6308,4.6308,4.6308,4.6308,4.6308,4.6308,4.6308,4.6308,4.6308,4.6308,4.6308,4.6308,4.6308,4.6308,4.6308,4.6308,4.6308,4.6308,4.6308,4.6308,4.6308,4.6308,4.6308,4.6308,4.6308,4.6308,4.6308,0.0,0.0,0.0,0.0,0.0,0.0,0.0,0.0,0.0,0.0,0.0,0.0,0.0,0.0,0.0,0.0,0.0,0.0,3.5519,3.5519,3.6088,3.7327,3.8033,3.8863,3.9838,4.1265,4.2716,4.4172,4.4886,4.5014,4.4566,4.3474,0.0,0.0,0.0,0.0,0.0,0.0,0.0,0.0,3.9168,3.8569,3.7661,0.0,0.0,0.0,0.0,0.0,0.0,0.0,0.0,0.0,3.7562,3.8391,3.9195,3.9145,4.035,4.1389,3.9794,4.2215,4.4642,4.2408,4.3538,4.551,4.6786,4.6227,4.6022,4.7993,4.7282,4.6308,4.6308,4.6543,4.6601,4.6191,4.6328,4.666,4.7129,4.668,4.6308,4.6308,4.6308,4.6308,4.6308,4.6308,4.6308,4.6308,4.6308,4.6308,4.6308,4.6308,4.6308,4.6308,4.6308,4.6308,4.6308,4.6308,4.6308,4.6308,4.6308,4.6308,4.6308,4.6308,4.6308,4.6308,4.6308,4.6308,4.6308,4.6308,4.6308,4.6308,4.6308,4.6308,4.6308,4.6308,4.6308,4.6308,0.0,0.0,0.0,0.0,0.0,0.0,0.0,0.0,3.5519,3.5519,3.5519,3.5519,0.0,0.0,0.0,3.5519,3.5519,0.0,3.5519,3.5519,3.6088,3.7327,3.8033,3.9078,4.0559,4.2043,4.3311,4.4346,4.4346,4.4326,4.4276,0.0,0.0,0.0,0.0,0.0,0.0,0.0,0.0,0.0,4.0648,3.9879,3.8523,0.0,0.0,0.0,0.0,0.0,0.0,0.0,0.0,0.0,3.7813,3.8567,3.9597,4.0577,4.1268,4.1846,4.2216,4.4065,4.5531,4.3919,4.49,4.6343,4.663,4.6887,4.7216,4.7724,4.7422,4.7012,4.6836,4.6875,4.6792,4.6601,4.6406,4.6484,4.6992,4.6621,4.6308,4.6308,4.6308,4.6308,4.6308,4.6308,4.6308,4.6308,4.6308,4.6308,4.6308,4.6308,4.6308,4.6308,4.6308,4.6308,4.6308,4.6308,4.6308,4.6308,4.6308,4.6308,4.6308,4.6308,4.6308,4.6308,4.6308,4.6308,4.6308,4.6308,4.6308,4.6308,4.6308,4.6308,4.6308,4.6308,4.5656,4.4826,0.0,0.0,0.0,0.0,0.0,0.0,0.0,3.5519,3.5519,3.5519,3.5519,3.5519,0.0,0.0,0.0,3.5519,3.5519,3.5519,3.5519,3.5519,3.6088,3.7327,3.8212,4.0098,4.316,4.3878,4.4207,4.4207,4.4267,4.4296,0.0,0.0,0.0,0.0,0.0,0.0,0.0,0.0,0.0,0.0,4.0957,4.0245,3.9176,3.9137,0.0,0.0,0.0,0.0,0.0,0.0,0.0,0.0,3.8718,3.8919,3.9572,4.2534,4.3639,4.4587,4.7849,4.7525,4.6617,4.7934,4.7237,4.6471,4.7386,4.791,4.8203,4.8164,4.8125,4.7969,4.7598,4.7168,4.6831,4.687,4.6582,4.6308,4.6348,4.6328,4.6308,4.6308,4.6308,4.6308,4.6308,4.6308,4.6308,4.6308,4.6308,4.6308,4.6308,4.6308,4.6308,4.6308,4.6308,4.6308,4.6308,4.6308,4.6308,4.6308,4.6308,4.6308,4.6308,4.6308,4.6308,4.6308,4.6308,4.6308,4.6308,4.6308,4.6308,4.6265,4.607,4.5983,4.5939,4.57,4.4188,4.2264,0.0,0.0,0.0,0.0,0.0,0.0,3.5519,3.5519,3.5519,3.5519,3.5519,3.5519,3.5519,3.5519,0.0,3.5519,3.5519,3.5519,3.5519,3.5519,3.6088,3.7327,3.9529,4.1343,4.2571,4.319,4.3519,4.3519,4.4027,4.4296,0.0,0.0,0.0,0.0,0.0,0.0,0.0,0.0,0.0,0.0,0.0,4.1215,3.9671,3.9253,3.7964,0.0,0.0,0.0,0.0,0.0,0.0,0.0,3.8718,3.9195,3.9673,4.0375,4.2734,4.4627,4.25,4.4413,4.6636,4.4785,4.5814,4.7317,4.7531,4.791,4.8105,4.7793,4.7441,4.7123,4.709,4.6719,4.6543,4.6831,4.6582,4.6426,4.6738,4.6504,4.6308,4.6308,4.6308,4.6308,4.6308,4.6308,4.6308,4.6308,4.6308,4.6308,4.6308,4.6308,4.6308,4.6308,4.6308,4.6308,4.6308,4.6308,4.6308,0.0,4.6308,4.6308,4.6308,4.6308,4.6308,4.6308,4.6308,4.6308,4.6308,4.6308,4.6308,4.6114,4.4144,4.3397,4.3175,4.1259,4.022,3.975,0.0,0.0,0.0,0.0,0.0,0.0,0.0,0.0,3.6326,3.6066,3.5718,3.5519,3.5519,3.5519,0.0,0.0,3.5519,3.5519,3.5519,3.5519,3.6357,3.8255,4.0307,4.1852,4.2791,4.313,4.329,4.329,4.3668,4.3684,0.0,0.0,0.0,0.0,0.0,0.0,0.0,0.0,0.0,0.0,0.0,0.0,4.0697,3.9551,3.7964,3.648,3.7009,0.0,0.0,0.0,0.0,0.0,0.0,0.0,3.9948,4.1279,4.2156,4.2771,4.3175,4.4235,4.5193,4.5225,4.645,4.774,4.8151,4.8047,4.7851,4.7617,4.7226,4.6831,4.666,4.6445,4.6367,4.6601,4.6445,4.6367,4.6601,4.6445,4.6308,4.6308,4.6308,4.6308,4.6308,4.6308,4.6308,4.6308,4.6308,4.6308,4.6308,4.6308,4.6308,4.6308,4.6308,4.6308,4.6308,4.6308,4.6308,4.6308,4.6308,4.6308,4.6308,4.6308,4.5656,4.4605,4.5788,4.4977,4.2907,4.4055,4.3878,4.2684,4.1394,4.0898,4.0718,3.9432,3.8262,3.7252,0.0,0.0,0.0,0.0,0.0,0.0,0.0,0.0,0.0,3.6647,3.5959,3.5519,3.5519,3.5519,3.5519,0.0,0.0,0.0,3.5519,3.5699,3.6866,3.9122,4.0516,4.1773,4.2951,4.31,4.313,4.313,4.325,0.0,0.0,0.0,0.0,0.0,0.0,0.0,0.0,0.0,0.0,0.0,0.0,0.0,0.0,0.0,0.0,3.648,3.7009,3.721,3.7386,3.8517,0.0,0.0,0.0,0.0,4.0149,4.2434,4.1833,4.133,4.528,4.497,4.422,4.6923,4.7578,4.7838,4.862,4.8086,4.7461,4.7461,4.7129,4.6719,4.6367,4.6308,4.6308,4.6308,4.6308,4.6308,4.6308,4.6308,4.6308,4.6308,4.6308,4.6308,4.6308,4.6308,4.6308,4.6308,4.6308,4.6308,4.6308,4.6308,4.6308,4.6308,4.6308,4.6308,4.6308,4.6308,4.6308,4.6308,4.6308,4.6308,4.6308,4.5851,4.4561,4.2666,4.4321,4.2729,3.9175,4.1169,4.0808,3.8947,3.8536,3.8337,3.8308,3.7895,3.6421,3.4686,0.0,0.0,0.0,0.0,0.0,0.0,0.0,0.0,0.0,0.0,3.5959,3.5519,3.5519,3.5519,3.5519,3.5519,3.5519,3.5519,3.5519,0.0,0.0,3.8482,3.9828,4.0876,4.1643,4.2211,4.2511,4.2511,4.304,0.0,0.0,0.0,0.0,0.0,0.0,0.0,0.0,0.0,0.0,0.0,0.0,0.0,0.0,0.0,0.0,3.648,3.7009,3.721,3.7386,3.8517,3.8894,0.0,0.0,0.0,3.9772,4.0124,4.1993,4.385,4.3482,4.4808,4.6495,4.7376,4.7578,4.7715,4.8183,4.7637,4.6967,4.6967,4.668,4.6367,4.6308,4.6308,4.6308,4.6308,4.6308,4.6308,4.6308,4.6308,4.6308,4.6308,4.6308,4.6308,4.6308,4.6308,4.6308,4.6308,4.6308,4.6308,4.6308,4.6308,4.6308,4.6308,4.6308,4.6308,4.6308,4.6308,4.6308,4.6308,4.6308,4.6308,4.6201,4.4055,4.2907,4.2487,4.0763,3.9585,3.9039,3.9358,3.9295,3.8811,3.6606,3.5788,3.5556,3.3464,3.2455,3.2171,0.0,0.0,0.0,0.0,0.0,0.0,0.0,0.0,0.0,0.0,0.0,3.5519,3.5519,3.5519,3.5519,3.5519,3.5519,3.5519,3.5519,3.6387,3.7345,3.835,3.932,4.0337,4.1373,4.1673,4.2021,4.241,4.2661,0.0,0.0,4.2396,4.2385,0.0,0.0,0.0,0.0,0.0,0.0,0.0,0.0,4.0681,0.0,0.0,0.0,3.8842,3.6481,3.6133,3.6813,3.7169,3.7765,3.8542,3.9421,0.0,0.0,0.0,4.0953,4.2453,4.3169,4.4663,4.6332,4.7356,4.7402,4.7383,4.8047,4.7539,4.6889,4.6889,4.6601,4.6308,4.6308,4.6308,4.6308,4.6308,4.6308,4.6308,4.6308,4.6308,4.6308,4.6308,4.6308,4.6308,4.6308,4.6308,4.6308,4.6308,4.6308,4.6308,4.6308,4.6308,4.6308,4.6308,4.6308,4.6308,4.6308,4.6308,4.5684,4.448,4.4588,4.3836,4.236,3.9714,3.925,4.0537,3.9432,3.7436,3.5012,3.639,3.6113,3.4779,3.3685,3.3276,3.3135,3.209,3.1711,3.1711,0.0,0.0,0.0,0.0,0.0,0.0,0.0,0.0,0.0,0.0,0.0,3.5519,3.5519,0.0,0.0,0.0,3.5519,3.5519,3.5519,3.6118,3.7002,3.8093,3.8781,3.9709,4.0864,4.1074,4.1403,4.1901,0.0,0.0,4.312,4.2362,4.1852,0.0,4.0174,0.0,0.0,0.0,0.0,0.0,4.0083,4.1419,0.0,0.0,0.0,0.0,3.7698,3.6899,3.7716,3.682,3.7268,3.8391,3.9396,3.9697,0.0,0.0,0.0,4.0939,4.2859,4.4416,4.5767,4.7087,4.7364,4.743,4.804,4.7539,4.6889,4.6889,4.6601,4.6308,4.6308,4.6308,4.6308,4.6308,4.6308,4.6308,4.6308,4.6308,4.6308,4.6308,4.6308,4.6308,4.6308,4.6308,4.6308,4.6308,4.6406,4.6426,4.6308,4.6406,4.6406,4.6308,4.6308,4.6308,4.6308,4.5772,4.4409,4.2313,4.2298,4.1287,3.932,3.6529,3.6282,3.8033,3.739,3.5059,3.1853,3.3638,3.3365,3.1784,3.1784,3.1784,3.1784,3.1784,3.1778,3.1711,0.0,0.0,0.0,0.0,0.0,0.0,0.0,0.0,0.0,0.0,0.0,3.5519,3.5519,3.5519,3.5519,3.5519,3.5519,3.5519,3.5519,3.6118,3.6776,3.7417,3.8093,0.0,3.9481,4.0127,4.0457,0.0,0.0,0.0,4.2467,4.302,4.2683,4.1515,3.975,4.0257,4.2319,0.0,0.0,0.0,0.0,4.3913,0.0,0.0,4.6832,4.5593,0.0,0.0,4.1482,3.8793,3.8316,3.8944,3.9521,0.0,0.0,0.0,0.0,0.0,4.1949,4.3738,4.5551,4.6615,4.7567,4.8319,4.8218,4.7539,4.6889,4.6889,4.6601,4.6308,4.6308,4.6308,4.6308,4.6308,4.6308,4.6308,4.6308,4.6308,4.6308,4.6308,4.6308,4.6308,4.6308,4.6308,4.6308,4.6308,4.668,4.6674,4.6328,4.668,4.6719,4.6308,4.6308,4.6308,4.6308,4.4294,4.2193,4.008,3.9733,3.9521,3.932,3.6529,3.537,3.537,3.3088,3.1948,3.1724,3.1853,3.1967,3.2078,3.2078,3.2078,3.2078,3.2078,3.1904,3.1711,0.0,0.0,0.0,0.0,0.0,0.0,0.0,0.0,0.0,0.0,0.0,0.0,0.0,0.0,0.0,3.5519,3.5519,3.5519,3.5519,3.5729,3.6327,3.7357,3.7644,3.8272,3.9391,3.9631,0.0,0.0,0.0,4.2415,4.3602,4.3479,4.3639,4.3924,4.1276,4.0162,4.011,3.8847,0.0,0.0,0.0,0.0,0.0,0.0,4.7273,4.9261,0.0,0.0,0.0,4.0826,0.0,0.0,0.0,0.0,0.0,0.0,4.0074,4.0645,4.1425,4.2724,4.4134,4.5496,4.6377,4.701,4.7303,4.7114,4.6811,4.6582,4.6406,4.6308,4.6308,4.6308,4.6308,4.6308,4.6308,4.6308,4.6308,4.6308,4.6308,4.6308,4.6308,4.6308,4.6308,4.6308,4.6308,4.6308,4.6445,4.6582,4.6699,4.6601,4.6582,4.6699,4.6445,4.5659,4.4268,4.4033,4.1876,3.7795,3.755,3.6591,3.5,3.3596,3.2994,3.2947,3.2077,3.1711,3.1724,3.1877,3.1904,3.1837,3.2024,3.1984,3.1824,3.1824,3.1757,3.1711,0.0,0.0,0.0,0.0,0.0,0.0,0.0,0.0,0.0,0.0,0.0,0.0,0.0,0.0,0.0,0.0,3.5848,3.5908,3.6101,3.6148,3.6626,3.7704,3.7734,3.8272,3.9391,3.9391,0.0,0.0,0.0,0.0,0.0,4.3457,4.3986,4.4982,4.2925,4.1429,0.0,0.0,0.0,4.0437,0.0,0.0,4.7475,0.0,4.8586,5.0297,0.0,0.0,0.0,0.0,0.0,0.0,0.0,0.0,0.0,0.0,0.0,4.0333,4.0873,4.1851,4.3142,4.4856,4.5684,4.6339,4.7192,4.7259,4.6987,4.6616,4.6504,4.6465,4.6328,4.6308,4.6308,4.6308,4.6308,4.6308,4.6308,4.6308,4.6308,4.6308,4.6308,4.6308,4.6308,4.6308,4.6308,4.6308,4.6426,0.0,4.6719,4.6582,4.6224,4.563,4.5496,4.3958,4.0954,4.1493,3.9659,3.5517,3.5231,3.4238,3.2581,3.1979,3.1711,3.1711,3.1711,3.1711,3.1724,3.1877,3.1957,3.2032,3.2219,3.2179,3.2019,3.2019,3.1885,3.1711,0.0,0.0,0.0,0.0,0.0,0.0,0.0,0.0,0.0,0.0,0.0,0.0,0.0,0.0,0.0,0.0,3.6553,3.6793,3.7357,3.7387,3.7704,3.8362,3.8409,3.8721,3.9421,0.0,0.0,0.0,0.0,0.0,0.0,0.0,4.3761,0.0,4.4467,4.4129,4.3472,0.0,4.0846,4.1276,0.0,4.5547,4.4001,0.0,5.1322,0.0,4.6505,4.6049,0.0,0.0,0.0,0.0,0.0,0.0,0.0,0.0,0.0,0.0,0.0,0.0,0.0,4.4689,4.5628,4.6424,4.7945,4.788,4.7375,4.6958,4.6855,4.6714,4.6367,4.6308,4.6308,4.6308,4.6308,4.6308,4.6308,4.6308,4.6308,4.6308,4.6308,4.6308,4.6308,4.6308,4.6308,4.6308,4.668,4.6738,4.6348,4.663,4.5649,4.3207,4.3431,4.1374,3.6643,3.6609,3.5531,3.34,3.2875,3.2594,3.2581,3.1979,3.1711,3.1711,3.1711,3.1711,3.1711,3.1724,3.2059,3.2567,3.2581,3.2581,3.2567,3.2581,3.2219,3.1711,0.0,0.0,0.0,0.0,0.0,3.8054,3.8054,3.8054,0.0,0.0,0.0,0.0,0.0,0.0,0.0,0.0,3.7853,3.7734,3.7417,3.7387,3.7704,3.8362,3.8409,3.8931,4.0098,0.0,0.0,0.0,0.0,0.0,0.0,0.0,0.0,0.0,4.5564,4.5666,4.5332,4.2576,0.0,0.0,4.6078,4.8166,0.0,0.0,0.0,0.0,0.0,5.0357,0.0,0.0,4.357,3.9509,0.0,0.0,0.0,0.0,0.0,0.0,3.9873,0.0,0.0,0.0,0.0,0.0,4.5447,4.5599,4.5752,4.6352,4.5949,4.566,4.6211,4.6308,4.6308,4.6308,4.6308,4.6308,4.6308,4.6308,4.6308,4.6308,4.6308,4.6308,4.6308,4.6308,4.6308,0.0,4.6406,4.6562,4.6694,4.5389,4.4243,4.3558,4.2138,3.9831,3.6643,3.693,3.5845,3.34,3.2875,3.2594,3.2581,3.1979,3.1711,3.1711,3.1711,3.1711,3.1738,3.1891,3.1957,3.2005,3.2433,3.234,3.1979,3.2144,3.1984,3.1711,0.0,0.0,3.8044,3.8449,3.8771,3.8937,3.8937,3.8937,3.8857,0.0,0.0,0.0,0.0,0.0,0.0,0.0,3.914,3.8781,3.8661,3.8392,3.8404,3.8811,3.8811,3.932,4.0367,0.0,0.0,0.0,0.0,0.0,0.0,0.0,0.0,0.0,0.0,4.5726,4.5339,0.0,0.0,0.0,4.7681,0.0,0.0,5.2055,5.352,0.0,0.0,0.0,4.8914,4.7856,4.4204,0.0,0.0,0.0,0.0,0.0,0.0,0.0,0.0,0.0,0.0,0.0,0.0,0.0,4.514,4.5552,4.592,4.6898,4.6693,4.6445,4.6777,4.6836,4.6836,4.6836,4.6836,4.6719,4.6348,4.6308,4.5939,4.487,4.5656,4.5895,4.487,4.57,4.6308,4.6308,4.6308,4.6025,4.5324,4.3321,4.1768,4.0782,3.9722,3.7906,3.5265,3.5549,3.4919,3.34,3.2875,3.2661,3.2755,3.2045,3.1778,3.1837,3.1764,3.1711,3.1724,3.1851,3.1891,3.1904,3.2407,3.2393,3.2099,3.2273,3.2104,3.1837,0.0,0.0,3.887,3.876,3.929,3.975,3.984,3.978,3.996,0.0,0.0,0.0,0.0,0.0,0.0,0.0,0.0,3.99,4.0367,3.984,3.9481,3.9391,3.9481,3.981,4.0487,4.0516,0.0,0.0,0.0,0.0,0.0,0.0,0.0,0.0,4.4792,4.4755,4.4219,4.3003,0.0,4.5105,4.9185,4.9117,0.0,0.0,5.1191,0.0,4.7139,4.6053,4.5619,4.6328,4.4763,0.0,0.0,0.0,0.0,0.0,3.9238,0.0,0.0,0.0,0.0,0.0,0.0,0.0,4.5681,4.6396,4.6701,4.7391,4.7573,4.739,4.69,4.6875,4.6914,4.6919,4.7109,4.709,4.6465,4.6406,4.5576,4.3282,4.5015,4.5475,4.3219,4.5021,4.6308,4.6308,4.6026,4.499,4.289,4.0815,3.8735,3.6736,3.679,3.5734,3.3414,3.3414,3.3414,3.34,3.2902,3.2781,3.2946,3.2152,3.1851,3.2091,3.1845,3.1711,3.1724,3.1751,3.1864,3.2131,3.2474,3.2581,3.2554,3.2581,3.238,3.2011,3.8217,3.9211,4.0227,4.0752,4.1373,4.2002,4.2521,4.2152,4.2032,0.0,0.0,0.0,0.0,0.0,0.0,0.0,0.0,0.0,4.0457,4.0277,3.996,3.9421,3.9918,4.0516,4.1194,4.1194,4.1523,0.0,0.0,0.0,0.0,0.0,0.0,0.0,4.3491,4.3299,4.3558,4.295,0.0,4.7395,4.6872,0.0,4.8439,5.1194,5.2365,5.229,4.9803,4.9412,4.9464,0.0,4.4677,4.4206,0.0,0.0,0.0,0.0,0.0,0.0,0.0,0.0,0.0,0.0,0.0,0.0,0.0,4.3929,4.4464,4.363,4.3499,4.3178,4.2073,4.2461,4.2812,4.252,4.416,4.582,4.6635,4.7109,4.6892,4.5733,4.6274,4.6484,4.5651,4.6026,4.6308,4.6308,4.4454,4.2523,4.0773,3.834,3.6997,3.7162,3.5224,3.39,3.3414,3.3414,3.3414,3.3414,3.3066,3.2969,3.2959,3.2305,3.2051,3.2091,3.1845,3.1711,3.1738,3.1917,3.2051,3.2131,3.2474,3.2447,3.2211,3.25,3.226,3.1791,3.9469,4.0541,4.1735,4.2239,4.291,4.3569,4.4227,4.4068,4.3928,0.0,0.0,0.0,0.0,0.0,0.0,0.0,0.0,0.0,4.1904,4.1564,4.1104,4.0427,4.0726,4.1224,4.1882,4.1882,4.2211,4.2851,0.0,0.0,0.0,0.0,0.0,0.0,0.0,0.0,4.4379,0.0,4.2854,4.4899,4.6586,0.0,5.1178,5.1464,5.1917,5.2002,4.9236,4.8488,4.8359,4.5494,4.4391,0.0,0.0,4.238,4.2058,0.0,4.1895,4.1706,0.0,0.0,0.0,4.067,0.0,0.0,0.0,0.0,4.132,4.1376,4.1252,4.1013,4.0582,4.0879,4.123,4.1445,4.3476,4.5019,4.5,4.6484,4.6921,4.5027,4.6261,4.6625,4.4944,4.5876,4.602,4.4561,4.1033,3.8738,3.8198,3.5798,3.4715,3.5323,3.4086,3.3414,3.3414,3.3414,3.3414,3.3414,3.312,3.3053,3.3173,3.2585,3.2367,3.2353,3.2011,3.1891,3.1891,3.2038,3.2278,3.2559,3.2755,3.2714,3.2545,3.2594,3.2407,3.2112,4.0773,4.1717,4.2829,4.3368,4.4057,4.4766,4.5574,4.5574,4.5484,0.0,0.0,0.0,0.0,0.0,0.0,0.0,0.0,0.0,0.0,4.3592,4.294,4.2387,4.1857,4.2182,4.3519,4.29,4.2791,4.329,0.0,0.0,0.0,0.0,0.0,0.0,0.0,0.0,0.0,0.0,0.0,4.2474,0.0,4.9492,5.1831,5.0726,5.0272,4.9837,4.757,4.6601,4.6152,4.5215,0.0,4.3968,4.4732,4.3502,0.0,0.0,0.0,0.0,0.0,0.0,0.0,0.0,0.0,3.9353,0.0,0.0,0.0,0.0,3.9321,3.9132,3.9119,3.9219,3.9531,4.0312,4.2324,4.3379,4.2246,4.4609,0.0,4.3409,4.5814,4.6645,4.388,4.5224,4.5065,4.2129,3.7831,3.5388,3.5412,3.3595,3.2835,3.3307,3.3387,3.3414,3.3414,3.3414,3.3414,3.3414,3.3173,3.3187,3.3387,3.2915,3.2674,3.2661,3.2318,3.2185,3.2185,3.2251,3.2545,3.2973,3.2973,3.2973,3.2946,3.2768,3.2607,3.2433,4.1422,4.1918,4.2797,4.3988,4.4736,4.5603,4.689,4.657,4.6181,0.0,0.0,0.0,0.0,0.0,0.0,0.0,0.0,0.0,4.784,0.0,4.5899,4.5824,4.3548,4.3948,4.757,4.4736,4.325,4.329,4.329,0.0,0.0,0.0,0.0,0.0,4.385,0.0,0.0,0.0,4.408,0.0,4.4078,4.4437,0.0,4.7032,4.7183,4.664,4.6425,4.6348,4.6113,0.0,4.5343,4.613,0.0,4.5131,0.0,0.0,0.0,0.0,0.0,0.0,0.0,0.0,4.0766,0.0,0.0,0.0,0.0,3.6256,0.0,0.0,0.0,0.0,0.0,0.0,0.0,0.0,3.8594,4.0781,4.2457,4.2525,4.5822,4.7274,4.5023,4.4363,4.2785,3.962,3.714,3.4825,3.2675,3.2592,3.2741,3.3013,3.328,3.3414,3.3414,3.3414,3.3414,3.3414,3.3374,3.3374,3.34,3.308,3.2933,3.2969,3.2674,3.2541,3.2567,3.2822,3.2919,3.2973,3.2973,3.2973,3.2973,3.2995,3.2599,3.2144,4.2051,4.281,4.3778,4.4736,4.5454,4.6181,4.716,4.7399,4.7608,0.0,0.0,0.0,0.0,0.0,0.0,0.0,0.0,5.0133,0.0,0.0,0.0,4.3717,4.3525,4.3922,4.4871,4.3831,4.329,4.329,4.2629,4.2462,0.0,0.0,0.0,0.0,4.497,0.0,4.3671,0.0,4.4481,0.0,0.0,0.0,0.0,4.5622,4.647,4.6211,4.6296,4.6308,4.623,0.0,4.5485,0.0,0.0,0.0,0.0,0.0,0.0,0.0,0.0,0.0,0.0,0.0,0.0,0.0,3.581,0.0,3.4878,0.0,0.0,0.0,0.0,0.0,0.0,0.0,0.0,0.0,0.0,0.0,4.1035,4.1953,0.0,0.0,4.4957,0.0,0.0,0.0,3.5454,3.2739,3.2423,3.2527,3.2648,3.2768,3.3173,3.3334,3.316,3.3334,3.3414,3.3414,3.3414,3.3414,3.3414,3.328,3.3133,3.2973,3.2902,3.2848,3.2848,3.2933,3.308,3.3227,3.3227,3.3227,3.3213,3.304,3.2826,3.2559,4.287,0.0,4.4506,4.5185,4.5852,4.654,4.7219,4.7878,4.8395,0.0,0.0,0.0,4.8545,4.93,0.0,0.0,0.0,5.2347,0.0,0.0,4.9215,4.5746,4.4604,0.0,0.0,4.3751,4.2895,4.2609,4.1902,4.1527,0.0,0.0,0.0,0.0,0.0,4.6029,4.5884,0.0,4.5233,4.267,4.3321,4.3228,4.3,4.5229,4.617,4.6308,4.6308,4.6308,4.625,4.5898,4.5384,0.0,4.6365,0.0,0.0,0.0,0.0,0.0,4.1045,0.0,0.0,0.0,0.0,0.0,0.0,0.0,0.0,0.0,0.0,0.0,0.0,0.0,0.0,0.0,0.0,0.0,0.0,0.0,0.0,0.0,0.0,0.0,0.0,0.0,0.0,0.0,0.0,3.1375,3.2393,3.2621,3.2674,3.2594,3.3106,3.3307,3.3093,3.3307,3.3414,3.3414,3.3414,3.3414,3.3414,3.3414,3.3293,3.3093,3.3093,3.3093,3.3093,3.3093,3.3213,3.3414,3.3414,3.3414,3.3387,3.3173,3.3053,3.2919,4.4117,4.4267,4.4506,4.5185,4.5852,4.654,4.7219,4.7878,0.0,0.0,0.0,0.0,0.0,0.0,0.0,0.0,0.0,5.863,5.7206,0.0,5.3378,0.0,0.0,4.6125,0.0,4.5746,4.1902,4.078,4.1348,4.1305,4.0692,0.0,0.0,0.0,4.4107,4.4669,4.3443,4.6603,4.7273,4.6137,4.5016,4.5209,4.6127,0.0,4.5853,4.6308,4.6308,0.0,0.0,4.4883,4.5244,0.0,0.0,0.0,0.0,0.0,0.0,0.0,0.0,0.0,0.0,3.8147,0.0,0.0,0.0,0.0,3.3887,0.0,0.0,0.0,0.0,0.0,0.0,0.0,0.0,0.0,0.0,0.0,0.0,0.0,0.0,0.0,0.0,0.0,0.0,0.0,0.0,0.0,3.208,3.2652,3.2888,3.2607,3.3106,3.3414,3.34,3.3414,3.3414,3.3414,3.3414,3.3414,3.3414,3.3414,3.3414,3.34,3.34,3.34,3.34,3.34,3.34,3.3414,3.3414,3.3414,3.3414,3.34,3.3213,3.2973,0.0,0.0,4.5702,4.5912,4.651,4.7189,4.7848,4.8106,0.0,0.0,0.0,0.0,0.0,5.4603,5.6528,0.0,0.0,5.8278,5.7866,5.5426,0.0,0.0,0.0,4.5713,0.0,0.0,4.1963,4.1236,4.0659,4.0298,4.0074,3.9288,0.0,0.0,0.0,4.5901,0.0,0.0,0.0,0.0,0.0,4.4904,4.6754,0.0,0.0,4.6308,4.6308,4.6308,0.0,4.5801,4.5405,4.5154,4.583,4.4895,4.372,4.4724,4.426,0.0,0.0,0.0,4.3081,3.8762,0.0,0.0,0.0,0.0,0.0,0.0,0.0,0.0,0.0,0.0,0.0,0.0,0.0,0.0,0.0,0.0,0.0,0.0,0.0,0.0,0.0,0.0,0.0,0.0,0.0,0.0,0.0,3.2741,3.2701,3.2594,3.2781,3.2888,3.2888,3.2888,3.2982,3.3133,3.3133,3.3227,3.3414,3.3414,3.3414,3.3414,3.3414,3.3414,3.3414,3.3414,3.3414,3.3414,3.3414,3.3414,3.3414,3.3414,3.3347,3.324,4.5663,4.6001,4.63,4.63,4.665,4.7133,4.7759,0.0,0.0,0.0,5.3142,0.0,5.4785,0.0,5.6691,0.0,5.8867,5.868,5.7756,5.6626,0.0,5.3426,4.9861,0.0,0.0,0.0,4.3567,4.2603,4.0903,3.988,3.9447,3.9068,3.8994,0.0,0.0,4.5533,4.6719,4.7457,4.7822,0.0,0.0,4.5366,0.0,0.0,4.643,4.657,0.0,4.6308,4.6308,4.6308,4.5762,4.5273,4.6367,4.5176,4.3633,4.4746,4.4199,4.3047,4.2285,4.3418,0.0,3.9806,4.0019,0.0,3.6328,0.0,0.0,0.0,0.0,0.0,0.0,0.0,0.0,0.0,0.0,0.0,0.0,0.0,0.0,0.0,0.0,0.0,0.0,0.0,0.0,0.0,0.0,0.0,0.0,0.0,3.2755,3.2755,3.2648,3.2648,3.2741,3.2648,3.2741,3.2973,3.2973,3.3133,3.3414,3.3414,3.3414,3.3414,3.3414,3.3414,3.3414,3.3414,3.3414,3.3414,3.3414,3.3414,3.3414,3.3414,3.3414,3.3387,4.639,4.642,4.645,4.648,4.6348,4.6435,0.0,0.0,4.9304,0.0,5.2496,5.3975,5.489,5.6872,5.8152,5.8152,6.006,6.0136,5.7462,5.7826,0.0,0.0,5.4672,5.4156,5.6194,0.0,0.0,0.0,4.1957,4.007,3.8969,3.8944,3.9245,3.9798,4.1456,4.3752,4.6305,4.572,4.7044,4.9275,4.7181,4.6606,4.6905,4.6528,4.6706,4.7093,4.6511,4.6308,4.6328,4.6308,4.6308,4.6308,4.6308,4.6308,4.6308,4.6308,4.6582,4.6401,4.4394,4.418,4.3906,4.1328,0.0,0.0,0.0,0.0,3.9336,0.0,0.0,0.0,0.0,0.0,0.0,0.0,0.0,0.0,0.0,0.0,0.0,0.0,0.0,0.0,0.0,0.0,0.0,0.0,0.0,0.0,0.0,0.0,3.3197,3.3354,3.3092,3.2981,3.3143,3.2897,3.2799,3.2959,3.2946,3.3093,3.3387,3.3387,3.34,3.3414,3.3414,3.3414,3.3414,3.3414,3.3414,3.3414,3.3414,3.3414,3.3414,3.3414,3.3414,3.3414,4.7788,4.8199,4.8656,0.0,4.7944,4.7453,0.0,0.0,0.0,0.0,5.665,5.8843,6.0518,6.1215,6.1527,6.1527,6.2069,0.0,0.0,0.0,0.0,6.124,5.6345,5.4587,5.6734,5.0814,0.0,4.5844,0.0,4.0764,4.0099,3.9672,3.9772,4.035,4.1632,4.3948,4.6821,4.589,4.6321,4.7551,4.7332,4.7599,4.7937,0.0,4.7628,4.7898,4.6729,4.6504,4.6719,4.6406,4.6308,4.6308,4.6308,4.6308,4.6308,4.6308,4.6367,4.6348,4.5781,4.5957,4.5723,4.3457,4.2969,4.2578,0.0,0.0,0.0,0.0,0.0,0.0,0.0,0.0,0.0,0.0,0.0,0.0,0.0,0.0,0.0,0.0,0.0,0.0,0.0,0.0,0.0,0.0,0.0,0.0,0.0,0.0,0.0,3.8495,3.7774,3.6741,3.5386,3.4897,3.3959,3.2701,3.2438,3.2599,3.3093,3.3093,3.32,3.3414,3.3414,3.3414,3.3414,3.3414,3.3414,3.3414,3.3414,3.3414,3.3414,3.3414,3.3414,3.3414,4.9022,0.0,0.0,5.1409,0.0,0.0,5.122,5.0715,0.0,5.516,5.7169,0.0,6.1144,6.2204,6.2781,6.2781,6.2596,0.0,6.0763,0.0,0.0,6.0663,5.8755,5.8278,5.9494,5.4762,0.0,4.8837,0.0,4.2457,4.0474,4.0199,4.0224,4.0549,4.2185,4.404,4.603,4.6358,4.6938,4.7652,4.7603,4.7894,0.0,4.7765,4.7993,4.8473,4.7293,4.7012,4.7148,4.6719,4.6699,4.6836,4.6641,4.6699,4.6855,4.6855,4.6719,4.6582,4.6582,4.6621,4.6367,4.5156,4.498,4.4668,4.2969,4.2773,4.3047,0.0,0.0,0.0,0.0,0.0,0.0,0.0,0.0,0.0,0.0,0.0,0.0,0.0,0.0,0.0,0.0,0.0,0.0,0.0,0.0,0.0,0.0,0.0,0.0,3.9602,3.8391,3.7227,3.6199,3.4552,3.3348,3.2594,3.2238,3.2345,3.2848,3.2969,3.3066,3.3227,3.336,3.3414,3.3414,3.3414,3.3414,3.3414,3.3414,3.3414,3.3414,3.3414,3.3414,3.3414,5.0153,0.0,0.0,0.0,0.0,0.0,0.0,5.124,0.0,5.5275,0.0,5.7625,5.9608,6.1492,6.2581,6.2581,0.0,6.0889,5.8478,6.0563,6.0839,5.8428,6.109,6.2484,6.2247,5.9081,0.0,0.0,0.0,0.0,4.06,4.0449,4.0449,4.07,4.2785,4.4128,4.5018,4.7033,4.8128,4.8515,4.7983,4.7969,4.8242,4.7891,4.8249,4.8796,4.7949,4.7656,4.7598,4.7168,4.7266,4.7519,4.7129,4.7266,4.7578,4.7578,4.7305,4.6992,4.6909,4.666,4.6367,4.6308,4.6582,4.6421,4.5058,4.4726,4.4961,4.5762,4.418,4.3906,0.0,0.0,0.0,0.0,0.0,0.0,0.0,0.0,0.0,0.0,0.0,0.0,0.0,0.0,0.0,0.0,0.0,0.0,0.0,0.0,0.0,3.9258,3.7817,3.6738,3.614,0.0,3.2346,3.2527,3.2225,3.2251,3.2607,3.2848,3.3009,3.3053,3.3307,3.3414,3.3414,3.3414,3.3414,3.3414,3.3414,3.3414,3.3414,3.3414,3.3414,3.3414,5.1388,0.0,0.0,0.0,0.0,5.4627,5.7654,5.7546,5.7364,5.8039,5.9421,6.0638,6.1466,6.1517,6.1466,6.1466,6.1391,0.0,0.0,0.0,0.0,6.0638,6.1165,6.0772,5.9312,5.6486,5.334,0.0,0.0,0.0,4.1152,4.0249,4.0299,4.1227,4.2534,4.4393,4.6581,4.7777,0.0,4.8289,4.8561,4.8718,4.8776,4.8698,4.8776,4.8835,4.8281,4.8105,4.8027,4.7617,4.7519,4.7578,4.75,4.7519,4.7578,4.7578,4.7519,4.7383,4.7031,4.6831,4.6738,4.6387,4.6367,4.6426,4.6421,4.644,4.6641,4.7148,4.7168,4.6719,4.5508,0.0,0.0,0.0,0.0,0.0,0.0,0.0,0.0,0.0,0.0,0.0,0.0,0.0,0.0,0.0,0.0,0.0,0.0,0.0,0.0,0.0,4.2594,0.0,0.0,0.0,3.4335,3.2185,3.2131,3.2251,3.2594,3.2648,3.2929,3.3334,3.3387,3.3414,3.3414,3.3414,3.3414,3.3414,3.3414,3.3414,3.3414,3.3414,3.3414,3.3414,0.0,0.0,0.0,0.0,0.0,0.0,0.0,6.0393,6.0138,5.8894,5.9382,6.0085,6.0638,6.1492,6.2044,6.2044,6.1768,6.1617,6.1617,6.1617,6.1492,6.119,6.0388,0.0,5.8224,5.5958,5.3068,4.9498,0.0,0.0,4.1729,4.005,4.003,4.1399,4.3614,4.5435,4.6941,0.0,0.0,4.9078,4.8934,4.8913,4.8913,4.8913,4.8913,4.8874,4.8613,4.8535,4.8437,4.7793,4.7916,4.8249,4.7969,4.8066,4.8288,4.8288,4.8086,4.7851,4.7656,4.7422,4.7226,4.7012,4.6797,4.6738,4.7168,4.6914,4.6797,4.7441,4.7558,4.6894,4.4785,4.2461,0.0,0.0,0.0,0.0,0.0,0.0,0.0,0.0,0.0,0.0,0.0,0.0,0.0,0.0,0.0,0.0,0.0,0.0,0.0,0.0,0.0,0.0,0.0,0.0,0.0,3.238,3.2171,3.2171,3.2367,3.2527,3.2835,3.32,3.3347,3.3414,3.3414,3.3414,3.3414,3.3414,3.3414,3.3414,3.3414,3.3414,3.3414,3.3414,0.0,5.7628,0.0,0.0,6.0248,6.0847,6.0954,6.1631,6.1567,5.977,5.9357,5.9446,5.996,6.1492,6.2471,6.2471,6.2069,6.1843,6.1843,6.135,6.111,6.119,5.8972,5.7567,5.7143,5.536,5.2615,0.0,0.0,0.0,0.0,4.023,4.0262,4.2269,4.473,0.0,0.0,0.0,4.9304,4.963,4.9102,4.8913,4.8913,4.8913,4.8913,4.8894,4.8796,4.8835,4.8796,4.7969,4.8268,4.8855,4.8457,4.8516,4.8776,4.8874,4.8496,4.8086,4.8183,4.7509,4.6909,4.7488,4.6902,4.6459,4.741,4.7051,4.6738,4.7324,4.7168,4.6406,4.4707,4.3457,0.0,0.0,0.0,0.0,0.0,0.0,0.0,0.0,0.0,0.0,0.0,0.0,0.0,0.0,0.0,0.0,0.0,0.0,0.0,0.0,0.0,4.1298,3.8981,0.0,3.4258,3.25,3.2211,3.2131,3.2211,3.2487,3.2781,3.308,3.3307,3.3414,3.3414,3.3414,3.3414,3.3414,3.3414,3.3414,3.3414,3.3414,3.3414,3.3414,0.0,0.0,0.0,0.0,0.0,6.0533,6.0999,6.2002,6.2631,6.243,6.1567,6.1165,6.1718,6.1517,6.1341,6.1341,6.1291,6.1266,6.1266,5.9269,5.9041,6.1111,5.6983,5.4657,5.4738,5.2844,5.029,0.0,0.0,0.0,0.0,4.1271,4.1938,4.4939,0.0,0.0,0.0,4.8815,4.905,4.8993,4.8947,4.8913,4.8913,4.8913,4.8913,4.8855,4.8418,4.8516,4.8835,4.8301,4.8457,4.8894,4.8855,4.8555,4.834,4.8796,4.8327,4.7715,4.8105,4.6196,4.4654,4.7018,4.5811,4.4645,4.7044,4.7519,4.7363,4.7051,4.6909,4.6406,4.4707,4.6133,4.6641,0.0,0.0,0.0,0.0,0.0,0.0,0.0,0.0,0.0,0.0,0.0,0.0,0.0,0.0,0.0,0.0,0.0,0.0,4.2414,0.0,3.6374,3.3932,3.3203,3.2662,3.2144,3.2118,3.2238,3.2554,3.2581,3.2902,3.3374,3.34,3.3414,3.3414,3.3414,3.3414,3.3414,3.3414,3.3414,3.3414,3.3414,3.3414,3.3414,0.0,0.0,0.0,0.0,0.0,0.0,0.0,6.2497,6.2781,6.2781,6.2446,6.2245,6.2471,6.2295,6.2169,6.2169,6.2169,6.2169,6.2169,5.9939,5.8943,5.956,5.5167,5.2563,5.2326,5.049,4.8756,0.0,0.0,0.0,0.0,4.1518,4.2031,4.4575,0.0,4.6678,4.7158,4.8442,4.9088,4.9238,4.9011,4.8913,4.8913,4.8913,4.8913,4.8874,4.8718,4.8757,4.8643,4.6866,4.629,4.6345,4.6495,4.5129,4.3545,4.389,4.3737,4.3495,4.3637,4.407,4.4748,4.5807,4.6239,4.674,4.8099,4.7994,4.7539,4.7363,4.7109,4.6797,4.6387,4.6094,4.6113,0.0,0.0,0.0,0.0,0.0,0.0,0.0,0.0,0.0,0.0,0.0,0.0,0.0,0.0,0.0,0.0,0.0,0.0,4.065,0.0,3.7731,3.4916,3.4816,3.3989,3.242,3.2185,3.2171,3.2291,3.2514,3.2915,3.3414,3.3414,3.3414,3.3414,3.3414,3.3414,3.3414,3.3414,3.3414,3.3414,3.3414,3.3414,3.3414,6.1426,0.0,6.246,0.0,6.3117,6.3008,6.3237,6.3299,6.3299,6.3299,6.3299,6.3199,6.2832,6.2932,6.2998,6.2807,6.2781,6.2511,6.1804,5.9583,5.8126,5.7752,5.3341,0.0,5.1124,4.9347,4.8186,4.7772,4.4824,0.0,0.0,4.2926,4.3353,0.0,4.6881,4.7438,4.7519,4.8776,4.9433,4.9687,4.9422,4.9226,4.9109,4.9109,4.8528,4.7744,4.7744,4.726,4.6336,4.4494,4.319,4.2506,4.3427,4.2189,4.0389,4.0538,4.0458,4.0344,4.0555,4.1915,4.3609,4.4609,4.5992,4.7412,4.8612,4.8424,4.7936,4.7637,4.7226,4.6987,4.7324,4.6152,4.5742,4.7662,0.0,0.0,0.0,0.0,0.0,0.0,0.0,0.0,0.0,0.0,0.0,0.0,0.0,0.0,0.0,0.0,0.0,0.0,0.0,0.0,0.0,3.5028,3.4061,3.246,3.2118,3.2024,3.2118,3.2554,3.2995,3.3414,3.3414,3.3414,3.3414,3.3414,3.3414,3.3414,3.3414,3.3414,3.3414,3.3414,3.3414,3.3414,6.3817,6.3541,6.314,6.427,6.4898,6.5074,6.4572,6.4496,6.4496,6.4496,6.4496,6.4028,6.2907,6.335,6.345,6.2832,6.2781,6.1804,5.9475,5.722,5.5922,0.0,0.0,4.9782,5.1629,4.9853,4.8679,4.8209,0.0,0.0,4.732,4.6019,4.6659,4.8784,4.7972,4.8561,5.0137,5.0156,5.0176,5.0176,5.0176,4.9902,4.9465,4.9465,4.7639,4.5031,4.5031,4.3434,4.1283,4.1235,3.9371,3.7417,3.9945,4.0642,4.0481,4.0353,3.9865,3.9558,4.0154,3.9895,4.0306,4.3745,4.45,4.5232,4.8223,4.8894,4.864,4.7799,4.7226,4.6889,4.6889,4.687,4.6641,4.584,0.0,0.0,0.0,0.0,0.0,0.0,0.0,4.0477,3.8486,0.0,0.0,0.0,0.0,0.0,0.0,0.0,0.0,3.8621,3.4755,0.0,3.3611,3.2388,3.1872,3.2104,3.181,3.1824,3.2118,3.2706,3.3133,3.3414,3.3414,3.3414,3.3414,3.3414,3.3414,3.3414,3.3414,3.3414,3.3414,3.3414,3.3414,3.3414,6.4306,6.4215,6.4053,6.4446,6.4647,6.4722,6.4547,6.4496,6.4496,6.4496,6.335,6.2224,6.1522,6.1347,6.1262,0.0,5.9248,5.7778,0.0,5.4829,5.3526,5.3526,5.053,4.9183,4.9802,4.9229,4.8835,4.8698,0.0,0.0,0.0,4.6776,4.7674,4.9761,4.8869,4.9148,5.0156,4.9863,5.0078,5.0586,5.0293,5.0098,4.9733,4.7685,4.6324,4.5238,4.3158,4.1907,4.0947,3.9172,3.7941,3.6941,3.5822,3.5313,3.5125,3.5073,3.4924,3.5144,3.68,3.8541,4.0557,4.3321,4.5519,4.7244,4.8196,4.8418,4.834,4.8066,4.7676,4.7461,4.7754,4.7793,4.7812,4.7877,4.793,0.0,0.0,0.0,0.0,0.0,0.0,4.7082,0.0,4.2179,0.0,0.0,0.0,0.0,0.0,0.0,0.0,0.0,3.3165,0.0,3.2308,3.209,3.2011,3.2104,3.181,3.1979,3.246,3.2648,3.2946,3.3414,3.3414,3.3414,3.3414,3.3414,3.3414,3.3414,3.3414,3.3414,3.3414,3.3414,3.3414,3.3414,6.5082,6.5082,6.5082,6.5082,6.5082,6.4803,6.3884,6.373,6.343,6.2476,6.1316,6.0433,6.0063,5.887,0.0,5.8951,5.7387,5.5976,5.5091,5.3681,5.2482,5.1632,5.0152,4.9402,4.9402,4.9402,0.0,4.9402,4.8281,4.7949,4.8301,4.8203,4.8789,4.9922,4.9531,4.9746,5.0391,5.0117,5.041,5.1016,5.0762,4.9953,4.8688,4.6784,4.4693,4.2462,4.0562,3.9184,3.8002,3.6411,3.5833,3.5507,3.3733,3.3013,3.2848,3.2527,3.2433,3.2871,3.5035,3.7585,4.0322,4.3079,4.5882,4.8047,4.8379,4.8457,4.8398,4.8242,4.7988,4.7851,4.7949,4.7969,4.8066,4.8385,4.8008,4.793,4.8535,0.0,0.0,0.0,0.0,0.0,0.0,4.1499,0.0,0.0,0.0,0.0,0.0,0.0,0.0,3.2112,3.2572,0.0,3.1837,3.1904,3.1944,3.1931,3.1805,3.2019,3.2594,3.2594,3.2915,3.3414,3.3414,3.3414,3.3414,3.3414,3.3414,3.3414,3.3414,3.3414,3.3414,3.3414,3.3414,3.3414,6.6212,6.6237,6.6212,6.6187,6.6033,6.5161,6.2848,6.2336,6.142,5.9088,5.8676,5.8539,5.8539,5.5975,5.4946,5.6549,0.0,0.0,0.0,5.3361,5.243,5.0318,5.0176,5.0176,5.0176,5.0176,5.0176,5.0176,5.0215,5.0,4.959,5.0,4.9941,4.9504,4.9922,5.0312,5.0723,5.0742,5.0976,5.1299,5.1163,4.9346,4.6672,4.6279,4.2658,3.7765,3.755,3.5713,3.344,3.344,3.3427,3.3414,3.3414,3.34,3.3227,3.2398,3.2289,3.2852,3.4991,3.7421,4.006,4.3303,4.5875,4.7832,4.8718,4.8913,4.8796,4.834,4.8262,4.8125,4.7734,4.7676,4.7676,4.7676,4.7305,4.726,4.8144,0.0,0.0,0.0,0.0,0.0,0.0,3.6596,3.5898,0.0,0.0,0.0,0.0,0.0,3.4622,3.3054,3.2741,3.2447,3.2104,3.1837,3.1738,3.1711,3.1738,3.2045,3.2594,3.2621,3.2929,3.3414,3.3414,3.3414,3.3414,3.3414,3.3414,3.3414,3.3414,3.3414,3.3414,3.3414,3.3414,3.3414,0.0,0.0,6.7267,6.684,6.5223,6.3614,6.2629,6.0881,5.9454,5.886,5.7132,5.5987,5.5987,5.3678,5.23,5.2686,5.2175,5.1604,5.1014,5.1014,5.0751,5.0223,5.0176,5.0176,5.0176,5.0176,5.0176,5.0176,5.0508,5.043,5.0019,5.0137,4.9941,4.9465,4.9277,4.9414,4.9844,5.0176,5.0391,5.0384,4.8906,4.7691,4.6279,4.2222,3.9774,3.8269,3.593,3.4524,3.3774,3.3774,3.3614,3.3414,3.3414,3.3253,3.304,3.2826,3.3935,3.5702,3.788,4.0308,4.29,4.5545,4.7154,4.8203,4.8776,4.8913,4.8874,4.8776,4.8757,4.8718,4.862,4.86,4.86,4.86,4.8183,4.8086,4.8679,4.8418,0.0,0.0,4.4801,4.3595,4.0389,3.865,3.6787,0.0,0.0,0.0,0.0,3.3108,3.3998,3.3031,3.2741,3.2447,3.2104,3.2038,3.1891,3.1724,3.1891,3.2198,3.2607,3.2822,3.3066,3.3414,3.3414,3.3414,3.3414,3.3414,3.3414,3.3414,3.3414,3.3414,3.3414,3.3414,3.3414,3.3414,6.7744,6.6859,6.5909,6.5615,6.352,6.1373,5.9947,5.8556,5.7311,5.6174,5.4856,5.3947,5.3744,5.2527,5.1641,5.1397,5.1016,5.0762,5.0762,5.0762,5.0762,5.0762,5.0762,5.0762,5.0762,5.0762,5.0762,5.0762,5.0781,5.0586,5.0223,4.998,4.9648,4.9219,4.9011,4.9101,4.9438,4.8547,4.8262,4.8249,4.6154,4.4457,4.279,4.0051,3.8156,3.6753,3.5132,3.4336,3.4068,3.3935,3.3774,3.3601,3.3454,3.3307,3.3173,3.3173,3.3835,3.5049,3.7302,3.9862,4.2746,4.6568,4.8008,4.8574,4.8855,4.8913,4.8913,4.8913,4.8913,4.8913,4.8913,4.8913,4.8972,4.9121,4.8301,4.7988,4.9023,4.8281,4.6906,4.494,4.4714,4.3238,3.9451,3.8123,3.6476,3.4012,3.3996,0.0,3.1591,3.2733,3.3242,3.2808,3.2808,3.2648,3.2305,3.2171,3.1957,3.1724,3.1824,3.2179,3.2594,3.2755,3.3013,3.3414,3.3414,3.3414,3.3414,3.3414,3.3414,3.3414,3.3414,3.3414,3.3414,3.3414,3.3414,3.3414,6.7507,6.5687,6.4,6.354,6.1366,5.8894,5.6715,5.6085,5.5103,5.2994,5.2715,5.2578,5.2207,5.2187,5.2012,5.1562,5.1523,5.1504,5.1397,5.1377,5.1377,5.1377,5.1377,5.1377,5.1377,5.1377,5.1377,5.1377,5.1074,5.0644,5.0176,4.9805,4.9355,4.8848,4.8478,4.8486,4.8646,4.6195,4.5321,4.5412,4.3223,4.0926,3.8755,3.8686,3.7079,3.4882,3.4882,3.4643,3.4349,3.4095,3.3961,3.3841,3.3574,3.3454,3.3414,3.3414,3.3066,3.3239,3.5646,3.845,4.1871,4.6525,4.8299,4.8913,4.8913,4.8913,4.8913,4.8913,4.8913,4.8913,4.8913,4.8913,4.8952,4.9023,4.8021,4.7689,4.8821,0.0,4.6049,4.4217,4.3633,4.1507,3.672,3.6246,3.5492,3.3671,3.328,3.32,3.34,3.2946,3.2701,3.2661,3.2902,3.2915,3.2661,3.2278,3.1984,3.1778,3.1778,3.2072,3.2594,3.2648,3.2955,3.3414,3.3414,3.3414,3.3414,3.3414,3.3414,3.3414,3.3414,3.3414,3.3414,3.3414,3.3414,3.3414,6.6269,6.5602,6.4507,6.1817,5.9301,5.7358,5.6536,5.4613,5.3143,5.2765,5.2715,5.2695,5.2617,5.2617,5.2441,5.2012,5.1973,5.1816,5.1416,5.1377,5.1377,5.1377,5.1377,5.1377,5.1377,5.1377,5.1377,5.1377,5.1319,5.0937,5.0176,5.0117,4.9695,4.8801,4.657,4.5651,4.5554,4.3557,4.2554,4.2176,4.0553,3.9375,3.8412,3.6562,3.5532,3.5124,3.5124,3.4937,3.4735,3.4695,3.4295,3.3881,3.3828,3.3627,3.3414,3.3414,3.3347,3.3747,3.5929,4.0037,4.4017,4.5179,4.7203,4.8913,4.8913,4.8913,4.8913,4.8913,4.8913,4.8913,4.8913,4.8913,4.8464,4.7031,4.8105,4.8574,4.7012,4.6285,4.4911,4.2343,4.0072,3.7646,3.4921,3.4656,3.4531,3.4175,3.3908,3.3654,3.3404,3.3334,3.316,3.2969,3.3009,3.2959,3.2955,3.2372,3.2078,3.2038,3.2038,3.226,3.2607,3.2848,3.3093,3.3414,3.3414,3.3414,3.3414,3.3414,3.3414,3.3414,3.3414,3.3414,3.3414,3.3414,3.3414,3.3414,6.3966,6.2373,6.1007,5.9528,5.7176,5.5386,5.5134,5.4153,5.3418,5.3418,5.3418,5.332,5.3086,5.3066,5.2891,5.2461,5.2422,5.2344,5.2129,5.1631,5.1377,5.1377,5.1377,5.1377,5.1377,5.166,5.1777,5.1777,5.1777,5.1582,5.1191,4.9401,4.8383,4.7865,4.4966,4.3646,4.35,4.0898,3.9759,3.9588,3.7462,3.746,3.8463,3.6106,3.7026,3.9166,3.6268,3.6081,3.7008,3.5376,3.4482,3.4095,3.3935,3.3668,3.3414,3.3414,3.3414,3.391,3.6319,3.8819,4.114,4.2594,4.3942,4.5374,4.683,4.7178,4.7573,4.892,4.9219,4.9141,4.8952,4.8913,4.8796,4.8437,4.8437,4.801,4.6672,4.5606,4.3613,4.0158,3.8709,3.699,3.4552,3.4322,3.4322,3.4322,3.3895,3.3641,3.3681,3.336,3.3187,3.3213,3.3213,3.3133,3.2973,3.2706,3.2412,3.2104,3.2104,3.2171,3.2318,3.2661,3.2955,3.3187,3.3347,3.3414,3.3414,3.3414,3.3414,3.3414,3.3414,3.3414,3.3414,3.3414,3.3414,3.3414,6.1315,5.9245,5.7708,5.7082,5.5335,5.3972,5.3972,5.3972,5.3972,5.3972,5.3972,5.3887,5.3555,5.3516,5.334,5.2891,5.2871,5.2773,5.2578,5.2031,5.168,5.1582,5.1582,5.1582,5.1582,5.2012,5.2226,5.2226,5.2226,5.1872,5.1045,4.8519,4.6908,4.6053,4.3038,4.1714,4.153,3.9099,3.8233,3.8319,3.6973,3.7768,3.9612,3.7797,3.927,4.1793,3.7638,3.7078,3.7959,3.5655,3.467,3.4389,3.4162,3.3881,3.3627,3.3627,3.3627,3.4026,3.5876,3.7056,3.8127,3.9946,4.1017,4.2224,4.4377,4.531,4.6353,4.831,4.9226,4.9551,4.9148,4.9148,4.9265,4.9394,4.8808,4.7768,4.6181,4.475,4.25,3.8767,3.7759,3.6646,3.4716,3.4456,3.4456,3.4523,3.3908,3.3654,3.3975,3.3414,3.3187,3.34,3.3414,3.3307,3.308,3.3013,3.2746,3.2305,3.2171,3.2144,3.2211,3.2487,3.2755,3.2986,3.328,3.3414,3.3414,3.3414,3.3414,3.3414,3.3414,3.3414,3.3414,3.3414,3.3414,3.3414,5.8676,5.8055,5.7132,5.4716,5.4125,5.3972,5.3972,5.3972,5.3972,5.3972,5.3972,5.3972,5.3984,5.3984,5.3808,5.341,5.3371,5.3019,5.2187,5.2441,5.2441,5.2051,5.2031,5.2031,5.2031,5.2441,5.2656,5.2656,5.2656,5.111,4.8111,4.7874,4.6134,4.3115,4.0513,3.9343,3.9328,3.9232,3.918,3.9401,4.1729,4.2746,4.2931,4.2744,4.14,3.9528,3.9115,3.7496,3.5454,3.5269,3.4977,3.4775,3.4762,3.4496,3.4255,3.4255,3.4255,3.4135,3.3812,3.5642,3.774,3.7909,3.9976,4.1998,4.2245,4.4226,4.6108,4.6302,4.8394,5.0,4.9551,4.9805,4.9433,4.748,4.9082,4.8985,4.4356,4.3331,4.1908,3.8936,3.6496,3.5091,3.511,3.4831,3.4778,3.511,3.4336,3.3975,3.4269,3.3708,3.3387,3.3414,3.3414,3.34,3.3374,3.3106,3.2959,3.2906,3.2358,3.2251,3.2567,3.2581,3.2755,3.2986,3.328,3.3414,3.3414,3.3414,3.3414,3.3414,3.3414,3.3414,3.3414,3.3414,3.3414,3.3414,5.5971,5.5487,5.5153,5.4176,5.3972,5.3972,5.3972,5.3972,5.3972,5.3972,5.3972,5.3972,5.3972,5.3972,5.3965,5.3789,5.3769,5.3516,5.296,5.3027,5.2812,5.2109,5.2324,5.2344,5.209,5.2754,5.3105,5.3105,5.158,5.02,4.8888,4.5378,4.3052,4.171,3.8811,3.747,3.7442,3.712,3.8144,3.9838,3.8721,4.0461,4.3325,3.9655,3.972,4.1348,3.795,3.7183,3.7496,3.5756,3.5004,3.4815,3.4815,3.4563,3.4322,3.4322,3.4322,3.4269,3.4042,3.4891,3.5823,3.5642,3.6561,3.8394,4.1777,4.3371,4.5067,4.8357,4.9858,5.043,5.0019,4.8672,4.7434,4.6653,4.588,4.4214,4.1032,4.0369,3.9311,3.6777,3.5646,3.507,3.5191,3.5097,3.507,3.5191,3.4723,3.4402,3.4322,3.3748,3.3414,3.3414,3.3414,3.3414,3.3414,3.3307,3.316,3.2973,3.2746,3.2661,3.2607,3.2781,3.2929,3.2986,3.328,3.3414,3.3414,3.3414,3.3414,3.3414,3.3414,3.3414,3.3414,3.3414,3.3414,3.3414,5.438,5.3972,5.3972,5.3972,5.3972,5.3972,5.3972,5.3972,5.3972,5.3972,5.3972,5.3972,5.3972,5.3972,5.3972,5.3972,5.3972,5.3848,5.3449,5.341,5.3019,5.2109,5.248,5.2578,5.2285,5.3125,5.3149,5.2279,5.0553,4.8805,4.6948,4.302,4.0724,3.9743,3.7579,3.71,3.7933,3.742,3.8937,4.1481,3.902,4.0434,4.3635,3.9554,3.9769,4.166,3.7938,3.7215,3.769,3.5862,3.5057,3.4949,3.4949,3.4763,3.4589,3.4589,3.4589,3.4589,3.4589,3.475,3.483,3.4536,3.533,3.7168,4.09,4.3106,4.5369,4.8982,4.9749,4.9577,4.9091,4.6852,4.5066,4.4918,4.336,4.1335,3.8988,3.8666,3.7752,3.5345,3.5137,3.5191,3.5191,3.5191,3.5191,3.5191,3.4923,3.4589,3.4202,3.3694,3.3414,3.3414,3.3414,3.3414,3.3414,3.3414,3.3307,3.3106,3.3026,3.2929,3.2741,3.2942,3.2973,3.2986,3.328,3.3414,3.3414,3.3414,3.3414,3.3414,3.3414,3.3414,3.3414,3.3414,3.3414,3.3414,5.3972,5.3972,5.3972,5.3972,5.3972,5.3972,5.3972,5.3972,5.3972,5.3972,5.3972,5.3972,5.3972,5.3972,5.3972,5.3972,5.3972,5.3848,5.3449,5.341,5.3019,5.2129,5.25,5.2715,5.2715,5.3523,5.2582,4.978,4.9728,4.6807,4.1213,4.1159,3.9663,3.6941,3.6885,3.85,4.1183,4.0762,4.2201,4.4745,4.4331,4.4132,4.4184,4.4132,4.2256,3.9658,3.9658,3.7752,3.5204,3.5191,3.5191,3.5191,3.5191,3.5191,3.5191,3.5191,3.5191,3.5191,3.5191,3.5191,3.5176,3.4895,3.7112,3.9322,3.9373,4.3521,4.7383,4.7383,4.7383,4.718,4.6404,4.4424,4.2642,4.1865,4.2096,4.1403,3.8736,3.8618,3.7768,3.5114,3.5017,3.5191,3.5191,3.5191,3.5191,3.5191,3.4923,3.4509,3.3921,3.3587,3.3414,3.3414,3.3414,3.3414,3.3414,3.3414,3.3414,3.3414,3.312,3.2986,3.2986,3.2986,3.2986,3.3,3.3293,3.3414,3.3414,3.3414,3.3414,3.3414,3.3414,3.3414,3.3414,3.3414,3.3414,3.3414,5.3972,5.3972,5.3972,5.3972,5.3972,5.3972,5.3972,5.3972,5.3972,5.3972,5.3972,5.3972,5.3972,5.3972,5.3972,5.3972,5.3972,5.3965,5.3848,5.3242,5.293,5.3019,5.3398,5.3496,5.3214,5.1747,5.0578,4.978,4.573,4.2858,4.1159,3.9144,3.8801,3.9813,3.7798,3.85,4.105,3.8881,3.9683,4.2043,3.9713,4.0011,4.1552,3.9335,3.7952,3.7159,3.6898,3.6243,3.5471,3.5271,3.5191,3.5191,3.5191,3.5191,3.5191,3.5191,3.5191,3.5191,3.5191,3.6621,3.8077,3.799,3.8641,4.0286,4.4127,4.627,4.7383,4.7383,4.7383,4.6658,4.4366,4.1756,3.9802,3.9173,3.7723,3.6382,3.5373,3.5457,3.5342,3.4546,3.471,3.4897,3.4831,3.507,3.5191,3.5191,3.4736,3.4376,3.4202,3.3694,3.3414,3.3414,3.3414,3.3414,3.3414,3.3414,3.3414,3.3414,3.332,3.34,3.3601,3.3387,3.34,3.3601,3.3467,3.3414,3.3414,3.3414,3.3414,3.3414,3.3414,3.3414,3.3414,3.3414,3.3414,3.3414,5.3972,5.3972,5.3972,5.3972,5.3972,5.3972,5.3972,5.3972,5.3972,5.3972,5.3972,5.3972,5.3972,5.3972,5.3972,5.3972,5.3972,5.3972,5.3972,5.3535,5.3359,5.3613,5.2808,5.2168,5.1732,4.9304,4.7492,4.6383,4.2912,4.063,3.9444,3.7729,3.7798,3.9444,3.7674,3.85,4.0996,3.8101,3.8527,4.0927,3.7853,3.7688,3.905,3.7115,3.634,3.6206,3.5912,3.5725,3.5591,3.5297,3.5191,3.5191,3.5191,3.5191,3.5191,3.5191,3.5967,3.6831,3.6831,3.8819,4.1144,4.2217,4.2522,4.3369,4.6669,4.7383,4.7383,4.7383,4.5581,4.3407,4.1491,3.8781,3.6686,3.622,3.5037,3.4095,3.3908,3.4242,3.4496,3.4496,3.475,3.4937,3.4871,3.5084,3.5151,3.503,3.4589,3.4269,3.4148,3.3681,3.3414,3.3414,3.3414,3.3414,3.3414,3.3414,3.3414,3.3414,3.3414,3.3574,3.3881,3.3561,3.3587,3.3868,3.3547,3.3414,3.3414,3.3414,3.3414,3.3414,3.3414,3.3414,3.3414,3.3414,3.3414,3.3414,5.3972,5.3972,5.3972,5.3972,5.3972,5.3972,5.3972,5.3972,5.3972,5.3972,5.3972,5.3972,5.3972,5.3972,5.3972,5.3972,5.3972,5.3972,5.3972,5.3972,5.387,5.3646,5.0908,4.908,4.8412,4.6251,4.3825,4.1213,4.0942,3.9444,3.6885,3.6885,3.7038,3.7246,3.7025,3.85,4.0996,3.8101,3.8445,4.0576,3.7949,3.6885,3.6885,3.6885,3.6754,3.65,3.6219,3.5925,3.5618,3.5311,3.5191,3.5191,3.5191,3.5191,3.5243,3.5507,3.7339,3.9322,3.958,4.1604,4.4279,4.6769,4.7383,4.7482,4.7681,4.7582,4.7334,4.7067,4.2651,3.8666,3.815,3.5826,3.3855,3.3547,3.3734,3.3921,3.3921,3.4389,3.4775,3.4775,3.4977,3.5151,3.5151,3.5151,3.5044,3.4802,3.4456,3.4162,3.3895,3.3587,3.3414,3.3414,3.344,3.344,3.3414,3.344,3.344,3.3414,3.3414,3.3587,3.3921,3.3574,3.3601,3.3908,3.3561,3.3414,3.3414,3.3414,3.3414,3.3414,3.3414,3.3414,3.3414,3.3414,3.3414,3.3414,5.3972,5.3972,5.3972,5.3972,5.3972,5.3972,5.3972,5.3972,5.3972,5.3972,5.3972,5.3972,5.3972,5.3972,5.3972,5.3972,5.3972,5.3972,5.3972,5.3972,5.3012,5.0734,4.7913,4.5325,4.2964,4.2396,4.1848,4.1213,3.8939,3.7522,3.6885,3.6885,3.8101,4.014,3.7894,3.85,4.0996,3.8101,3.7246,3.7798,3.7162,3.6885,3.6885,3.6885,3.6845,3.6794,3.6513,3.6219,3.5899,3.5378,3.5191,3.5191,3.5191,3.5191,3.5599,3.7794,3.8819,3.9771,4.1844,4.443,4.6669,4.7234,4.7383,4.7928,5.0051,4.8903,4.6769,4.4631,4.1541,3.8457,3.6031,3.5069,3.4469,3.4175,3.4189,3.4229,3.4229,3.4336,3.4416,3.4416,3.4683,3.4857,3.4791,3.4857,3.4736,3.4442,3.4148,3.3948,3.3895,3.3587,3.3414,3.3414,3.3654,3.3668,3.3414,3.3654,3.3654,3.3414,3.3414,3.3694,3.4202,3.3654,3.3708,3.4202,3.3654,3.3414,3.3414,3.3414,3.3414,3.3414,3.3414,3.3414,3.3414,3.3414,3.3414,3.3414,5.3972,5.3972,5.3972,5.3972,5.3972,5.3972,5.3972,5.3972,5.3972,5.3972,5.3972,5.3972,5.3972,5.3972,5.3972,5.3972,5.3972,5.3972,5.3972,5.3972,5.2737,4.9814,4.7001,4.4147,4.1267,3.9867,3.9144,3.9144,3.7646,3.6885,3.6885,3.6885,3.7674,3.9075,3.7577,3.7743,3.902,3.7522,3.6885,3.6885,3.6885,3.6885,3.6885,3.6885,3.6885,3.6845,3.662,3.6233,3.5819,3.5511,3.5311,3.5454,3.6726,3.713,3.769,4.0389,4.2166,4.347,4.4883,4.7216,4.9002,4.773,4.7383,4.778,4.9149,4.6402,4.3115,4.1706,3.915,3.6669,3.5089,3.4643,3.4496,3.4349,3.4442,3.4536,3.4536,3.4656,3.4736,3.4736,3.487,3.491,3.4776,3.4629,3.4429,3.4135,3.3975,3.3828,3.3668,3.3507,3.348,3.3627,3.3801,3.3881,3.3841,3.3868,3.3801,3.3641,3.348,3.3734,3.4309,3.3841,3.3961,3.4509,3.4042,3.3841,3.3841,3.3841,3.3761,3.3641,3.3795,3.3651,3.3414,3.3577,3.3527,3.3414,5.3972,5.3972,5.3972,5.3972,5.3972,5.3972,5.3972,5.3972,5.3972,5.3972,5.3972,5.3972,5.3972,5.3972,5.3972,5.3972,5.3972,5.3972,5.3972,5.3544,5.1978,4.9136,4.6261,4.3396,4.0521,3.8101,3.6885,3.6885,3.6885,3.6885,3.6885,3.6885,3.6885,3.6885,3.6885,3.6885,3.6885,3.6885,3.6885,3.6885,3.6885,3.6885,3.6885,3.6885,3.6885,3.6845,3.6647,3.6233,3.5819,3.6178,3.6134,3.6442,3.913,3.9977,4.0492,4.3217,4.5602,4.7383,4.7383,4.9002,5.007,4.7383,4.637,4.6003,4.6003,4.2506,3.9322,3.9322,3.6933,3.4895,3.4895,3.4629,3.4469,3.4469,3.4683,3.4895,3.4895,3.5044,3.5191,3.5191,3.5151,3.5004,3.471,3.4416,3.4148,3.3908,3.3841,3.3694,3.3427,3.3467,3.3614,3.3881,3.3988,3.4122,3.4322,3.4135,3.4015,3.3961,3.3694,3.3828,3.4309,3.4068,3.4255,3.4802,3.4456,3.4322,3.4322,3.4269,3.4108,3.3945,3.4087,3.3838,3.3433,3.3731,3.3641,3.3414,5.3972,5.3972,5.3972,5.3972,5.3972,5.3972,5.3972,5.3972,5.3972,5.3972,5.3972,5.3972,5.3972,5.3972,5.3972,5.3972,5.3972,5.3972,5.3972,5.172,4.9102,4.6208,4.3289,4.0412,3.7522,3.7093,3.6885,3.6885,3.6885,3.6885,3.6885,3.6885,3.6885,3.6885,3.6885,3.6885,3.6885,3.6885,3.6885,3.6885,3.6885,3.6885,3.6885,3.6885,3.6885,3.6885,3.6845,3.6632,3.668,3.8494,3.9105,3.9539,4.199,4.276,4.3318,4.6053,4.7117,4.7383,4.7383,4.7681,4.7266,4.4531,4.2099,4.0389,4.0389,3.9823,3.9322,3.9322,3.7102,3.5137,3.5137,3.511,3.5084,3.5084,3.511,3.5137,3.5137,3.5177,3.5191,3.5191,3.4977,3.471,3.4402,3.4122,3.3935,3.3895,3.3627,3.3454,3.3414,3.3668,3.3841,3.3881,3.4427,3.4536,3.4322,3.4536,3.4523,3.4269,3.4215,3.4242,3.4322,3.4282,3.4442,3.4802,3.4456,3.4322,3.4295,3.4055,3.3921,3.3855,3.3601,3.3495,3.3391,3.3436,3.3414,3.3414,5.3972,5.3972,5.3972,5.3972,5.3972,5.3972,5.3972,5.3972,5.3972,5.3972,5.3972,5.3972,5.3972,5.3972,5.3972,5.3972,5.2582,5.165,5.1599,4.8979,4.6118,4.3235,4.1902,3.9867,3.6941,3.6885,3.6885,3.6885,3.6885,3.6885,3.6885,3.6885,3.6885,3.6885,3.6885,3.6885,3.6885,3.6885,3.6885,3.6885,3.6885,3.6885,3.6885,3.6885,3.6885,3.6885,3.6885,3.6754,3.6638,3.7431,3.8571,3.9845,4.0791,4.3166,4.5552,4.5201,4.6203,4.7067,4.5552,4.5084,4.443,4.1757,4.0183,3.8922,3.7339,3.704,3.704,3.704,3.6072,3.5191,3.5191,3.5191,3.5191,3.5191,3.5191,3.5191,3.5191,3.5338,3.5431,3.5431,3.4897,3.4469,3.4336,3.4055,3.3814,3.3627,3.3801,3.3855,3.3681,3.3961,3.4202,3.4427,3.4681,3.4776,3.4803,3.4776,3.4748,3.4563,3.4563,3.4563,3.4563,3.4563,3.4723,3.5004,3.487,3.4803,3.4803,3.467,3.4523,3.4414,3.4229,3.3982,3.3646,3.3487,3.3414,3.3414]},{"header":{"parameterUnit":"m.s-1","parameterCategory":1,"la1":30.6,"la2":28.766,"lo1":-90.7593,"lo2":-88.6598,"dx":0.0162,"dy":0.0183,"nx":116,"ny":114,"refTime":"2022-11-19T18:00:00:Z","depth":0,"parameterNumber":3,"parameterNumberName":"V-component_of_WINDS"},"data":[0.0,0.0,0.0,0.0,0.0,0.0,0.0,0.0,0.0,0.0,0.0,0.0,0.0,0.0,0.0,0.0,0.0,0.0,0.0,0.0,0.0,0.0,0.0,0.0,0.0,0.0,0.0,0.0,0.0,0.0,0.0,0.0,0.0,0.0,0.0,0.0,0.0,0.0,0.0,0.0,0.0,0.0,0.0,0.0,0.0,0.0,0.0,0.0,0.0,0.0,0.0,0.0,0.0,0.0,0.0,0.0,0.0,0.0,0.0,0.0,0.0,0.0,0.0,0.0,0.0,0.0,0.0,0.0,0.0,0.0,0.0,0.0,0.0,0.0,0.0,0.0,0.0,0.0,0.0,0.0,0.0,0.0,0.0,0.0,0.0,0.0,0.0,0.0,0.0,0.0,0.0,0.0,0.0,0.0,0.0,0.0,0.0,0.0,0.0,0.0,0.0,0.0,0.0,0.0,0.0,0.0,0.0,0.0,0.0,0.0,0.0,0.0,0.0,0.0,0.0,0.0,0.0,0.0,0.0,0.0,0.0,0.0,0.0,0.0,0.0,0.0,0.0,0.0,0.0,0.0,0.0,0.0,0.0,0.0,0.0,0.0,0.0,0.0,0.0,0.0,0.0,0.0,0.0,0.0,0.0,0.0,0.0,0.0,0.0,0.0,0.0,0.0,0.0,0.0,0.0,0.0,0.0,0.0,0.0,0.0,0.0,0.0,0.0,0.0,0.0,0.0,0.0,0.0,0.0,0.0,0.0,0.0,0.0,0.0,0.0,0.0,0.0,0.0,0.0,0.0,0.0,0.0,0.0,0.0,0.0,0.0,0.0,0.0,0.0,0.0,0.0,0.0,0.0,0.0,0.0,0.0,0.0,0.0,0.0,0.0,0.0,0.0,0.0,0.0,0.0,0.0,0.0,0.0,0.0,0.0,0.0,0.0,0.0,0.0,0.0,0.0,0.0,0.0,0.0,0.0,0.0,0.0,0.0,0.0,0.0,0.0,0.0,0.0,0.0,0.0,0.0,0.0,0.0,0.0,0.0,0.0,0.0,0.0,0.0,0.0,0.0,0.0,0.0,0.0,0.0,0.0,0.0,0.0,0.0,0.0,0.0,0.0,0.0,0.0,0.0,0.0,0.0,0.0,0.0,0.0,0.0,0.0,0.0,0.0,0.0,0.0,0.0,0.0,0.0,0.0,0.0,0.0,0.0,0.0,0.0,0.0,0.0,0.0,0.0,0.0,0.0,0.0,0.0,0.0,0.0,0.0,0.0,0.0,0.0,0.0,0.0,0.0,0.0,0.0,0.0,0.0,0.0,0.0,0.0,0.0,0.0,0.0,0.0,0.0,0.0,0.0,0.0,0.0,0.0,0.0,0.0,0.0,0.0,0.0,0.0,0.0,0.0,0.0,0.0,0.0,0.0,0.0,0.0,0.0,0.0,0.0,0.0,0.0,0.0,0.0,0.0,0.0,0.0,0.0,0.0,0.0,0.0,0.0,0.0,0.0,0.0,0.0,0.0,0.0,0.0,0.0,0.0,0.0,0.0,0.0,0.0,0.0,0.0,0.0,0.0,0.0,0.0,0.0,0.0,0.0,0.0,0.0,0.0,0.0,0.0,0.0,0.0,0.0,0.0,0.0,0.0,0.0,0.0,0.0,0.0,0.0,0.0,0.0,0.0,0.0,0.0,0.0,0.0,0.0,0.0,0.0,0.0,0.0,0.0,0.0,0.0,0.0,0.0,0.0,0.0,0.0,0.0,0.0,0.0,0.0,0.0,0.0,0.0,0.0,0.0,0.0,0.0,0.0,0.0,0.0,0.0,0.0,0.0,0.0,0.0,0.0,0.0,0.0,0.0,0.0,0.0,0.0,0.0,0.0,0.0,0.0,0.0,0.0,0.0,0.0,0.0,0.0,0.0,0.0,0.0,0.0,0.0,0.0,0.0,0.0,0.0,0.0,0.0,0.0,0.0,0.0,0.0,0.0,0.0,0.0,0.0,0.0,0.0,0.0,0.0,0.0,0.0,0.0,0.0,0.0,0.0,0.0,0.0,0.0,0.0,0.0,0.0,0.0,0.0,0.0,0.0,0.0,0.0,0.0,0.0,0.0,0.0,0.0,0.0,0.0,0.0,0.0,0.0,0.0,0.0,0.0,0.0,0.0,0.0,0.0,0.0,0.0,0.0,0.0,0.0,0.0,0.0,0.0,0.0,0.0,0.0,0.0,0.0,0.0,0.0,0.0,0.0,0.0,0.0,0.0,0.0,0.0,0.0,0.0,0.0,0.0,0.0,0.0,0.0,0.0,0.0,0.0,0.0,0.0,0.0,0.0,0.0,0.0,0.0,0.0,0.0,0.0,0.0,0.0,0.0,0.0,0.0,0.0,0.0,0.0,0.0,0.0,0.0,0.0,0.0,0.0,0.0,0.0,0.0,0.0,0.0,0.0,0.0,0.0,0.0,0.0,0.0,0.0,0.0,0.0,0.0,0.0,0.0,0.0,0.0,0.0,0.0,0.0,0.0,0.0,0.0,0.0,0.0,0.0,0.0,0.0,0.0,0.0,0.0,0.0,0.0,0.0,0.0,0.0,0.0,0.0,0.0,0.0,0.0,0.0,0.0,0.0,0.0,0.0,0.0,0.0,0.0,0.0,0.0,0.0,0.0,0.0,0.0,0.0,0.0,0.0,0.0,0.0,0.0,0.0,0.0,0.0,0.0,0.0,0.0,0.0,0.0,0.0,0.0,0.0,0.0,0.0,0.0,0.0,0.0,0.0,0.0,0.0,0.0,0.0,0.0,0.0,0.0,0.0,0.0,0.0,0.0,0.0,0.0,0.0,0.0,0.0,0.0,0.0,0.0,0.0,0.0,0.0,0.0,0.0,0.0,0.0,0.0,0.0,0.0,0.0,0.0,0.0,0.0,0.0,0.0,0.0,0.0,0.0,0.0,0.0,0.0,0.0,0.0,0.0,0.0,0.0,0.0,0.0,0.0,0.0,0.0,0.0,0.0,0.0,0.0,0.0,0.0,0.0,0.0,0.0,0.0,0.0,0.0,0.0,0.0,0.0,0.0,0.0,0.0,0.0,0.0,0.0,0.0,0.0,0.0,0.0,0.0,0.0,0.0,0.0,0.0,0.0,0.0,0.0,0.0,0.0,0.0,0.0,0.0,0.0,0.0,0.0,0.0,0.0,0.0,0.0,0.0,0.0,0.0,0.0,0.0,0.0,0.0,0.0,0.0,0.0,0.0,0.0,0.0,0.0,0.0,0.0,0.0,0.0,0.0,0.0,0.0,0.0,0.0,0.0,0.0,0.0,0.0,0.0,0.0,0.0,0.0,0.0,0.0,0.0,0.0,0.0,0.0,0.0,0.0,0.0,0.0,0.0,0.0,0.0,0.0,0.0,0.0,0.0,0.0,0.0,0.0,0.0,0.0,0.0,0.0,0.0,0.0,0.0,0.0,0.0,0.0,0.0,0.0,0.0,0.0,0.0,0.0,0.0,0.0,0.0,0.0,0.0,0.0,0.0,0.0,0.0,0.0,0.0,0.0,0.0,0.0,0.0,0.0,0.0,0.0,0.0,0.0,0.0,0.0,0.0,0.0,0.0,0.0,0.0,0.0,0.0,0.0,0.0,0.0,0.0,0.0,0.0,0.0,0.0,0.0,0.0,0.0,0.0,0.0,0.0,0.0,0.0,0.0,0.0,0.0,0.0,0.0,0.0,0.0,0.0,0.0,0.0,0.0,0.0,0.0,0.0,0.0,0.0,0.0,0.0,0.0,0.0,0.0,0.0,0.0,0.0,0.0,0.0,0.0,0.0,0.0,0.0,0.0,0.0,0.0,0.0,0.0,0.0,0.0,0.0,0.0,0.0,0.0,0.0,0.0,0.0,0.0,0.0,0.0,0.0,0.0,0.0,0.0,0.0,0.0,0.0,0.0,0.0,0.0,0.0,0.0,0.0,0.0,0.0,0.0,0.0,0.0,0.0,0.0,0.0,0.0,0.0,0.0,0.0,0.0,0.0,0.0,0.0,0.0,0.0,0.0,0.0,0.0,0.0,0.0,0.0,0.0,0.0,0.0,0.0,0.0,0.0,0.0,0.0,0.0,0.0,0.0,0.0,0.0,0.0,0.0,0.0,0.0,0.0,0.0,0.0,0.0,0.0,0.0,0.0,0.0,0.0,0.0,0.0,0.0,0.0,0.0,0.0,0.0,0.0,0.0,0.0,0.0,0.0,0.0,0.0,0.0,0.0,0.0,0.0,0.0,0.0,0.0,0.0,0.0,0.0,0.0,0.0,0.0,0.0,0.0,0.0,0.0,0.0,0.0,0.0,0.0,0.0,0.0,0.0,0.0,0.0,0.0,0.0,0.0,0.0,0.0,0.0,0.0,0.0,0.0,0.0,0.0,0.0,0.0,0.0,0.0,0.0,0.0,0.0,0.0,0.0,0.0,0.0,0.0,0.0,0.0,0.0,0.0,0.0,0.0,0.0,0.0,0.0,0.0,0.0,0.0,0.0,0.0,0.0,0.0,0.0,0.0,0.0,0.0,0.0,0.0,0.0,0.0,0.0,0.0,0.0,0.0,0.0,0.0,0.0,0.0,0.0,0.0,0.0,0.0,0.0,0.0,0.0,0.0,0.0,0.0,0.0,0.0,0.0,0.0,0.0,0.0,0.0,0.0,0.0,0.0,0.0,0.0,0.0,0.0,0.0,0.0,0.0,0.0,0.0,0.0,0.0,0.0,0.0,0.0,0.0,0.0,0.0,0.0,0.0,0.0,0.0,0.0,0.0,0.0,0.0,0.0,0.0,0.0,0.0,0.0,0.0,0.0,0.0,0.0,0.0,0.0,0.0,0.0,0.0,0.0,0.0,0.0,0.0,0.0,0.0,0.0,0.0,0.0,0.0,0.0,0.0,0.0,0.0,0.0,0.0,0.0,0.0,0.0,0.0,0.0,0.0,0.0,0.0,0.0,0.0,0.0,0.0,0.0,0.0,0.0,0.0,0.0,0.0,0.0,0.0,0.0,0.0,0.0,0.0,0.0,0.0,0.0,0.0,0.0,0.0,0.0,0.0,0.0,0.0,0.0,0.0,0.0,0.0,0.0,0.0,0.0,0.0,0.0,0.0,0.0,0.0,0.0,0.0,0.0,0.0,0.0,0.0,0.0,0.0,0.0,0.0,0.0,0.0,0.0,0.0,0.0,0.0,0.0,0.0,0.0,0.0,0.0,0.0,0.0,0.0,0.0,0.0,0.0,0.0,0.0,0.0,0.0,0.0,0.0,0.0,0.0,0.0,0.0,0.0,0.0,0.0,0.0,0.0,0.0,0.0,0.0,0.0,0.0,0.0,0.0,0.0,0.0,0.0,0.0,0.0,0.0,0.0,0.0,0.0,0.0,0.0,0.0,0.0,0.0,0.0,0.0,0.0,0.0,0.0,0.0,0.0,0.0,0.0,0.0,0.0,0.0,0.0,0.0,0.0,0.0,0.0,0.0,0.0,0.0,0.0,0.0,0.0,0.0,0.0,0.0,0.0,0.0,0.0,0.0,0.0,0.0,0.0,0.0,0.0,0.0,0.0,0.0,0.0,0.0,0.0,0.0,0.0,0.0,0.0,0.0,0.0,0.0,0.0,0.0,0.0,0.0,0.0,0.0,0.0,0.0,0.0,0.0,0.0,0.0,0.0,0.0,0.0,0.0,0.0,0.0,0.0,0.0,0.0,0.0,0.0,0.0,0.0,0.0,0.0,0.0,0.0,0.0,0.0,0.0,0.0,0.0,0.0,0.0,0.0,0.0,0.0,0.0,0.0,0.0,0.0,0.0,0.0,0.0,0.0,0.0,0.0,0.0,0.0,0.0,0.0,0.0,0.0,0.0,0.0,0.0,0.0,0.0,0.0,0.0,0.0,0.0,0.0,0.0,0.0,0.0,0.0,0.0,0.0,0.0,0.0,0.0,0.0,0.0,0.0,0.0,0.0,0.0,0.0,0.0,0.0,0.0,0.0,0.0,0.0,0.0,0.0,0.0,0.0,0.0,0.0,0.0,0.0,0.0,0.0,0.0,0.0,0.0,0.0,0.0,0.0,0.0,0.0,0.0,0.0,0.0,0.0,3.2988,0.0,0.0,0.0,0.0,0.0,0.0,0.0,0.0,0.0,0.0,0.0,0.0,0.0,0.0,0.0,0.0,0.0,0.0,0.0,0.0,0.0,0.0,0.0,0.0,1.4672,1.5542,1.7171,1.7454,0.0,0.0,0.0,0.0,0.0,0.0,0.0,0.0,0.0,1.5988,1.6363,1.7588,1.9246,2.1227,2.0712,2.0595,2.08,0.0,0.0,0.0,0.0,0.0,0.0,0.0,0.0,0.0,0.0,0.0,0.0,0.0,0.0,0.0,0.0,0.0,0.0,0.0,0.0,0.0,0.0,0.0,0.0,0.0,0.0,0.0,0.0,0.0,0.0,0.0,0.0,0.0,0.0,0.0,0.0,0.0,0.0,0.0,0.0,0.0,0.0,0.0,0.0,0.0,0.0,0.0,0.0,0.0,0.0,0.0,0.0,0.0,0.0,0.0,0.0,0.0,0.0,0.0,0.0,0.0,0.0,0.0,0.0,0.0,0.0,0.0,0.0,0.0,0.0,0.0,3.4841,0.0,0.0,0.0,0.0,0.0,0.0,0.0,0.0,0.0,0.0,0.0,0.0,0.0,0.0,0.0,0.0,0.0,0.0,0.0,0.0,0.0,1.3574,1.3711,1.4865,1.6084,1.717,1.7973,1.8812,1.9753,1.9321,0.0,0.0,0.0,0.0,1.7735,1.6867,1.7416,1.9463,2.1102,2.3504,2.6572,2.6372,2.6047,2.5517,2.2896,0.0,0.0,0.0,0.0,0.0,0.0,0.0,0.0,0.0,0.0,0.0,0.0,0.0,0.0,0.0,0.0,0.0,0.0,0.0,0.0,0.0,0.0,0.0,0.0,0.0,0.0,0.0,0.0,0.0,0.0,0.0,0.0,0.0,0.0,0.0,0.0,0.0,0.0,0.0,0.0,0.0,0.0,0.0,0.0,0.0,0.0,0.0,0.0,0.0,0.0,0.0,0.0,0.0,0.0,0.0,0.0,0.0,0.0,0.0,0.0,0.0,0.0,0.0,3.9825,4.0207,4.1452,4.1272,4.2553,4.4654,4.1199,3.9954,4.0146,3.7561,0.0,0.0,0.0,0.0,0.0,0.0,0.0,0.0,0.0,0.0,0.0,0.0,0.0,0.0,0.0,0.0,0.0,0.0,0.0,1.3789,1.4545,1.5764,1.7319,1.9326,1.9843,2.06,2.1813,2.14,0.0,0.0,0.0,0.0,1.9987,2.0276,2.0981,2.211,2.5691,2.8769,3.1272,3.0232,3.0606,3.1961,2.7646,2.5948,2.6184,0.0,0.0,0.0,0.0,0.0,0.0,0.0,0.0,0.0,0.0,0.0,0.0,0.0,0.0,0.0,0.0,0.0,0.0,0.0,0.0,0.0,0.0,0.0,0.0,0.0,0.0,0.0,0.0,0.0,0.0,0.0,0.0,0.0,0.0,0.0,0.0,0.0,0.0,0.0,0.0,0.0,3.5925,3.6074,0.0,0.0,0.0,0.0,0.0,0.0,0.0,0.0,0.0,0.0,0.0,0.0,0.0,3.8899,3.9789,4.2248,4.3827,4.4556,4.6139,4.6989,4.7217,4.7762,4.8231,4.8559,4.8023,0.0,4.3003,4.4036,0.0,0.0,0.0,0.0,0.0,0.0,0.0,0.0,0.0,0.0,0.0,0.0,0.0,0.0,0.0,0.0,0.0,0.0,0.0,0.0,0.0,1.7681,1.9474,2.0891,2.1581,2.2392,2.3535,2.2822,0.0,0.0,0.0,2.1001,2.1248,2.1956,2.3956,2.7312,2.9845,3.1948,3.3599,3.3069,3.3289,3.4019,3.2003,3.0069,2.8213,2.7361,0.0,0.0,0.0,0.0,0.0,0.0,0.0,0.0,0.0,0.0,0.0,0.0,0.0,0.0,0.0,0.0,0.0,0.0,0.0,0.0,0.0,0.0,0.0,0.0,0.0,0.0,0.0,0.0,0.0,0.0,0.0,0.0,0.0,0.0,0.0,0.0,0.0,0.0,0.0,3.5011,3.6207,3.6926,3.6118,3.522,0.0,0.0,0.0,0.0,0.0,0.0,0.0,0.0,0.0,4.0313,4.1818,4.3451,4.5268,4.6837,4.7945,4.8626,4.9523,5.0122,5.0481,5.0803,5.1133,5.1492,5.1195,5.0126,4.8469,4.7744,4.5796,4.294,0.0,0.0,0.0,0.0,3.7495,3.735,0.0,0.0,0.0,0.0,0.0,0.0,0.0,0.0,0.0,0.0,0.0,0.0,1.7464,1.9934,2.1797,2.2384,2.3638,2.4684,2.5396,2.4589,2.4168,0.0,0.0,2.2086,2.3264,2.4743,2.7539,3.1739,3.3233,3.4371,3.513,3.513,3.513,3.513,3.513,3.3513,3.0749,3.0369,2.8681,2.6279,0.0,0.0,0.0,0.0,0.0,0.0,0.0,0.0,0.0,0.0,0.0,0.0,0.0,0.0,0.0,0.0,0.0,0.0,0.0,0.0,0.0,0.0,0.0,0.0,0.0,0.0,0.0,0.0,0.0,0.0,0.0,0.0,0.0,0.0,0.0,0.0,0.0,3.6776,3.7614,3.7866,3.7823,3.7105,0.0,0.0,0.0,0.0,0.0,0.0,3.9995,4.0788,4.2356,4.4854,4.6321,4.8019,5.0025,5.0661,5.1206,5.1708,5.1708,5.1977,5.2456,5.2456,5.2749,5.3174,5.2843,5.2683,5.254,5.0456,4.9417,4.8822,4.593,4.4499,4.3881,4.2589,4.2121,4.245,0.0,0.0,0.0,0.0,0.0,0.0,0.0,0.0,0.0,0.0,0.0,1.7979,1.9567,2.2371,2.4056,2.3927,2.6321,2.7826,2.7735,2.7323,2.7315,2.7846,2.5762,2.5344,2.6989,3.0133,3.241,3.3731,3.5403,3.6279,3.6329,3.6329,3.6329,3.6329,3.6329,3.5822,3.49,3.3703,3.2609,3.1529,2.9448,0.0,0.0,0.0,0.0,0.0,0.0,0.0,0.0,0.0,0.0,0.0,0.0,0.0,0.0,0.0,0.0,0.0,0.0,0.0,0.0,0.0,0.0,0.0,0.0,0.0,0.0,0.0,0.0,0.0,0.0,0.0,0.0,0.0,0.0,0.0,0.0,0.0,0.0,3.9601,4.1993,0.0,0.0,0.0,0.0,4.1966,4.182,4.2877,4.5713,4.6535,4.7812,4.9791,5.1176,5.1917,5.2037,5.2719,5.3079,5.3109,5.3109,5.3109,5.3169,5.3169,5.3169,5.3198,5.3174,5.3169,5.3109,5.2546,5.0853,4.8505,4.7166,4.5542,4.4131,4.5853,4.6492,4.6891,0.0,0.0,0.0,1.4375,1.4088,1.388,1.388,1.4546,1.5386,1.6369,1.8366,2.0522,2.2632,2.5031,2.6921,2.801,2.9257,2.9958,3.0022,2.8919,2.8362,2.8593,2.7526,2.8355,3.1461,3.3022,3.4703,3.6533,3.797,3.8655,3.8655,3.905,3.9229,3.9229,3.8836,3.85,3.8093,3.5737,3.4455,3.3931,3.2705,3.1152,0.0,0.0,0.0,0.0,0.0,0.0,0.0,0.0,0.0,0.0,0.0,0.0,0.0,0.0,0.0,0.0,0.0,0.0,0.0,0.0,0.0,0.0,0.0,0.0,0.0,0.0,0.0,0.0,0.0,0.0,0.0,0.0,0.0,0.0,0.0,0.0,0.0,4.1493,4.309,0.0,4.2412,4.3536,4.4712,4.5493,4.6588,4.806,4.9979,5.0331,5.096,5.2097,5.2576,5.3054,5.3473,5.3713,5.4042,5.4486,5.4486,5.4486,5.4486,5.4486,5.4486,5.4486,5.4486,5.4486,5.4486,5.4331,5.3163,5.1522,5.1101,5.0514,4.9957,5.0662,5.0929,5.1066,0.0,0.0,0.0,1.4819,1.4537,1.4342,1.4342,1.5389,1.6722,1.821,2.0753,2.3392,2.5935,2.8155,2.9761,3.0551,3.1598,3.2183,3.2055,3.0567,2.9776,2.9997,2.9659,3.0939,3.4123,3.5054,3.677,3.9263,3.9675,4.026,4.0891,4.1078,4.1135,4.1107,4.0482,4.0211,4.0046,3.7881,3.6767,3.6368,3.5853,3.4718,3.3124,0.0,0.0,0.0,0.0,0.0,0.0,0.0,0.0,0.0,0.0,0.0,0.0,0.0,0.0,0.0,0.0,0.0,0.0,0.0,0.0,0.0,0.0,0.0,0.0,0.0,0.0,0.0,0.0,0.0,0.0,0.0,0.0,0.0,0.0,4.1923,4.3688,4.284,4.4855,4.5852,4.4745,4.6869,4.8454,4.8925,5.0361,5.1618,5.2486,5.2755,5.3084,5.3503,5.3767,5.4072,5.4551,5.476,5.5089,5.5564,5.5718,5.5837,5.5837,5.5837,5.5837,5.5837,5.5837,5.5837,5.5837,5.5837,5.5324,5.4486,5.4037,5.3887,5.3887,5.3887,5.3887,5.3887,0.0,0.0,1.5273,1.4897,1.4819,1.4819,1.488,1.5944,1.7977,2.143,2.385,2.6365,2.9382,3.1624,3.2465,3.128,3.3375,3.4449,3.3791,3.2293,3.1687,3.224,3.2319,3.3144,3.4871,3.6529,3.8824,4.1813,4.0699,4.1093,4.2893,4.2258,4.198,4.1902,4.1224,4.0924,4.0897,4.0293,3.9711,3.9123,3.8885,3.8035,3.6747,0.0,0.0,0.0,0.0,0.0,0.0,0.0,0.0,0.0,0.0,0.0,0.0,0.0,0.0,0.0,0.0,0.0,0.0,0.0,0.0,0.0,0.0,0.0,0.0,0.0,0.0,0.0,0.0,0.0,0.0,0.0,0.0,0.0,4.271,4.4217,4.5005,4.3778,4.7557,4.9531,4.7668,5.0361,5.2247,5.2247,5.2869,5.3258,5.3258,5.3892,5.4281,5.4281,5.491,5.5239,5.5239,5.5923,5.6222,5.6222,5.6821,5.7094,5.7094,5.7094,5.7094,5.7094,5.7094,5.7094,5.7094,5.7094,5.7094,5.6974,5.5748,5.5239,5.5239,5.5239,5.5239,5.5239,1.5396,1.5396,1.5357,1.5254,1.5234,1.5563,1.6531,1.7449,1.9388,2.3259,2.5071,2.7577,3.167,3.2936,3.3862,3.4818,3.5529,3.549,3.4497,3.3296,3.2889,3.342,3.4977,3.7079,3.973,4.0671,4.2208,4.4458,4.5049,4.5354,4.5424,4.5658,4.5529,4.5038,4.4363,4.407,4.404,4.3374,4.2993,4.2737,4.136,4.0236,3.9302,0.0,0.0,0.0,0.0,0.0,0.0,0.0,0.0,0.0,0.0,0.0,0.0,0.0,0.0,0.0,0.0,0.0,0.0,0.0,0.0,0.0,0.0,0.0,0.0,0.0,0.0,0.0,0.0,0.0,0.0,0.0,4.4197,4.6202,4.5364,4.7317,4.8903,4.9045,5.0601,5.1648,5.1558,5.2366,5.3114,5.3623,5.3832,5.4132,5.461,5.5294,5.5653,5.5653,5.6226,5.6585,5.6585,5.6765,5.6825,5.6825,5.7004,5.7094,5.7094,5.7094,5.7094,5.7094,5.7094,5.7094,5.7094,5.7094,5.7094,5.7064,5.6705,5.6585,5.6585,5.6585,5.6585,5.6585,1.5396,1.5396,1.5396,1.5396,1.5854,1.6509,1.7271,1.9173,2.173,2.5112,2.7342,3.006,3.3724,3.4555,3.5251,3.6309,3.6324,3.5836,3.4751,3.3696,3.3768,3.5203,3.7324,3.9927,4.3116,4.4101,4.5685,4.7853,4.8055,4.8275,4.8395,4.8469,4.8005,4.713,4.6441,4.5992,4.5693,4.5005,4.4736,4.4614,4.3581,4.2533,4.1553,4.0933,3.9819,3.8381,3.7096,3.6059,3.5118,3.4,0.0,0.0,0.0,0.0,0.0,0.0,0.0,0.0,0.0,0.0,0.0,0.0,0.0,0.0,0.0,0.0,0.0,0.0,0.0,0.0,0.0,0.0,0.0,0.0,4.781,4.9643,4.9254,5.0249,5.1295,5.1977,5.2636,5.3174,5.3563,5.3862,5.4336,5.497,5.5029,5.5299,5.5957,5.6372,5.6581,5.6581,5.6915,5.7244,5.7513,5.7812,5.8082,5.8351,5.865,5.877,5.877,5.877,5.877,5.877,5.877,5.877,5.877,5.877,5.877,0.0,0.0,0.0,0.0,0.0,5.7094,5.7094,1.5503,1.5488,1.5517,1.5679,1.6629,1.7503,1.7786,2.0949,2.4287,2.6974,2.9999,3.2861,3.5321,3.6081,3.6402,3.637,3.6277,3.5867,3.5027,3.4417,3.5195,3.7627,3.9919,4.2581,4.5714,4.7105,4.8974,5.1342,5.0262,5.0295,5.1295,5.0697,4.977,4.8596,4.7848,4.7219,4.657,4.5753,4.5394,4.5394,4.5334,4.4586,4.3479,4.3011,4.2413,4.172,4.0628,3.9403,3.8167,3.7406,0.0,0.0,0.0,0.0,0.0,0.0,0.0,0.0,0.0,0.0,0.0,0.0,0.0,0.0,0.0,0.0,0.0,0.0,0.0,0.0,0.0,0.0,0.0,0.0,5.1702,5.3457,5.3603,5.3061,5.2815,5.3258,5.3952,5.4431,5.4431,5.5029,5.5658,5.6252,5.6312,5.6551,5.7064,0.0,0.0,0.0,0.0,5.7842,5.8414,5.9039,5.9608,6.0206,6.0835,6.1076,6.1076,6.1076,6.1076,6.1076,6.1076,6.1076,6.1076,6.1076,6.1076,6.0837,5.8471,5.7543,5.7543,5.7543,5.7543,5.7543,1.6088,1.5968,1.6277,1.7337,1.745,1.81,2.0153,2.2095,2.4722,2.8725,3.0798,3.299,3.5896,3.6331,3.6331,3.6178,3.6615,3.6839,3.6661,3.8874,4.0437,4.0965,4.4662,4.7531,4.9279,5.002,5.1157,5.2802,5.2535,5.2299,5.2007,5.1887,5.1409,5.0601,4.9426,4.8828,4.8618,4.686,4.6121,4.6061,4.5514,4.5155,4.4906,4.4799,4.468,4.4509,4.4258,4.3742,4.2959,4.1704,4.0528,3.9504,3.8804,3.8205,0.0,0.0,0.0,0.0,0.0,0.0,0.0,0.0,0.0,0.0,0.0,0.0,0.0,0.0,0.0,0.0,0.0,0.0,0.0,5.075,5.3054,5.5159,5.6142,5.5789,5.5085,5.4132,5.5085,5.5803,5.5803,5.6346,5.6765,5.6915,5.6915,5.6974,5.7094,5.8141,5.871,5.871,5.9757,6.0416,6.0508,6.0627,6.0775,6.0924,0.0,0.0,6.1076,6.1076,6.1076,6.1076,6.1076,6.1076,6.1076,6.1076,6.1076,6.1046,6.0535,6.0326,6.0326,6.0326,6.0326,6.0326,1.7508,1.7185,1.7241,1.7882,1.8723,1.9963,2.1967,2.3979,2.6605,3.0233,3.1928,3.3661,3.5899,3.6153,3.6111,3.599,3.6993,3.8092,3.9188,4.1593,4.3724,4.5419,4.8269,5.0375,5.1626,5.2643,5.3507,5.4216,5.4216,5.3862,5.3204,5.3204,5.2665,5.1678,5.069,5.0062,4.9673,4.8356,4.7608,4.7279,4.692,4.6591,4.6232,4.5544,4.5304,4.5304,4.5304,4.5141,4.4778,4.4088,4.3445,4.2856,4.2204,4.1762,4.1065,0.0,0.0,0.0,0.0,0.0,0.0,0.0,0.0,0.0,0.0,0.0,0.0,0.0,0.0,4.68,4.8446,0.0,5.3985,5.4992,5.7413,5.9124,5.9026,5.9107,5.8632,5.7218,5.7408,5.7628,5.7628,5.7933,5.7961,5.7626,5.7902,5.8231,5.856,5.9548,6.0116,6.0116,6.1401,6.2266,6.2601,6.3302,6.3831,6.4146,6.4146,6.4146,6.4146,6.4514,6.4696,6.4673,6.4304,6.4153,6.4066,6.3003,6.257,6.257,6.257,6.1972,6.1076,6.1076,6.1076,6.1076,1.9131,1.8873,1.8769,1.8769,2.0341,2.207,2.3463,2.5976,2.8601,3.1089,3.2742,3.4228,3.5542,3.5718,3.5742,3.5849,3.7651,3.9654,4.1644,4.4038,4.668,4.9585,5.1196,5.2493,5.3411,5.459,5.5179,5.5179,5.5179,5.491,5.4401,5.4401,5.3743,5.2546,5.1974,5.1229,5.0338,4.9824,4.917,4.852,4.8711,4.8489,4.7886,4.6801,4.6082,4.5693,4.5693,4.5809,4.5924,4.5597,4.5719,4.5837,4.5074,4.4876,4.4328,4.135,4.1355,0.0,0.0,0.0,0.0,0.0,0.0,0.0,0.0,4.4659,4.5704,4.7472,4.8985,5.0783,5.329,5.5678,5.7913,5.9791,6.1875,6.2931,6.1902,6.2213,6.2245,6.1553,6.0503,5.9878,5.9878,6.0121,5.9959,5.9123,5.9827,6.0395,6.0672,6.1583,6.2083,6.2083,6.3397,6.438,6.4911,6.6165,6.7081,6.7631,6.7631,6.7631,6.7663,6.8266,6.8522,6.8476,6.7598,6.7209,6.7038,6.5038,6.4186,6.4186,6.4186,6.3258,6.1854,6.1854,6.205,6.2272,2.0443,2.097,2.1455,2.1455,2.2359,2.3503,2.4782,2.7371,2.9533,3.0565,3.2455,3.4012,3.4928,3.5022,3.519,3.5691,3.8925,4.1546,4.2983,4.7607,5.073,5.1736,5.3692,5.4798,5.4947,5.5103,5.5179,5.5179,5.5179,5.5149,5.5089,5.5089,5.47,5.3972,5.3712,5.2643,5.1066,5.0804,5.0123,4.9269,5.0226,5.0542,5.048,5.0346,4.895,4.707,4.707,4.7649,4.8183,4.6698,4.7185,4.8153,4.6592,4.6245,4.5985,4.3678,4.3925,4.4123,4.0317,4.1221,4.3864,4.6611,4.7781,4.9214,0.0,5.279,5.2325,5.317,5.482,5.6782,5.8918,6.0513,6.199,6.34,6.3877,6.4198,6.4488,6.4215,6.4722,6.6774,6.4443,6.2652,6.2652,6.377,6.3963,6.2646,6.3765,6.3981,6.2836,6.4584,6.5632,6.5632,6.6996,6.775,6.7814,6.863,6.9087,6.9151,6.9151,6.9151,6.9151,6.9248,6.928,6.9201,6.7813,6.7209,6.7069,6.5523,6.4874,6.4874,6.4874,6.4755,6.4545,6.4545,6.5391,6.6523,2.1487,2.2699,2.3816,2.3816,2.4163,2.5125,2.7314,2.8624,2.9941,3.1486,3.2465,3.33,3.4018,3.4445,3.4894,3.5514,3.9843,4.3066,4.4381,4.9392,5.2825,5.3857,5.4722,5.5179,5.5179,5.5179,5.5179,5.5179,5.5918,5.6256,5.625,5.6517,5.6529,5.6209,5.53,5.4471,5.3739,5.3248,5.2576,5.1829,5.2282,5.2237,5.1826,5.1394,5.0365,4.8973,4.7865,4.7507,0.0,4.7608,4.809,4.8646,4.8363,4.7462,4.6184,4.4699,4.4221,4.4499,4.5945,4.6157,4.6809,5.0331,5.1109,5.1541,5.3549,5.476,5.5868,5.7315,5.95,6.144,6.2319,6.3891,6.5247,6.5799,6.7236,6.825,6.8082,6.8188,6.8567,6.9173,6.8026,6.6753,6.5549,6.5968,6.574,6.44,6.5242,6.5701,6.5546,6.6741,6.7625,6.8035,6.9418,7.0156,7.0156,7.1227,7.1786,7.1786,7.1786,7.1786,7.1819,7.225,7.2223,7.1766,7.0276,6.8959,6.766,6.6188,6.6099,6.6859,6.6859,6.7623,6.8525,6.6869,6.6675,6.7321,2.2692,2.4008,2.5437,2.5995,2.6067,2.6833,2.9073,2.9711,3.0529,3.2034,3.2392,3.2691,3.3185,3.3979,3.4607,3.4921,3.9619,4.3329,4.5185,4.9733,5.3204,5.5119,5.5179,5.5179,5.5179,5.5179,5.5381,5.5695,5.659,5.7057,5.7222,5.7534,5.7489,5.7095,5.637,5.577,5.5293,5.5113,5.4578,5.3903,5.4208,5.391,5.3219,5.2488,5.1352,4.9952,4.8106,4.7184,4.6868,4.6911,4.7344,4.7876,4.7732,4.6864,4.5698,4.4744,4.3818,4.4118,4.8924,4.916,4.9042,5.3011,5.4198,5.4601,5.5448,5.7095,5.8918,6.06,6.2475,6.4101,6.5061,6.6591,6.7922,6.847,7.0431,7.165,7.0906,7.1278,7.1345,7.0601,7.05,6.9985,6.8708,6.8549,6.8003,6.6719,6.7589,6.8289,6.8456,6.9278,6.9975,7.0489,7.1713,7.2346,7.2346,7.3528,7.4244,7.4447,7.4187,7.4346,7.4786,7.5303,7.5271,7.4728,7.3264,7.1484,6.9558,6.8523,6.8464,6.9102,6.9501,7.0662,7.1781,7.0184,6.9304,6.9124,2.4221,2.4851,2.6022,2.7968,2.831,2.854,2.9276,3.0557,3.1452,3.154,3.2079,3.2512,3.2512,3.3709,3.4248,3.3604,3.7793,4.1863,4.5095,4.8424,5.1774,5.5059,5.5179,5.5179,5.5179,5.5179,5.5769,5.6943,5.6991,5.723,5.7678,5.769,5.6977,5.573,5.6719,5.6214,5.4704,5.573,5.5538,5.4661,5.5718,5.5685,5.4941,5.4199,5.2193,4.9471,4.768,4.7203,4.6974,4.3774,4.4212,4.566,4.3347,4.3647,4.4659,4.3734,4.2939,4.3195,4.683,4.8508,5.0351,5.4869,5.7956,6.0189,6.1444,6.181,6.2079,6.287,6.3051,6.4155,6.7448,6.8762,6.9974,7.1929,7.2912,7.3195,7.2428,7.236,7.209,7.1357,7.1255,7.1526,7.2179,7.2247,7.1673,7.0246,7.2065,7.2734,7.1433,7.2625,7.335,7.3384,7.4117,7.4489,7.4489,7.5246,7.6014,7.6792,7.6014,7.642,7.7865,7.7899,7.7908,7.7785,7.6332,7.4778,7.3343,7.3375,7.2524,7.1362,7.2867,7.3488,7.3715,7.5046,7.4634,7.3423,2.4936,2.6287,2.7612,2.8267,2.9534,3.054,3.0762,3.1187,3.1331,3.0897,3.1421,0.0,0.0,0.0,0.0,0.0,3.7836,4.0576,4.2571,4.6202,4.9907,5.3576,5.4588,5.5857,5.7551,5.7606,5.7784,5.82,5.9014,5.9458,5.9641,5.9399,5.9046,5.8554,5.795,5.7344,5.6811,5.7185,5.7129,5.6797,5.665,5.6157,5.5368,5.4146,5.1816,4.8904,0.0,4.4659,4.3733,4.3476,4.3553,4.3756,4.3421,4.298,4.238,4.1648,4.312,4.5924,5.018,5.2254,5.4321,5.8862,6.1045,6.2219,6.2627,6.4102,6.5449,6.57,6.5068,6.4825,6.5979,6.7219,6.8307,6.8967,7.1957,7.3984,7.3206,7.3105,7.2868,7.2124,7.2022,7.2124,7.2394,7.2394,7.2403,7.2412,7.3099,7.3517,7.3563,7.3986,7.4458,7.4931,7.5709,7.6149,7.6149,7.686,7.7333,7.7638,7.7333,7.7502,7.8,7.8,7.8,7.7927,7.645,7.5523,7.4956,7.3969,7.389,7.4359,7.4849,7.5655,7.6586,7.7078,7.6952,7.6491,2.6022,2.7406,2.8628,2.908,3.0242,0.0,0.0,0.0,0.0,0.0,0.0,0.0,0.0,0.0,0.0,0.0,0.0,3.9253,4.1339,4.4054,4.7343,5.1298,5.2026,5.3393,5.558,5.5336,5.5805,5.7033,5.81,5.897,5.9638,5.9689,5.9573,5.9268,5.8321,5.7764,5.7476,5.7239,5.7103,5.7002,5.5716,5.4752,5.3872,5.1849,4.923,0.0,4.3799,4.1669,4.0135,4.0939,4.1218,4.1268,4.1436,4.1613,4.1852,4.2372,4.4825,4.8375,5.3032,5.5056,5.6946,6.1303,6.2751,6.3281,6.4053,6.5561,6.6974,6.7688,6.6241,6.5,6.5511,6.6792,6.7543,6.6726,7.0652,7.3578,7.28,7.2699,7.2732,7.28,7.28,7.2902,7.3172,7.3206,7.3375,7.3849,7.3686,7.4085,7.5347,7.5439,7.5777,7.6487,7.7029,7.7299,7.7299,7.7739,7.8,7.8034,7.8517,7.8653,7.8382,7.8653,7.8813,7.8729,7.7771,7.7058,7.6525,7.6118,7.6171,7.6604,7.7163,7.7924,7.8813,7.8813,7.8813,7.8686,2.7413,2.817,2.9086,0.0,0.0,0.0,0.0,0.0,0.0,0.0,0.0,0.0,0.0,0.0,0.0,0.0,0.0,0.0,4.1198,4.1983,4.4184,4.8345,4.7934,4.8339,4.994,4.9189,5.0409,5.3738,5.4476,5.5752,5.7629,5.8321,5.8287,5.7629,5.7561,5.7171,5.6461,5.5767,5.5462,5.5225,5.2977,5.1592,5.0599,4.7681,4.4782,4.206,4.0554,3.8602,3.6708,3.6708,3.7667,3.8752,3.8125,4.0176,4.3249,4.5792,4.8027,5.0624,5.5055,5.6821,5.8332,6.2219,6.3295,6.3959,6.6013,6.6495,6.6999,6.8737,6.6371,6.436,6.5568,6.7096,6.7506,6.5445,6.9322,7.2326,7.156,7.1458,7.1988,7.3364,7.3534,7.3815,7.4536,7.459,7.4658,7.4705,7.4131,7.4655,7.668,7.6879,7.7266,7.8,7.8034,7.8044,7.8044,7.8077,7.8111,7.8111,7.9532,7.9837,7.9194,7.987,8.0209,8.0209,8.0209,7.9366,7.8131,7.9606,7.934,7.8184,7.9632,8.0209,8.0209,8.0209,8.0209,8.0006,0.0,0.0,0.0,0.0,0.0,0.0,0.0,0.0,0.0,0.0,0.0,0.0,0.0,0.0,0.0,0.0,0.0,0.0,3.8486,3.9691,4.213,4.6141,4.7101,4.8553,5.0807,5.0127,5.0446,5.1883,5.2068,5.271,5.3721,5.3923,5.3923,5.3687,5.3145,5.279,5.2621,5.2418,5.2013,5.1371,4.9706,4.8227,4.6869,4.544,4.3411,4.1269,4.0782,3.951,3.8085,3.8085,3.9877,4.2491,4.4797,4.6463,4.784,4.9494,5.2067,5.4785,5.6432,5.9186,6.2066,6.4158,6.6188,6.8147,6.9783,7.0488,7.0246,6.8261,6.436,6.078,5.9104,6.1634,6.4021,6.3928,7.0063,7.4593,7.3859,7.3758,7.368,7.3534,7.3984,7.439,7.457,7.4669,7.5131,7.6246,7.6163,7.583,7.5277,7.6817,7.7831,7.7976,7.8517,7.8822,7.8822,7.9363,7.9634,7.9634,8.0006,8.0107,7.9938,8.0107,8.0209,8.0209,8.0209,7.9972,7.9657,8.0048,7.9972,7.9657,8.0048,8.0209,8.0209,8.0209,8.0209,8.0141,0.0,0.0,0.0,0.0,0.0,0.0,0.0,0.0,0.0,0.0,0.0,0.0,0.0,0.0,0.0,0.0,0.0,0.0,0.0,3.8711,4.0602,4.3498,4.4016,4.5075,4.6773,4.6103,4.6212,4.7253,4.7918,4.8795,4.9854,5.0532,5.0845,5.0845,5.0423,5.0051,4.9731,4.9011,4.8497,0.0,0.0,4.4393,4.35,4.2285,4.0879,3.9503,3.9361,4.0087,4.1334,4.2795,4.4478,4.6322,4.8476,5.0002,5.1342,5.2935,5.5329,5.7749,5.8949,6.1343,6.3986,6.6062,6.77,6.8969,6.9574,6.9696,6.8704,6.5039,6.1206,5.7946,5.6121,5.9992,6.323,6.262,6.9665,7.4965,7.4221,7.4119,7.4187,7.4424,7.483,7.493,7.4594,7.4602,7.4837,7.5348,7.6005,7.6483,7.6632,7.7816,7.8619,7.8957,7.9363,7.96,7.96,8.0006,8.0209,8.0209,8.0209,8.0209,8.0209,8.0209,8.0209,8.0209,0.0,8.0209,8.0209,8.0209,8.0209,8.0209,8.0209,8.0209,8.0209,8.0209,8.0209,8.0209,0.0,0.0,0.0,0.0,0.0,0.0,0.0,0.0,0.0,3.163,3.163,3.2108,0.0,0.0,0.0,0.0,0.0,0.0,0.0,0.0,3.9528,4.1009,4.0438,4.0365,4.0889,4.0184,4.0399,4.1626,4.2961,4.4267,4.556,4.7082,4.7778,4.7677,4.7778,4.746,4.676,4.5415,4.4805,4.4464,4.1766,4.0574,4.0353,0.0,0.0,3.7583,3.772,4.0767,4.5185,4.8349,4.9726,5.0235,5.1116,5.2636,5.4486,5.6312,5.8112,5.9962,6.1956,6.3455,6.5077,6.7885,6.851,6.8377,6.7885,6.6891,6.4895,6.0815,5.7865,5.5665,5.4789,5.9576,6.3243,6.1961,6.8762,7.4192,7.4119,7.3844,7.4188,7.5547,7.5614,7.5319,7.4712,7.4747,7.4647,7.4259,7.5373,7.6904,7.8699,7.9094,7.9532,8.0175,8.0209,8.0209,8.0209,8.0209,8.0209,8.0209,8.0209,8.0209,8.0209,8.0209,8.0209,8.0209,8.0209,0.0,8.0209,8.0209,8.0209,8.0209,8.0209,8.0209,8.0209,8.0209,8.0209,8.0209,0.0,0.0,0.0,0.0,0.0,0.0,0.0,0.0,0.0,0.0,3.2333,3.2632,0.0,0.0,0.0,0.0,0.0,0.0,0.0,0.0,0.0,0.0,4.018,3.9848,3.9317,3.8576,3.8319,3.8555,3.879,3.9071,3.9471,4.0867,4.1281,4.0759,4.1314,4.1493,4.1348,4.1082,4.0604,3.9951,3.8778,3.7904,3.7406,3.7555,0.0,0.0,3.9284,4.2851,4.713,4.9321,5.1887,5.4551,5.6855,5.8171,5.9069,5.9997,6.0894,6.2014,6.4028,6.5587,6.7173,6.9401,6.9995,6.9983,6.9743,6.7083,6.3447,5.9266,5.6395,5.3892,5.1531,5.5225,5.9815,6.3427,6.8615,7.3387,7.6763,7.5648,7.4782,7.5617,7.5213,7.5036,7.5451,7.605,7.6875,7.8033,7.7755,7.7482,7.7285,7.9017,8.0073,8.0209,8.0209,8.0209,8.0209,8.0209,8.0209,8.0209,8.0209,8.0209,8.0209,8.0209,8.0209,8.0209,8.0209,0.0,8.0209,8.0209,8.0209,8.0209,8.0209,8.0209,8.0209,8.0209,8.0209,8.0209,0.0,0.0,0.0,0.0,0.0,0.0,0.0,3.2303,3.2632,3.2976,3.3335,3.3664,3.3979,3.4308,3.4757,0.0,0.0,0.0,0.0,0.0,0.0,0.0,0.0,0.0,0.0,0.0,0.0,0.0,0.0,3.6999,3.6727,0.0,3.8485,3.7887,3.855,3.8873,3.8826,3.8408,3.8037,3.7647,3.6845,3.6557,0.0,0.0,0.0,0.0,4.0834,4.3978,4.7519,4.8775,5.2097,5.6192,5.88,6.0086,6.0745,6.1433,6.2091,6.2973,6.4638,6.5854,6.7222,6.9662,7.0295,6.9472,6.6321,6.3861,6.0458,5.4228,5.2527,5.166,5.0019,5.4259,5.8836,6.1494,6.781,7.3052,7.5012,7.6274,7.6671,7.5793,7.5444,7.516,7.5065,7.5371,7.6393,7.8322,7.8119,7.8099,7.8597,7.9642,8.0209,8.0209,8.0209,8.0209,8.0209,8.0209,8.0209,8.0209,8.0209,8.0209,8.0209,8.0209,8.0209,8.0209,8.0209,0.0,8.0209,8.0209,8.0209,8.0209,8.0209,8.0209,8.0209,8.0209,8.0209,8.0209,0.0,0.0,0.0,0.0,0.0,0.0,3.2392,3.2751,3.3215,3.4023,3.4607,3.4923,3.4923,3.4787,3.5001,0.0,0.0,0.0,0.0,0.0,0.0,0.0,0.0,0.0,0.0,0.0,0.0,0.0,0.0,0.0,0.0,0.0,0.0,0.0,0.0,3.7309,3.7265,3.6631,3.6353,0.0,0.0,3.6028,0.0,0.0,0.0,0.0,0.0,4.4247,4.683,4.7908,5.1163,5.5204,5.7988,5.9578,6.0567,6.1253,6.2166,6.3299,6.5072,6.6255,6.7584,6.9927,7.0367,6.8672,6.2841,6.0557,5.7553,5.0166,4.9254,4.968,4.9366,5.3475,5.7507,5.9222,6.5712,7.1094,7.2796,7.531,7.6771,7.6254,7.5477,7.5042,7.5197,7.4922,7.5741,7.8232,7.8398,7.8908,8.0158,8.0209,8.0209,8.0209,8.0209,8.0209,8.0209,8.0209,8.0209,8.0209,8.0209,8.0209,8.0209,8.0209,8.0209,8.0209,8.0209,0.0,0.0,8.0209,8.0209,8.0209,8.0209,8.0209,8.0209,8.0209,8.0209,8.0209,0.0,0.0,0.0,0.0,0.0,0.0,3.2303,3.3514,3.4787,3.6074,3.6284,3.6314,3.6314,3.5759,3.5705,0.0,0.0,0.0,0.0,0.0,0.0,0.0,0.0,0.0,0.0,0.0,0.0,0.0,0.0,0.0,0.0,0.0,0.0,0.0,0.0,0.0,0.0,3.5635,0.0,0.0,0.0,0.0,0.0,0.0,0.0,0.0,0.0,4.3349,4.4975,4.7459,4.9037,5.0504,5.3713,5.641,5.8504,5.9189,6.0761,6.2965,6.6139,6.8442,7.0107,7.1014,7.0737,6.8804,6.3144,5.9582,5.6006,5.0824,4.9083,4.8648,4.9187,5.0709,5.3557,5.8678,6.117,6.5103,7.2727,7.1728,7.2069,7.7085,7.47,7.3908,7.7249,7.631,7.6767,7.976,7.9998,8.0048,8.0209,8.0209,8.0209,8.0209,8.0209,8.0209,8.0209,8.0209,8.0209,8.0209,8.0209,8.0209,8.0209,8.0209,8.0209,8.0209,8.0209,0.0,0.0,8.0209,8.0209,8.0209,8.0209,8.0209,8.0209,8.0209,8.0209,8.0209,0.0,0.0,0.0,0.0,0.0,0.0,3.2916,3.356,3.4518,3.6284,3.6148,3.6058,3.6464,3.5908,3.5619,3.5911,0.0,0.0,0.0,0.0,0.0,0.0,0.0,0.0,0.0,0.0,0.0,0.0,0.0,0.0,0.0,0.0,0.0,0.0,0.0,0.0,0.0,0.0,0.0,0.0,0.0,0.0,0.0,0.0,0.0,0.0,0.0,0.0,4.5065,4.6112,4.7997,4.9942,5.0481,5.2187,5.4815,5.9122,6.1241,6.3104,6.7267,6.8994,6.9892,7.1029,7.0075,6.7346,6.1655,5.8289,5.4866,4.9445,4.8317,4.8498,4.9157,5.0002,5.1967,5.6116,5.9341,6.2916,6.7435,6.9847,7.2047,7.4431,7.4086,7.4783,7.7626,7.7331,7.7882,8.0048,8.0209,8.0209,8.0209,8.0209,8.0209,8.0209,8.0209,8.0209,8.0209,8.0209,8.0209,8.0209,8.0209,8.0209,8.0209,8.0209,8.0209,8.0209,8.0209,0.0,0.0,8.0209,8.0209,8.0209,8.0209,8.0209,8.0209,8.0209,8.0209,8.0209,0.0,0.0,0.0,0.0,0.0,3.1734,3.3275,3.3679,3.4518,3.6507,3.6207,3.5968,3.6464,3.5908,3.5519,3.5519,3.6165,0.0,0.0,0.0,0.0,0.0,0.0,0.0,0.0,0.0,3.5519,3.5519,3.5519,0.0,0.0,0.0,0.0,0.0,0.0,0.0,0.0,0.0,0.0,0.0,0.0,0.0,0.0,0.0,0.0,0.0,0.0,0.0,0.0,0.0,0.0,4.8663,4.8147,4.9075,5.147,5.718,6.0179,6.2541,6.6615,6.8747,7.0043,7.1052,6.9366,6.601,6.0542,5.7301,5.3881,4.8417,4.7668,4.8229,4.8887,4.9494,5.0955,5.4158,5.7514,6.0784,6.3765,6.7628,7.0596,7.1874,7.2723,7.4116,7.6387,7.7402,7.8564,8.0074,8.0209,8.0209,8.0209,8.0209,8.0209,8.0209,8.0209,8.0209,8.0209,8.0209,8.0209,8.0209,8.0209,8.0209,8.0209,8.0209,8.0209,8.0209,8.0209,0.0,0.0,8.0209,8.0209,8.0209,8.0209,8.0209,8.0209,8.0209,8.0209,8.0209,0.0,0.0,0.0,0.0,0.0,0.0,3.3185,3.4069,3.5176,3.7135,3.6866,3.6493,3.6493,3.5908,3.5519,3.5519,3.6165,0.0,0.0,0.0,0.0,0.0,0.0,0.0,0.0,0.0,3.5519,3.5519,3.5519,3.5519,3.5489,3.5519,0.0,0.0,0.0,0.0,0.0,0.0,0.0,0.0,0.0,0.0,4.1463,0.0,0.0,0.0,0.0,0.0,0.0,0.0,0.0,0.0,0.0,4.7788,4.8977,5.2324,5.6645,6.0889,6.3533,6.7673,7.1289,7.1289,6.8785,6.5078,6.0366,5.6709,5.2993,4.8273,4.7309,4.7519,4.8199,4.8858,5.0359,5.3492,5.5139,5.7966,6.3428,6.4587,6.6294,7.0182,7.0278,7.1005,7.3419,7.6207,7.8564,8.0074,8.0209,0.0,8.0209,8.0209,8.0209,8.0209,8.0209,8.0209,8.0209,8.0209,8.0209,8.0209,8.0209,8.0209,8.0209,8.0209,8.0209,8.0209,0.0,0.0,0.0,8.0209,8.0209,8.0209,8.0209,8.0209,8.0209,8.0209,8.0209,8.0209,0.0,0.0,0.0,0.0,0.0,0.0,3.2632,3.3395,3.4368,3.5908,3.5938,3.5998,3.6464,3.5908,3.5519,3.5519,3.5702,0.0,0.0,0.0,0.0,0.0,0.0,0.0,0.0,0.0,3.4697,3.5151,3.5151,3.5709,3.6789,3.6387,3.6178,3.6131,0.0,0.0,0.0,0.0,0.0,0.0,0.0,3.9632,4.1523,0.0,0.0,0.0,0.0,0.0,0.0,0.0,0.0,0.0,0.0,0.0,0.0,4.9426,5.3184,5.7575,6.067,6.2968,6.4463,6.4463,6.2501,5.9746,5.661,5.3847,5.1086,4.7951,4.7309,4.7489,4.8199,4.8858,5.0457,5.4119,5.5426,5.7551,6.2006,6.4835,6.7234,6.9451,7.3053,7.6112,7.7932,7.8935,7.9683,8.015,8.0209,8.0209,8.0209,8.0209,8.0209,8.0209,8.0209,8.0209,8.0209,8.0209,8.0209,8.0209,8.0209,8.0209,8.0209,8.0209,8.0209,0.0,0.0,0.0,0.0,8.0209,8.0209,8.0209,8.0209,8.0209,8.0209,8.0209,8.0209,8.0209,0.0,0.0,0.0,0.0,0.0,0.0,3.2392,3.2841,3.3604,3.4967,3.513,3.5386,3.6058,3.5759,3.5519,3.5519,3.5519,0.0,0.0,0.0,0.0,0.0,0.0,0.0,0.0,3.4194,3.4645,3.5897,3.5897,3.6544,3.7764,3.6983,3.6384,3.5866,3.4421,0.0,0.0,0.0,0.0,0.0,3.7531,3.9428,4.0947,0.0,0.0,0.0,0.0,0.0,0.0,0.0,0.0,0.0,0.0,0.0,0.0,0.0,5.0166,5.3461,5.7073,5.9277,6.0557,6.0557,5.8515,5.6091,5.4304,5.1862,4.9524,4.8168,4.7892,4.8013,4.8407,4.9594,5.1255,5.3503,5.5442,5.7887,6.1407,6.4927,6.8181,7.0964,7.4253,7.7085,7.9154,7.9347,7.9546,8.0183,8.0209,8.0209,8.0209,8.0209,8.0209,8.0209,8.0209,8.0209,8.0209,8.0209,8.0209,8.0209,8.0209,8.0209,8.0209,8.0209,8.0209,0.0,0.0,0.0,0.0,8.0209,8.0209,8.0209,8.0209,8.0209,8.0209,8.0209,8.0209,8.0209,0.0,0.0,0.0,0.0,0.0,0.0,0.0,3.2482,3.2976,3.4248,3.4458,3.4757,3.5429,3.5519,3.5519,3.5519,0.0,0.0,0.0,0.0,0.0,0.0,0.0,0.0,3.5166,3.4279,3.487,3.7082,3.7082,3.7473,3.824,3.7186,3.6074,3.4898,3.3805,3.3001,0.0,0.0,0.0,0.0,3.6613,3.8657,0.0,0.0,0.0,0.0,0.0,0.0,0.0,0.0,0.0,0.0,0.0,0.0,0.0,0.0,0.0,0.0,0.0,5.6129,5.8599,5.8599,5.6246,5.3766,5.3125,5.052,0.0,4.8645,4.8697,4.8697,4.8759,5.0729,5.2306,5.2051,5.5172,5.8698,6.1732,6.526,6.9301,7.4107,7.4111,7.4871,7.7696,7.8048,7.867,8.0074,8.0209,8.0209,8.0209,8.0209,8.0209,8.0209,8.0209,8.0209,8.0209,8.0209,8.0209,8.0209,8.0209,8.0209,8.0209,8.0209,8.0209,0.0,0.0,0.0,0.0,8.0209,8.0209,8.0209,8.0209,8.0209,8.0209,8.0209,8.0209,8.0209,0.0,0.0,0.0,0.0,0.0,0.0,0.0,0.0,0.0,0.0,3.4188,3.4757,3.5429,3.5519,3.5519,0.0,0.0,0.0,0.0,0.0,0.0,0.0,0.0,0.0,3.2245,3.1992,3.2561,3.4028,3.4028,3.4949,3.6709,3.5992,3.5236,3.4483,3.3001,3.1871,0.0,0.0,0.0,0.0,3.6381,3.8058,0.0,0.0,0.0,0.0,4.313,4.3638,0.0,0.0,0.0,0.0,0.0,0.0,0.0,0.0,4.7429,4.7755,4.8675,0.0,5.1664,5.1664,5.106,5.0297,0.0,4.8884,4.8175,4.7744,4.7636,4.7817,4.8322,4.998,5.1477,5.2061,5.4898,5.8812,6.3931,6.8799,7.275,7.5169,7.5254,7.5889,7.7797,7.9019,7.9811,8.0183,8.0209,8.0209,8.0209,8.0209,8.0209,8.0209,8.0209,8.0209,8.0209,8.0209,8.0209,8.0209,8.0209,8.0209,8.0209,8.0209,8.0209,0.0,0.0,0.0,8.0209,8.0209,8.0209,8.0209,8.0209,8.0209,8.0209,8.0209,8.0209,8.0209,0.0,0.0,0.0,0.0,0.0,0.0,0.0,0.0,0.0,0.0,0.0,3.4308,3.4967,3.531,0.0,0.0,0.0,0.0,0.0,0.0,0.0,0.0,0.0,3.2876,3.1865,3.1426,3.2163,3.4089,3.4359,3.5368,3.7048,3.6232,3.523,3.4047,3.1939,3.086,0.0,0.0,0.0,3.3296,3.6049,0.0,0.0,0.0,0.0,0.0,4.319,4.3728,0.0,4.5065,4.5753,4.636,0.0,0.0,0.0,0.0,4.7048,4.7309,4.7309,4.8027,4.8828,4.8828,4.8828,4.8738,4.8379,4.8057,4.7881,4.7974,4.7988,4.8201,4.887,5.1692,5.3711,5.3185,5.8104,6.3733,6.8606,7.1915,7.4538,7.652,7.6723,7.7318,7.8866,7.9735,8.0209,8.0209,8.0209,8.0209,8.0209,8.0209,8.0209,8.0209,8.0209,8.0209,8.0209,8.0209,8.0209,8.0209,8.0209,8.0209,8.0209,8.0209,8.0209,0.0,0.0,0.0,8.0209,8.0209,8.0209,8.0209,8.0209,8.0209,8.0209,8.0209,8.0209,8.0209,0.0,0.0,0.0,0.0,0.0,0.0,0.0,0.0,0.0,0.0,0.0,0.0,0.0,0.0,0.0,0.0,0.0,0.0,0.0,0.0,0.0,0.0,0.0,3.2362,3.2309,3.1503,3.2346,3.4928,3.5544,3.645,3.7546,3.6731,3.5357,3.3439,3.1094,3.0306,0.0,0.0,3.2273,3.2856,3.5899,0.0,0.0,0.0,0.0,0.0,0.0,0.0,0.0,4.4945,4.5663,4.6271,4.6181,0.0,0.0,0.0,0.0,0.0,4.7399,4.8237,4.8962,4.8487,4.844,4.8501,4.838,4.7929,4.7722,4.8439,4.8666,4.9077,5.0257,5.4219,5.6842,5.5414,6.2932,7.0073,7.3335,7.4629,7.5856,7.7463,7.7848,7.8462,7.9744,8.0073,8.0209,8.0209,8.0209,8.0209,8.0209,8.0209,8.0209,8.0209,8.0209,8.0209,8.0209,8.0209,8.0209,8.0209,8.0209,8.0209,8.0209,8.0209,8.0209,8.0209,0.0,0.0,8.0209,8.0209,8.0209,8.0209,8.0209,8.0209,8.0209,8.0209,8.0209,8.0209,0.0,0.0,0.0,0.0,0.0,0.0,0.0,0.0,0.0,0.0,0.0,0.0,0.0,0.0,0.0,0.0,0.0,0.0,0.0,0.0,0.0,3.1664,3.1499,3.1262,3.0904,3.0773,3.1356,3.2689,3.3734,3.4601,3.5216,3.5519,3.4493,3.2415,3.1543,3.1185,3.1286,3.1436,3.2618,3.4494,3.6409,0.0,0.0,0.0,0.0,0.0,0.0,0.0,0.0,4.4416,4.5284,4.6211,4.5633,0.0,0.0,0.0,0.0,0.0,4.7848,5.0265,5.1847,4.9346,4.9138,4.9416,4.883,4.8646,4.8377,4.7658,4.7989,4.9433,5.29,5.5405,5.765,5.9786,6.6939,7.2602,7.3576,7.6899,7.8425,7.6326,7.7146,7.8017,7.8317,7.9464,8.0209,8.0209,8.0209,8.0209,8.0209,8.0209,8.0209,8.0209,8.0209,8.0209,8.0209,8.0209,8.0209,8.0209,8.0209,8.0209,8.0209,8.0209,8.0209,8.0209,0.0,8.0209,8.0209,8.0209,8.0209,8.0209,8.0209,8.0209,8.0209,8.0209,8.0209,8.0209,0.0,0.0,0.0,0.0,0.0,0.0,0.0,0.0,0.0,0.0,0.0,0.0,0.0,0.0,0.0,0.0,0.0,0.0,0.0,0.0,0.0,3.0913,3.0881,3.0796,3.0608,3.1165,3.1993,3.3119,3.4572,3.5527,3.6031,3.538,3.4051,3.219,3.1637,3.1406,3.1452,3.2336,3.3459,3.4889,0.0,0.0,0.0,0.0,0.0,0.0,0.0,0.0,0.0,0.0,4.5194,4.6121,4.5095,0.0,0.0,0.0,0.0,0.0,4.707,4.9105,5.1171,5.1445,5.3185,5.4855,5.4886,5.5274,5.5031,5.2971,5.3444,5.5023,5.7613,6.021,6.4192,7.0908,7.3412,7.5088,7.696,7.7518,7.7553,7.7018,7.752,7.8277,7.911,7.9803,8.0209,8.0209,8.0209,8.0209,8.0209,8.0209,8.0209,8.0209,8.0209,8.0209,8.0209,8.0209,8.0209,8.0209,8.0209,8.0209,8.0209,8.0209,8.0209,8.0209,0.0,8.0209,8.0209,8.0209,8.0209,8.0209,8.0209,8.0209,8.0209,8.0209,8.0209,8.0209,0.0,0.0,0.0,0.0,0.0,0.0,0.0,0.0,0.0,0.0,0.0,0.0,0.0,0.0,0.0,0.0,0.0,0.0,0.0,0.0,3.0784,3.0602,3.0713,3.0964,3.1341,3.219,3.3219,3.45,3.6029,3.6984,3.7337,3.5956,3.4301,3.257,3.2039,3.1733,3.1694,3.3173,3.4378,3.5486,0.0,0.0,0.0,0.0,0.0,0.0,0.0,0.0,0.0,0.0,0.0,0.0,0.0,0.0,0.0,4.5014,4.5493,4.636,4.6689,4.8667,5.1167,5.3545,5.5755,5.7846,5.9593,6.0327,6.0105,5.8394,5.9393,6.1025,6.2547,6.5755,7.0849,7.8893,7.8244,7.7604,8.0107,7.845,7.7367,7.8382,7.8542,7.8957,8.0073,8.0209,8.0209,8.0209,8.0209,8.0209,8.0209,8.0209,8.0209,8.0209,8.0209,8.0209,8.0209,8.0209,8.0209,8.0209,8.0209,8.0209,8.0209,8.0209,8.0209,8.0209,8.0209,8.0209,8.0209,8.0209,8.0209,8.0209,8.0209,8.0209,8.0209,8.0209,8.0209,8.0209,0.0,0.0,0.0,0.0,0.0,0.0,0.0,0.0,0.0,0.0,0.0,0.0,0.0,0.0,0.0,0.0,0.0,0.0,0.0,0.0,3.0108,3.0563,3.1085,3.2064,3.3621,3.3746,3.4575,3.6232,3.7337,3.7914,3.7939,3.7312,3.5855,3.3746,3.3215,3.2688,0.0,0.0,3.5063,3.7191,3.8993,0.0,0.0,0.0,0.0,0.0,0.0,0.0,0.0,0.0,0.0,0.0,0.0,0.0,4.5484,4.6001,4.6241,4.657,4.7818,5.1265,5.4575,5.5008,5.3705,5.3628,5.8595,5.8955,5.876,6.0689,6.28,6.486,6.6635,7.0771,7.4647,7.6831,7.8713,8.0175,8.1088,8.1046,8.0708,8.0107,8.004,8.0073,8.0175,8.0209,8.0209,8.0209,8.0209,8.0209,8.0209,8.0209,8.0209,8.0209,8.0209,8.0209,8.0209,8.0209,8.0209,8.0209,8.0209,8.0209,8.0209,8.0209,8.0209,8.0209,8.0209,8.0209,8.0209,8.0209,8.0209,8.0209,8.0209,8.0209,8.0209,8.0209,8.0209,8.0209,0.0,0.0,0.0,0.0,0.0,0.0,0.0,0.0,0.0,0.0,0.0,0.0,0.0,0.0,0.0,0.0,0.0,0.0,0.0,3.0011,3.0181,3.106,3.1612,3.2984,3.5335,3.6215,3.689,3.7412,3.931,3.9465,3.8014,3.7919,3.6456,3.3916,3.4041,0.0,0.0,0.0,0.0,3.8962,4.0724,4.1812,0.0,0.0,0.0,0.0,0.0,0.0,0.0,0.0,4.4237,4.4825,4.4237,4.4895,4.5792,4.5224,4.5642,4.642,4.692,5.0683,5.4389,5.4045,5.5092,5.7525,6.2511,6.5067,6.6383,6.6116,6.9389,0.0,7.2528,7.6683,8.0024,7.9693,8.0344,8.1122,8.1866,8.119,8.0513,8.0242,8.0209,8.0209,8.0209,8.0209,8.0209,8.0209,8.0209,8.0209,8.0209,8.0209,8.0209,8.0209,8.0209,8.0209,8.0209,8.0209,8.0209,8.0209,8.0209,8.0209,8.0209,8.0209,8.0209,8.0209,8.0209,8.0209,8.0209,8.0209,8.0209,8.0209,8.0209,8.0209,8.0209,8.0209,8.0209,8.0209,0.0,0.0,0.0,0.0,0.0,0.0,0.0,0.0,0.0,0.0,0.0,0.0,0.0,0.0,0.0,0.0,0.0,0.0,2.9804,2.9804,3.0281,3.1356,3.1913,3.3411,3.5997,3.7678,3.8548,3.8505,4.0175,3.995,3.8014,3.7962,3.7007,0.0,0.0,0.0,0.0,0.0,0.0,0.0,4.1783,4.253,0.0,0.0,0.0,0.0,0.0,0.0,0.0,0.0,4.4087,4.4616,4.4356,4.5044,4.5882,4.5373,4.6779,4.8446,4.8215,5.1539,5.5139,5.565,5.7708,6.1052,6.6555,6.9462,7.118,7.1929,7.5205,7.7773,7.7232,8.004,8.2035,8.0818,8.1012,8.1393,8.1663,8.0851,8.0209,8.0209,8.0209,8.0209,8.0209,8.0209,8.0209,8.0209,8.0209,8.0209,8.0209,8.0209,8.0209,8.0209,8.0209,8.0209,8.0209,8.0209,8.0209,8.0209,8.0209,8.0209,8.0209,8.0209,8.0209,8.0209,8.0209,8.0209,8.0209,8.0209,8.0209,8.0209,8.0209,8.0209,8.0209,8.0209,8.0209,8.0209,0.0,0.0,0.0,0.0,0.0,0.0,0.0,0.0,0.0,0.0,0.0,0.0,0.0,0.0,0.0,0.0,0.0,0.0,2.9804,2.9804,3.0281,3.1356,3.1913,3.3222,3.5456,3.7869,3.9242,3.9611,3.9676,3.912,3.799,3.7462,3.7595,0.0,0.0,0.0,0.0,0.0,0.0,0.0,4.1952,4.2741,4.327,0.0,0.0,0.0,0.0,0.0,0.0,0.0,4.3848,4.3648,4.5642,4.5843,4.5574,4.689,5.0062,5.3019,5.236,5.4429,5.7563,6.0634,6.1303,6.3067,7.0185,7.0692,7.1414,7.7726,7.9652,8.0209,8.0209,8.0209,7.9972,7.9228,8.0344,8.1021,8.031,8.0209,8.0209,8.0209,8.0209,8.0209,8.0209,8.0209,8.0209,8.0209,8.0209,8.0209,8.0209,8.0209,8.0209,8.0209,8.0209,8.0209,8.0209,8.0209,8.0209,8.0209,8.0209,8.0209,8.0209,8.0209,8.0209,8.0209,8.0209,8.0209,8.0209,8.0209,8.0209,8.0209,8.0209,8.0209,8.0209,8.0209,8.0209,8.0209,0.0,0.0,0.0,0.0,0.0,0.0,0.0,0.0,0.0,0.0,0.0,0.0,0.0,0.0,0.0,0.0,0.0,0.0,2.9804,2.9804,3.0281,3.1356,3.1913,3.3229,3.544,3.7359,3.9014,4.0432,4.046,3.9433,3.7436,3.8168,0.0,0.0,0.0,0.0,0.0,0.0,0.0,0.0,4.0915,4.1587,4.2149,0.0,0.0,0.0,0.0,0.0,0.0,0.0,0.0,0.0,4.4715,4.5753,4.6711,4.66,4.8087,4.9764,4.9804,5.446,5.9242,5.9044,6.402,6.9746,7.2737,7.3,7.4281,8.017,8.0772,8.0209,8.0209,8.0615,8.0716,8.0006,8.0242,8.0818,8.1629,8.0851,8.0209,8.0209,8.0209,8.0209,8.0209,8.0209,8.0209,8.0209,8.0209,8.0209,8.0209,8.0209,8.0209,8.0209,8.0209,8.0209,8.0209,8.0209,8.0209,8.0209,8.0209,8.0209,8.0209,8.0209,8.0209,8.0209,8.0209,8.0209,8.0209,8.0209,8.0209,8.0209,8.0209,8.0209,8.0209,8.0209,8.0209,8.0209,0.0,0.0,0.0,0.0,0.0,0.0,0.0,0.0,2.9804,2.9804,2.9804,2.9804,0.0,0.0,0.0,2.9804,2.9804,0.0,2.9804,2.9804,3.0281,3.1356,3.1913,3.3339,3.5804,3.7074,3.8235,3.9364,3.9364,3.8617,3.7235,0.0,0.0,0.0,0.0,0.0,0.0,0.0,0.0,0.0,4.0559,4.1206,4.1948,0.0,0.0,0.0,0.0,0.0,0.0,0.0,0.0,0.0,4.5014,4.5912,4.7138,4.8304,5.0118,5.2315,5.4707,5.8943,6.3101,6.5036,6.9305,7.3805,7.6749,7.7553,7.8677,8.2142,8.2137,8.1426,8.1122,8.119,8.1148,8.0716,8.0378,8.0513,8.1393,8.075,8.0209,8.0209,8.0209,8.0209,8.0209,8.0209,8.0209,8.0209,8.0209,8.0209,8.0209,8.0209,8.0209,8.0209,8.0209,8.0209,8.0209,8.0209,8.0209,8.0209,8.0209,8.0209,8.0209,8.0209,8.0209,8.0209,8.0209,8.0209,8.0209,8.0209,8.0209,8.0209,8.0209,8.0209,8.0209,8.0209,8.0492,8.0868,0.0,0.0,0.0,0.0,0.0,0.0,0.0,2.9804,2.9804,2.9804,2.9804,2.9804,0.0,0.0,0.0,2.9804,2.9804,2.9804,2.9804,2.9804,3.0281,3.1356,3.2064,3.3646,3.6256,3.6859,3.7135,3.7135,3.7185,3.721,0.0,0.0,0.0,0.0,0.0,0.0,0.0,0.0,0.0,0.0,4.0469,4.1177,4.2195,4.2338,0.0,0.0,0.0,0.0,0.0,0.0,0.0,0.0,4.6091,4.633,4.7108,5.069,5.4131,5.791,6.3282,6.5563,6.8067,7.497,7.5779,7.6206,8.1254,8.2983,8.349,8.3422,8.3355,8.3084,8.2441,8.1697,8.1215,8.1283,8.0682,8.0209,8.0276,8.0242,8.0209,8.0209,8.0209,8.0209,8.0209,8.0209,8.0209,8.0209,8.0209,8.0209,8.0209,8.0209,8.0209,8.0209,8.0209,8.0209,8.0209,8.0209,8.0209,8.0209,8.0209,8.0209,8.0209,8.0209,8.0209,8.0209,8.0209,8.0209,8.0209,8.0209,8.0209,8.0234,8.0301,8.0351,8.0376,8.0467,8.1174,8.206,0.0,0.0,0.0,0.0,0.0,0.0,2.9804,2.9804,2.9804,2.9804,2.9804,2.9804,2.9804,2.9804,0.0,2.9804,2.9804,2.9804,2.9804,2.9804,3.0281,3.1356,3.3169,3.4653,3.5682,3.6281,3.6557,3.6557,3.6984,3.721,0.0,0.0,0.0,0.0,0.0,0.0,0.0,0.0,0.0,0.0,0.0,3.9757,4.0591,4.191,4.2769,0.0,0.0,0.0,0.0,0.0,0.0,0.0,4.6091,4.6659,4.7228,4.8117,5.1439,5.5542,5.8833,6.3797,6.914,7.3894,7.7874,8.0933,8.2119,8.2983,8.3321,8.278,8.2171,8.1723,8.1562,8.0919,8.0615,8.1215,8.0682,8.0412,8.0953,8.0547,8.0209,8.0209,8.0209,8.0209,8.0209,8.0209,8.0209,8.0209,8.0209,8.0209,8.0209,8.0209,8.0209,8.0209,8.0209,8.0209,8.0209,8.0209,8.0209,0.0,8.0209,8.0209,8.0209,8.0209,8.0209,8.0209,8.0209,8.0209,8.0209,8.0209,8.0209,8.0276,8.1198,8.1511,8.1629,8.2527,8.3038,8.322,0.0,0.0,0.0,0.0,0.0,0.0,0.0,0.0,3.0179,2.914,2.9443,2.9804,2.9804,2.9804,0.0,0.0,2.9804,2.9804,2.9804,2.9804,3.0507,3.2135,3.3822,3.5079,3.5906,3.623,3.6405,3.6405,3.6683,3.7269,0.0,0.0,0.0,0.0,0.0,0.0,0.0,0.0,0.0,0.0,0.0,0.0,4.0786,4.1952,4.2769,4.3379,4.4057,0.0,0.0,0.0,0.0,0.0,0.0,0.0,4.7608,4.9194,5.131,5.4621,6.1374,6.5812,7.0092,7.668,8.0352,8.2584,8.3295,8.3219,8.2881,8.2475,8.1799,8.1215,8.0818,8.0445,8.031,8.0716,8.0445,8.031,8.0716,8.0445,8.0209,8.0209,8.0209,8.0209,8.0209,8.0209,8.0209,8.0209,8.0209,8.0209,8.0209,8.0209,8.0209,8.0209,8.0209,8.0209,8.0209,8.0209,8.0209,8.0209,8.0209,8.0209,8.0209,8.0209,8.0492,8.099,8.0417,8.0829,8.177,8.1246,8.1342,8.1886,8.2459,8.2706,8.2795,8.3372,8.3958,8.4411,0.0,0.0,0.0,0.0,0.0,0.0,0.0,0.0,0.0,2.8343,2.9086,2.9804,2.9804,2.9804,2.9804,0.0,0.0,0.0,2.9804,2.9955,3.0934,3.2864,3.3997,3.5052,3.608,3.6205,3.623,3.623,3.6331,0.0,0.0,0.0,0.0,0.0,0.0,0.0,0.0,0.0,0.0,0.0,0.0,0.0,0.0,0.0,0.0,4.3379,4.4057,4.4296,4.4506,4.5852,0.0,0.0,0.0,0.0,4.7848,5.0571,5.1774,5.4352,6.4144,6.8185,7.1721,8.0258,8.2408,8.2754,8.4106,8.3287,8.2205,8.2205,8.1629,8.0919,8.031,8.0209,8.0209,8.0209,8.0209,8.0209,8.0209,8.0209,8.0209,8.0209,8.0209,8.0209,8.0209,8.0209,8.0209,8.0209,8.0209,8.0209,8.0209,8.0209,8.0209,8.0209,8.0209,8.0209,8.0209,8.0209,8.0209,8.0209,8.0209,8.0209,8.0209,8.0426,8.1014,8.1852,8.1101,8.1863,8.3536,8.2571,8.275,8.3642,8.3832,8.3881,8.3937,8.4124,8.4773,8.5582,0.0,0.0,0.0,0.0,0.0,0.0,0.0,0.0,0.0,0.0,2.9086,2.9804,2.9804,2.9804,2.9804,2.9804,2.9804,2.9804,2.9804,0.0,0.0,3.229,3.342,3.4299,3.4904,3.538,3.5631,3.5631,3.6155,0.0,0.0,0.0,0.0,0.0,0.0,0.0,0.0,0.0,0.0,0.0,0.0,0.0,0.0,0.0,0.0,4.3379,4.4057,4.4296,4.4506,4.5852,4.63,0.0,0.0,0.0,4.7399,4.7818,5.0379,5.391,5.7965,6.6509,7.5596,8.1034,8.2408,8.2644,8.3456,8.2509,8.1452,8.1452,8.0851,8.031,8.0209,8.0209,8.0209,8.0209,8.0209,8.0209,8.0209,8.0209,8.0209,8.0209,8.0209,8.0209,8.0209,8.0209,8.0209,8.0209,8.0209,8.0209,8.0209,8.0209,8.0209,8.0209,8.0209,8.0209,8.0209,8.0209,8.0209,8.0209,8.0209,8.0209,8.0225,8.1246,8.177,8.1945,8.2773,8.3342,8.36,8.345,8.3436,8.3706,8.4693,8.5084,8.5182,8.6192,8.6661,8.6767,0.0,0.0,0.0,0.0,0.0,0.0,0.0,0.0,0.0,0.0,0.0,2.9804,2.9804,2.9804,2.9804,2.9804,2.9804,2.9804,2.9804,3.0532,3.1336,3.2144,3.2993,3.3847,3.4678,3.4929,3.5182,3.5508,3.5757,0.0,0.0,4.0897,4.2247,0.0,0.0,0.0,0.0,0.0,0.0,0.0,0.0,4.1897,0.0,0.0,0.0,4.6496,4.51,4.4225,4.4018,4.59,4.6171,4.5933,4.698,0.0,0.0,0.0,4.8805,5.2076,5.9554,6.7639,7.5329,8.1,8.2103,8.2069,8.3219,8.234,8.1317,8.1317,8.0716,8.0209,8.0209,8.0209,8.0209,8.0209,8.0209,8.0209,8.0209,8.0209,8.0209,8.0209,8.0209,8.0209,8.0209,8.0209,8.0209,8.0209,8.0209,8.0209,8.0209,8.0209,8.0209,8.0209,8.0209,8.0209,8.0209,8.0209,8.0746,8.1815,8.1801,8.2118,8.2801,8.3497,8.3457,8.2883,8.3372,8.433,8.5449,8.4828,8.4947,8.5544,8.6064,8.6265,8.632,8.6838,8.6978,8.6978,0.0,0.0,0.0,0.0,0.0,0.0,0.0,0.0,0.0,0.0,0.0,2.9804,2.9804,0.0,0.0,0.0,2.9804,2.9804,2.9804,3.0306,3.1014,3.1964,3.2541,3.3319,3.4251,3.4427,3.4703,3.5082,0.0,0.0,3.9729,4.0819,4.2775,0.0,4.4618,0.0,0.0,0.0,0.0,0.0,4.2147,4.4856,0.0,0.0,0.0,0.0,4.7129,4.5566,4.5198,4.6031,4.5971,4.5753,4.695,4.7309,0.0,0.0,0.0,5.0387,6.0018,6.6161,7.158,7.8755,8.0407,8.0822,8.2998,8.234,8.1317,8.1317,8.0716,8.0209,8.0209,8.0209,8.0209,8.0209,8.0209,8.0209,8.0209,8.0209,8.0209,8.0209,8.0209,8.0209,8.0209,8.0209,8.0209,8.0209,8.0378,8.0412,8.0209,8.0378,8.0378,8.0209,8.0209,8.0209,8.0209,8.0696,8.1898,8.3833,8.3578,8.3952,8.4804,8.5151,8.4832,8.4062,8.435,8.5429,8.6925,8.6083,8.6356,8.7325,8.7325,8.7325,8.7325,8.7325,8.7161,8.6978,0.0,0.0,0.0,0.0,0.0,0.0,0.0,0.0,0.0,0.0,0.0,2.9804,2.9804,2.9804,2.9804,2.9804,2.9804,2.9804,2.9804,3.0306,3.0859,3.1432,3.1964,0.0,3.3165,3.3671,3.3947,0.0,0.0,0.0,3.917,3.9723,4.1945,4.5405,4.5929,4.4858,4.2643,0.0,0.0,0.0,0.0,4.6375,0.0,0.0,5.3696,5.4396,0.0,0.0,4.9381,4.6385,4.5765,4.636,4.71,0.0,0.0,0.0,0.0,0.0,5.5353,5.9041,6.3567,7.3171,7.6494,7.8464,8.2578,8.234,8.1317,8.1317,8.0716,8.0209,8.0209,8.0209,8.0209,8.0209,8.0209,8.0209,8.0209,8.0209,8.0209,8.0209,8.0209,8.0209,8.0209,8.0209,8.0209,8.0209,8.0851,8.0945,8.0242,8.0851,8.0919,8.0209,8.0209,8.0209,8.0209,8.2005,8.3937,8.5829,8.5086,8.4754,8.4804,8.5151,8.5259,8.5259,8.6338,8.6891,8.7014,8.6925,8.7383,8.8133,8.8133,8.8133,8.8133,8.8133,8.7655,8.6978,0.0,0.0,0.0,0.0,0.0,0.0,0.0,0.0,0.0,0.0,0.0,0.0,0.0,0.0,0.0,2.9804,2.9804,2.9804,2.9804,2.998,3.0482,3.1381,3.1587,3.2114,3.309,3.3291,0.0,0.0,0.0,3.5987,3.7903,3.9278,4.1007,4.3023,4.4457,4.5048,4.4989,4.4541,0.0,0.0,0.0,0.0,0.0,0.0,5.5533,5.8967,0.0,0.0,0.0,5.0529,0.0,0.0,0.0,0.0,0.0,0.0,4.7758,4.9416,5.4476,5.7214,6.0398,6.7929,7.2535,7.5691,7.7666,7.9784,8.1181,8.0682,8.0378,8.0209,8.0209,8.0209,8.0209,8.0209,8.0209,8.0209,8.0209,8.0209,8.0209,8.0209,8.0209,8.0209,8.0209,8.0209,8.0209,8.0209,8.0445,8.0682,8.0885,8.0716,8.0682,8.0885,8.0445,8.0805,8.2064,8.3693,8.562,8.7839,8.7008,8.6993,8.7729,8.6812,8.6374,8.6392,8.6802,8.6978,8.7014,8.7582,8.7655,8.7472,8.7986,8.7876,8.7435,8.7435,8.7252,8.6978,0.0,0.0,0.0,0.0,0.0,0.0,0.0,0.0,0.0,0.0,0.0,0.0,0.0,0.0,0.0,0.0,3.008,3.0131,3.0326,3.0331,3.0733,3.1637,3.1662,3.2114,3.309,3.309,0.0,0.0,0.0,0.0,0.0,3.8069,3.9649,4.1399,4.2645,4.3993,0.0,0.0,0.0,4.4274,0.0,0.0,5.4016,0.0,5.7902,6.0341,0.0,0.0,0.0,0.0,0.0,0.0,0.0,0.0,0.0,0.0,0.0,4.8711,5.2139,5.4051,5.6606,6.3104,6.7332,7.0931,7.4886,7.7784,7.9768,8.0437,8.0547,8.0479,8.0242,8.0209,8.0209,8.0209,8.0209,8.0209,8.0209,8.0209,8.0209,8.0209,8.0209,8.0209,8.0209,8.0209,8.0209,8.0209,8.0412,0.0,8.0919,8.0682,8.0978,8.1896,8.1657,8.2673,8.5026,8.6024,8.7656,8.9877,8.873,8.8615,8.9363,8.7711,8.6978,8.6978,8.6978,8.6978,8.7014,8.7582,8.7802,8.7858,8.8372,8.8262,8.7822,8.7822,8.7455,8.6978,0.0,0.0,0.0,0.0,0.0,0.0,0.0,0.0,0.0,0.0,0.0,0.0,0.0,0.0,0.0,0.0,3.0638,3.0839,3.1381,3.1406,3.1637,3.219,3.2194,3.2491,3.3115,0.0,0.0,0.0,0.0,0.0,0.0,0.0,3.7957,0.0,4.0746,4.174,4.3425,0.0,4.4429,4.5094,0.0,5.4281,5.2264,0.0,6.1164,0.0,6.013,6.097,0.0,0.0,0.0,0.0,0.0,0.0,0.0,0.0,0.0,0.0,0.0,0.0,0.0,5.857,6.0896,6.4191,7.436,7.6345,7.7026,8.0419,8.1156,8.1012,8.031,8.0209,8.0209,8.0209,8.0209,8.0209,8.0209,8.0209,8.0209,8.0209,8.0209,8.0209,8.0209,8.0209,8.0209,8.0209,8.0851,8.0953,8.0276,8.097,8.193,8.3111,8.3876,8.5777,8.8875,8.8931,8.9914,9.1767,9.017,8.94,8.9363,8.7711,8.6978,8.6978,8.6978,8.6978,8.6978,8.7014,8.7932,8.9326,8.9363,8.9363,8.9326,8.9363,8.8372,8.6978,0.0,0.0,0.0,0.0,0.0,2.9332,2.9332,2.9332,0.0,0.0,0.0,0.0,0.0,0.0,0.0,0.0,3.1763,3.1662,3.1432,3.1406,3.1637,3.219,3.2194,3.2667,3.3646,0.0,0.0,0.0,0.0,0.0,0.0,0.0,0.0,0.0,3.9217,3.9697,4.0372,4.3706,0.0,0.0,5.3006,5.6209,0.0,0.0,0.0,0.0,0.0,6.4309,0.0,0.0,6.3099,5.6359,0.0,0.0,0.0,0.0,0.0,0.0,4.7519,0.0,0.0,0.0,0.0,0.0,6.3641,6.8893,7.3575,7.5546,7.7522,7.9185,8.004,8.0209,8.0209,8.0209,8.0209,8.0209,8.0209,8.0209,8.0209,8.0209,8.0209,8.0209,8.0209,8.0209,8.0209,0.0,8.0378,8.0648,8.0978,8.252,8.3538,8.3898,8.5448,8.7149,8.8875,8.9433,9.0419,9.1767,9.017,8.94,8.9363,8.7711,8.6978,8.6978,8.6978,8.6978,8.7051,8.7619,8.7802,8.7785,8.8959,8.8702,8.7711,8.8316,8.7876,8.6978,0.0,0.0,3.067,3.079,3.1013,3.118,3.118,3.118,3.1466,0.0,0.0,0.0,0.0,0.0,0.0,0.0,3.2842,3.2541,3.2441,3.2215,3.2261,3.2566,3.2566,3.2993,3.3872,0.0,0.0,0.0,0.0,0.0,0.0,0.0,0.0,0.0,0.0,3.8968,3.9892,0.0,0.0,0.0,5.3364,0.0,0.0,6.35,6.6536,0.0,0.0,0.0,6.7016,7.2646,6.7987,0.0,0.0,0.0,0.0,0.0,0.0,0.0,0.0,0.0,0.0,0.0,0.0,0.0,6.213,6.7138,7.1993,7.6907,7.917,8.0445,8.1021,8.1122,8.1122,8.1122,8.1122,8.0919,8.0276,8.0209,8.0376,8.0844,8.0492,8.0401,8.0844,8.0467,8.0209,8.0209,8.0209,8.0732,8.1977,8.3888,8.5282,8.6104,8.7542,8.8896,9.0102,9.0536,9.1116,9.1767,9.017,8.9583,8.984,8.7895,8.7161,8.7472,8.7124,8.6978,8.7014,8.7509,8.7619,8.7655,8.8886,8.8849,8.8042,8.8519,8.8206,8.7472,0.0,0.0,3.0574,3.2201,3.2968,3.3391,3.3467,3.3416,3.3567,0.0,0.0,0.0,0.0,0.0,0.0,0.0,0.0,3.3517,3.3872,3.3467,3.3165,3.309,3.3165,3.3442,3.3972,3.3997,0.0,0.0,0.0,0.0,0.0,0.0,0.0,0.0,3.7835,3.9077,4.0786,4.2121,0.0,4.615,5.3794,5.6627,0.0,0.0,6.7856,0.0,7.2415,7.3433,7.2829,7.8161,7.4683,0.0,0.0,0.0,0.0,0.0,4.8999,0.0,0.0,0.0,0.0,0.0,0.0,0.0,6.4338,6.7271,7.0225,7.9165,8.1371,8.1568,8.113,8.119,8.1257,8.1164,8.1596,8.1562,8.0479,8.0378,8.0761,8.1616,8.0897,8.0684,8.1605,8.0804,8.0209,8.0209,8.0326,8.1268,8.3276,8.5092,8.7001,8.8963,8.9786,9.0716,9.1803,9.1803,9.1803,9.1767,9.0244,8.9913,9.0519,8.8189,8.7509,8.8169,8.7344,8.6978,8.7014,8.7088,8.7545,8.828,8.9069,8.9363,8.929,8.9363,8.8812,8.7949,3.1997,3.2575,3.3308,3.4081,3.4678,3.5205,3.568,3.533,3.523,0.0,0.0,0.0,0.0,0.0,0.0,0.0,0.0,0.0,3.3947,3.3796,3.3567,3.3115,3.3495,3.3997,3.4527,3.4527,3.4803,0.0,0.0,0.0,0.0,0.0,0.0,0.0,3.8267,3.9244,4.0177,4.184,0.0,5.1779,5.392,0.0,6.3127,6.702,7.0928,7.4591,7.6507,7.5456,7.3075,0.0,7.176,7.0488,0.0,0.0,0.0,0.0,0.0,0.0,0.0,0.0,0.0,0.0,0.0,0.0,0.0,5.7184,6.1269,6.476,6.8116,7.0894,7.2325,7.3544,7.4153,7.3555,7.6487,7.9363,8.0877,8.1596,8.163,8.0628,8.086,8.0919,8.0585,8.0326,8.0209,8.0209,8.1029,8.2674,8.5243,8.6621,8.8093,8.9717,9.0873,9.1583,9.1803,9.1803,9.1803,9.1803,9.0849,9.0427,9.0555,8.8757,8.8059,8.8169,8.7344,8.6978,8.7051,8.7692,8.8059,8.828,8.9069,8.8996,8.85,8.9143,8.8482,8.7198,3.2936,3.3234,3.3871,3.5286,3.6006,3.6558,3.7111,3.6936,3.686,0.0,0.0,0.0,0.0,0.0,0.0,0.0,0.0,0.0,3.52,3.4876,3.4452,3.3922,3.4173,3.4552,3.5104,3.5104,3.538,3.5956,0.0,0.0,0.0,0.0,0.0,0.0,0.0,0.0,4.5111,0.0,4.6562,5.165,5.5704,0.0,6.7915,7.24,7.5894,7.8474,7.9274,7.8451,7.6551,7.4331,7.235,0.0,0.0,6.5026,6.2945,0.0,5.5786,5.7141,0.0,0.0,0.0,5.0504,0.0,0.0,0.0,0.0,6.0615,6.479,6.6989,6.8596,6.9938,7.0804,7.1413,7.1785,7.5303,7.7976,7.7942,8.0513,8.2199,8.165,8.1766,8.1783,8.1606,8.1086,8.0825,8.1014,8.2639,8.4513,8.6683,8.7913,8.9269,9.0834,9.1472,9.1803,9.1803,9.1803,9.1803,9.1803,9.0996,9.0812,9.1143,8.9528,8.8776,8.8739,8.7949,8.7619,8.7619,8.8023,8.8683,8.9454,8.984,8.973,8.9417,8.94,8.8886,8.8078,3.3873,3.3707,3.4068,3.6189,3.7009,3.7563,3.8241,3.8241,3.8165,0.0,0.0,0.0,0.0,0.0,0.0,0.0,0.0,0.0,0.0,3.7437,3.6877,3.6202,3.5317,3.5355,3.6436,3.5958,3.5906,3.6405,0.0,0.0,0.0,0.0,0.0,0.0,0.0,0.0,0.0,0.0,0.0,5.2863,0.0,6.3992,6.8939,7.5381,7.825,7.9083,8.0557,8.0716,7.9938,7.8314,0.0,6.9853,7.0896,6.8946,0.0,0.0,0.0,0.0,0.0,0.0,0.0,0.0,0.0,5.3732,0.0,0.0,0.0,0.0,6.692,6.6849,6.7671,6.7929,6.847,6.9823,7.3308,7.5134,7.3172,7.7266,0.0,8.1106,8.2017,8.2446,8.2094,8.096,8.078,8.2129,8.3253,8.504,8.7648,8.8819,9.006,9.151,9.173,9.1803,9.1803,9.1803,9.1803,9.1803,9.1143,9.1179,9.173,9.028,8.962,8.9583,8.8793,8.8426,8.8426,8.861,8.9417,9.0592,9.0592,9.0592,9.0519,8.9877,8.9436,8.8959,3.468,3.494,3.5594,3.691,3.7538,3.8266,3.9346,3.912,3.8793,0.0,0.0,0.0,0.0,0.0,0.0,0.0,0.0,0.0,4.3598,0.0,4.2708,4.1578,3.7607,3.6836,3.9872,3.7538,3.6331,3.6405,3.6405,0.0,0.0,0.0,0.0,0.0,4.5408,0.0,0.0,0.0,5.5978,0.0,6.3317,6.2299,0.0,6.7638,7.1966,7.5277,7.9011,8.0276,7.987,0.0,7.5838,7.32,0.0,6.9247,0.0,0.0,0.0,0.0,0.0,0.0,0.0,0.0,5.5408,0.0,0.0,0.0,0.0,5.6705,0.0,0.0,0.0,0.0,0.0,0.0,0.0,0.0,6.6846,7.0635,7.3817,7.4498,7.9768,8.2087,7.8874,7.7227,7.829,8.3066,8.0562,8.1547,8.783,8.8943,8.9803,9.0702,9.1436,9.1803,9.1803,9.1803,9.1803,9.1803,9.1693,9.1693,9.1767,9.0886,9.0482,9.0427,8.962,8.9253,8.9326,9.0024,9.0445,9.0592,9.0592,9.0592,9.0592,9.0501,8.9564,8.8316,3.5207,3.5882,3.6734,3.7538,3.814,3.8793,3.9572,3.9772,3.9948,0.0,0.0,0.0,0.0,0.0,0.0,0.0,0.0,5.0133,0.0,0.0,0.0,4.2171,3.8465,3.7471,3.9655,3.7518,3.6405,3.6405,3.7057,3.7485,0.0,0.0,0.0,0.0,4.8808,0.0,5.6149,0.0,5.9364,0.0,0.0,0.0,0.0,7.1441,7.6298,7.7867,7.9584,8.0209,8.0073,0.0,7.5981,0.0,0.0,0.0,0.0,0.0,0.0,0.0,0.0,0.0,0.0,0.0,0.0,0.0,5.6756,0.0,5.5681,0.0,0.0,0.0,0.0,0.0,0.0,0.0,0.0,0.0,0.0,0.0,7.1075,7.2665,0.0,0.0,7.7967,0.0,0.0,0.0,8.302,8.3918,8.863,8.9216,8.9546,8.9877,9.1143,9.1583,9.1106,9.1583,9.1803,9.1803,9.1803,9.1803,9.1803,9.1436,9.1033,9.0592,9.0244,9.0097,9.0097,9.0482,9.0886,9.1289,9.1289,9.1289,9.1253,9.0776,9.0188,8.9454,3.5932,0.0,3.7386,3.7914,3.8517,3.9095,3.9622,4.0174,4.0834,0.0,0.0,0.0,4.6675,4.7973,0.0,0.0,0.0,5.4742,0.0,0.0,4.884,4.7216,4.1232,0.0,0.0,3.9092,3.7288,3.7614,3.7936,3.8345,0.0,0.0,0.0,0.0,0.0,5.5406,6.0752,0.0,6.2545,6.371,6.5295,6.5778,6.6532,7.4995,7.907,8.0209,8.0209,8.0209,8.0107,7.9498,7.5813,0.0,7.7548,0.0,0.0,0.0,0.0,0.0,6.0283,0.0,0.0,0.0,0.0,0.0,0.0,0.0,0.0,0.0,0.0,0.0,0.0,0.0,0.0,0.0,0.0,0.0,0.0,0.0,0.0,0.0,0.0,0.0,0.0,0.0,0.0,0.0,0.0,8.4479,8.8849,8.9473,8.962,8.94,9.0959,9.151,9.0922,9.151,9.1803,9.1803,9.1803,9.1803,9.1803,9.1803,9.1473,9.0922,9.0922,9.0922,9.0922,9.0922,9.1253,9.1803,9.1803,9.1803,9.173,9.1143,9.0812,9.0445,3.706,3.7185,3.7386,3.7914,3.8517,3.9095,3.9622,4.0174,0.0,0.0,0.0,0.0,0.0,0.0,0.0,0.0,0.0,6.7819,6.2021,0.0,5.6187,0.0,0.0,4.3723,0.0,4.3554,3.9547,4.0647,3.8939,3.8984,4.0736,0.0,0.0,0.0,5.1302,5.4855,5.6424,6.1286,6.6658,7.19,7.1778,7.487,7.9095,0.0,7.6124,8.0209,8.0209,0.0,0.0,7.7739,7.5578,0.0,0.0,0.0,0.0,0.0,0.0,0.0,0.0,0.0,0.0,5.9807,0.0,0.0,0.0,0.0,5.8693,0.0,0.0,0.0,0.0,0.0,0.0,0.0,0.0,0.0,0.0,0.0,0.0,0.0,0.0,0.0,0.0,0.0,0.0,0.0,0.0,0.0,8.7841,8.9711,9.0207,8.9436,9.0959,9.1803,9.1767,9.1803,9.1803,9.1803,9.1803,9.1803,9.1803,9.1803,9.1803,9.1767,9.1767,9.1767,9.1767,9.1767,9.1767,9.1803,9.1803,9.1803,9.1803,9.1767,9.1253,9.0592,0.0,0.0,3.8391,3.8567,3.907,3.9597,4.0149,4.1772,0.0,0.0,0.0,0.0,0.0,6.0378,6.2165,0.0,0.0,6.7709,6.3218,6.0421,0.0,0.0,0.0,4.6265,0.0,0.0,4.1508,4.1462,4.1647,4.205,4.2693,4.4309,0.0,0.0,0.0,5.6873,0.0,0.0,0.0,0.0,0.0,7.4917,7.6765,0.0,0.0,8.0209,8.0209,8.0209,0.0,7.9329,7.7662,7.6086,7.7321,7.565,7.3395,7.3703,7.3389,0.0,0.0,0.0,7.2593,6.5072,0.0,0.0,0.0,0.0,0.0,0.0,0.0,0.0,0.0,0.0,0.0,0.0,0.0,0.0,0.0,0.0,0.0,0.0,0.0,0.0,0.0,0.0,0.0,0.0,0.0,0.0,0.0,8.9803,8.9693,8.94,8.9913,9.0207,9.0207,9.0207,9.0464,9.1033,9.1033,9.1289,9.1803,9.1803,9.1803,9.1803,9.1803,9.1803,9.1803,9.1803,9.1803,9.1803,9.1803,9.1803,9.1803,9.1803,9.162,9.1326,3.8316,3.8642,3.8894,3.8894,3.9931,4.0927,4.1516,0.0,0.0,0.0,5.32,0.0,6.1787,0.0,6.443,0.0,6.8697,6.8857,6.5209,6.3444,0.0,6.3529,5.5134,0.0,0.0,0.0,4.6111,4.5836,4.4589,4.4146,4.4586,4.5743,4.642,0.0,0.0,5.6669,6.2422,6.7149,7.1402,0.0,0.0,7.6824,0.0,0.0,7.9415,7.8471,0.0,8.0209,8.0209,8.0209,7.9261,7.8416,8.031,7.8247,7.5574,7.7502,7.6555,7.4559,7.324,7.5202,0.0,6.9033,6.9316,0.0,6.2922,0.0,0.0,0.0,0.0,0.0,0.0,0.0,0.0,0.0,0.0,0.0,0.0,0.0,0.0,0.0,0.0,0.0,0.0,0.0,0.0,0.0,0.0,0.0,0.0,0.0,8.984,8.984,8.9546,8.9546,8.9803,8.9546,8.9803,9.0592,9.0592,9.1033,9.1803,9.1803,9.1803,9.1803,9.1803,9.1803,9.1803,9.1803,9.1803,9.1803,9.1803,9.1803,9.1803,9.1803,9.1803,9.173,3.8969,3.8994,3.9019,3.9044,4.1051,4.2877,0.0,0.0,5.1111,0.0,5.8175,6.094,6.5054,6.7777,6.9303,6.9303,7.1577,7.1667,6.8556,6.6448,0.0,0.0,6.2616,6.1821,6.6969,0.0,0.0,0.0,4.7633,4.5391,4.639,4.636,4.6719,4.7429,4.9351,5.4392,6.1658,6.5219,7.1076,7.819,7.9699,8.0623,8.1037,8.0488,7.8118,7.5455,7.896,8.0209,8.0242,8.0209,8.0209,8.0209,8.0209,8.0209,8.0209,8.0209,8.0682,8.0471,7.6893,7.6521,7.6048,7.1582,0.0,0.0,0.0,0.0,6.8132,0.0,0.0,0.0,0.0,0.0,0.0,0.0,0.0,0.0,0.0,0.0,0.0,0.0,0.0,0.0,0.0,0.0,0.0,0.0,0.0,0.0,0.0,0.0,9.0136,9.0411,8.955,8.9549,9.0447,8.9622,8.9658,9.0555,9.0519,9.0922,9.173,9.173,9.1767,9.1803,9.1803,9.1803,9.1803,9.1803,9.1803,9.1803,9.1803,9.1803,9.1803,9.1803,9.1803,9.1803,4.0099,4.0399,4.0827,0.0,4.2371,4.3674,0.0,0.0,0.0,0.0,6.3055,6.6803,7.1804,7.2954,7.3406,7.3406,7.3971,0.0,0.0,0.0,0.0,7.2984,6.6484,6.4338,6.7688,5.9957,0.0,5.4695,0.0,4.7993,4.7788,4.7279,4.7399,4.8087,4.9561,5.4635,6.2345,6.5386,7.2014,8.0524,8.1467,8.0405,7.8515,0.0,7.966,7.6933,7.933,8.0547,8.0919,8.0378,8.0209,8.0209,8.0209,8.0209,8.0209,8.0209,8.031,8.0276,7.9295,7.96,7.9194,7.527,7.4424,7.3747,0.0,0.0,0.0,0.0,0.0,0.0,0.0,0.0,0.0,0.0,0.0,0.0,0.0,0.0,0.0,0.0,0.0,0.0,0.0,0.0,0.0,0.0,0.0,0.0,0.0,0.0,0.0,8.7876,8.6102,8.6165,8.8416,8.7055,8.7467,8.9693,8.9124,8.9564,9.0922,9.0922,9.1216,9.1803,9.1803,9.1803,9.1803,9.1803,9.1803,9.1803,9.1803,9.1803,9.1803,9.1803,9.1803,9.1803,4.1363,0.0,0.0,4.3137,0.0,0.0,4.9247,5.2517,0.0,6.2967,6.5621,0.0,7.2707,7.4214,7.4903,7.4903,7.4599,0.0,7.2415,0.0,0.0,7.2295,7.0021,6.9453,7.0981,6.5263,0.0,5.8201,0.0,5.0654,4.8289,4.7908,4.7938,4.8379,5.0219,5.4811,6.1571,6.8007,7.4123,7.96,8.1626,8.141,0.0,8.1802,8.1578,8.0474,8.0992,8.1426,8.1663,8.0919,8.0885,8.1122,8.0784,8.0885,8.1156,8.1156,8.0919,8.0682,8.0682,8.075,8.031,7.8213,7.7908,7.7367,7.4424,7.4086,7.4559,0.0,0.0,0.0,0.0,0.0,0.0,0.0,0.0,0.0,0.0,0.0,0.0,0.0,0.0,0.0,0.0,0.0,0.0,0.0,0.0,0.0,0.0,0.0,0.0,8.5535,8.51,8.5744,8.7664,8.6604,8.7158,8.94,8.8573,8.8867,9.0097,9.0427,9.0849,9.1289,9.1657,9.1803,9.1803,9.1803,9.1803,9.1803,9.1803,9.1803,9.1803,9.1803,9.1803,9.1803,4.3167,0.0,0.0,0.0,0.0,0.0,0.0,5.6783,0.0,6.5802,0.0,6.8675,7.1038,7.3283,7.4663,7.4663,0.0,7.2565,6.9692,7.2176,7.2505,6.9632,7.2804,7.4796,7.5094,7.1275,0.0,0.0,0.0,0.0,4.8438,4.8259,4.8259,4.8558,5.099,5.5291,6.1397,7.1738,7.6835,7.8113,8.1357,8.3084,8.3558,8.2949,8.3464,8.4411,8.305,8.2543,8.2441,8.1697,8.1866,8.2306,8.1629,8.1866,8.2408,8.2408,8.1934,8.1393,8.1351,8.0818,8.031,8.0209,8.0682,8.0505,7.8044,7.7468,7.7874,7.9261,7.6521,7.6048,0.0,0.0,0.0,0.0,0.0,0.0,0.0,0.0,0.0,0.0,0.0,0.0,0.0,0.0,0.0,0.0,0.0,0.0,0.0,0.0,0.0,8.3712,8.5314,8.6549,8.7519,0.0,8.7826,8.9216,8.8536,8.861,8.9436,9.0097,9.0537,9.0812,9.151,9.1803,9.1803,9.1803,9.1803,9.1803,9.1803,9.1803,9.1803,9.1803,9.1803,9.1803,4.678,0.0,0.0,0.0,0.0,5.807,5.9119,6.2185,6.5555,6.8786,7.0737,7.2265,7.3253,7.3313,7.3253,7.3253,7.3163,0.0,0.0,0.0,0.0,7.2265,7.2894,7.4133,7.6001,7.2707,6.8967,0.0,0.0,0.0,4.9097,4.7967,4.8079,4.9187,5.069,5.727,6.7618,7.4189,0.0,8.2491,8.3689,8.4275,8.4377,8.4242,8.4377,8.4478,8.3625,8.3321,8.3186,8.2475,8.2306,8.2408,8.2272,8.2306,8.2408,8.2408,8.2306,8.2069,8.146,8.1215,8.0953,8.0344,8.031,8.0412,8.0505,8.0538,8.0784,8.1663,8.1697,8.0919,7.8822,0.0,0.0,0.0,0.0,0.0,0.0,0.0,0.0,0.0,0.0,0.0,0.0,0.0,0.0,0.0,0.0,0.0,0.0,0.0,0.0,0.0,8.4391,0.0,0.0,0.0,8.7866,8.8426,8.828,8.861,8.94,8.9546,9.0317,9.1583,9.173,9.1803,9.1803,9.1803,9.1803,9.1803,9.1803,9.1803,9.1803,9.1803,9.1803,9.1803,0.0,0.0,0.0,0.0,0.0,0.0,0.0,6.7516,7.0025,6.9955,7.0769,7.1607,7.2265,7.3283,7.3941,7.3941,7.3612,7.3432,7.3432,7.3432,7.3283,7.2924,7.3993,0.0,7.5708,7.5364,7.1963,6.5463,0.0,0.0,4.9786,4.9347,4.9213,4.9501,5.4402,6.0845,6.846,0.0,0.0,8.1478,8.3698,8.4614,8.4614,8.4614,8.4614,8.4546,8.42,8.4065,8.3896,8.278,8.2889,8.3464,8.3084,8.3253,8.3531,8.3531,8.3287,8.2881,8.2543,8.2137,8.1799,8.1426,8.1054,8.0953,8.1697,8.1257,8.1054,8.2171,8.2374,8.1224,7.757,7.3544,0.0,0.0,0.0,0.0,0.0,0.0,0.0,0.0,0.0,0.0,0.0,0.0,0.0,0.0,0.0,0.0,0.0,0.0,0.0,0.0,0.0,0.0,0.0,0.0,0.0,8.8812,8.839,8.839,8.8776,8.9216,9.006,9.1216,9.162,9.1803,9.1803,9.1803,9.1803,9.1803,9.1803,9.1803,9.1803,9.1803,9.1803,9.1803,0.0,5.2749,0.0,0.0,6.0842,6.5037,6.7327,7.1369,7.3373,7.131,7.0739,7.0767,7.1457,7.3283,7.445,7.445,7.3971,7.3702,7.3702,7.4011,7.3804,7.2924,7.5226,7.6307,7.5745,7.7971,7.5317,0.0,0.0,0.0,0.0,5.155,5.1476,5.2024,5.9225,0.0,0.0,0.0,7.9094,8.0593,8.3463,8.4614,8.4614,8.4614,8.4614,8.458,8.4411,8.4478,8.4411,8.3084,8.3498,8.4512,8.393,8.4031,8.4377,8.4546,8.3998,8.3287,8.3456,8.3123,8.27,8.2459,8.2165,8.2012,8.2324,8.1494,8.0953,8.1968,8.1697,8.0378,7.7435,7.527,0.0,0.0,0.0,0.0,0.0,0.0,0.0,0.0,0.0,0.0,0.0,0.0,0.0,0.0,0.0,0.0,0.0,0.0,0.0,0.0,0.0,8.4207,8.6034,0.0,8.7812,8.9143,8.85,8.828,8.85,8.9106,8.9913,9.0886,9.151,9.1803,9.1803,9.1803,9.1803,9.1803,9.1803,9.1803,9.1803,9.1803,9.1803,9.1803,0.0,0.0,0.0,0.0,0.0,7.0252,6.797,7.1719,7.4723,7.4484,7.3373,7.2894,7.3552,7.3313,7.3103,7.3103,7.3043,7.3013,7.3013,7.4344,7.4475,7.299,7.5963,7.7607,7.7453,7.9744,7.8749,0.0,0.0,0.0,0.0,5.4397,5.5214,5.9704,0.0,0.0,0.0,7.7742,8.0535,8.4116,8.4459,8.4614,8.4614,8.4614,8.4614,8.4512,8.3862,8.4031,8.4478,8.3659,8.393,8.458,8.4512,8.4099,8.3727,8.4411,8.3599,8.2644,8.3321,8.377,8.3762,8.2683,8.318,8.3634,8.2624,8.2306,8.2035,8.1494,8.1351,8.0378,7.7435,7.9904,8.0784,0.0,0.0,0.0,0.0,0.0,0.0,0.0,0.0,0.0,0.0,0.0,0.0,0.0,0.0,0.0,0.0,0.0,0.0,8.0617,0.0,8.1339,8.2556,8.6921,8.8834,8.8316,8.8243,8.8573,8.929,8.9363,9.0244,9.1693,9.1767,9.1803,9.1803,9.1803,9.1803,9.1803,9.1803,9.1803,9.1803,9.1803,9.1803,9.1803,0.0,0.0,0.0,0.0,0.0,0.0,0.0,7.3661,7.4903,7.4903,7.442,7.418,7.445,7.424,7.4091,7.4091,7.4091,7.4091,7.4091,7.5607,7.6041,7.4961,7.8059,7.9602,7.915,8.1393,8.0348,0.0,0.0,0.0,0.0,6.0764,6.2681,6.6948,0.0,7.4609,7.9167,8.1221,8.3335,8.5283,8.4783,8.4614,8.4614,8.4614,8.4614,8.4546,8.4275,8.4343,8.4679,8.5096,8.5144,8.5025,8.5522,8.5324,8.5003,8.5792,8.5607,8.5248,8.5527,8.5568,8.5391,8.4917,8.4282,8.3781,8.3731,8.3024,8.234,8.2035,8.1596,8.1054,8.0344,7.9837,7.987,0.0,0.0,0.0,0.0,0.0,0.0,0.0,0.0,0.0,0.0,0.0,0.0,0.0,0.0,0.0,0.0,0.0,0.0,7.7881,0.0,8.4497,8.4686,8.7129,8.8544,8.8923,8.8426,8.839,8.872,8.9179,9.028,9.1803,9.1803,9.1803,9.1803,9.1803,9.1803,9.1803,9.1803,9.1803,9.1803,9.1803,9.1803,9.1803,6.7848,0.0,6.7643,0.0,7.1419,7.2243,7.503,7.5437,7.5437,7.5437,7.5437,7.5318,7.4963,7.5083,7.5078,7.4933,7.4903,7.5078,7.556,7.7126,7.784,7.734,8.0399,0.0,8.0441,8.2637,8.2008,7.8341,7.6191,0.0,0.0,6.7462,6.9547,0.0,7.6596,7.9637,8.2306,8.4377,8.5621,8.6061,8.5493,8.5155,8.4952,8.4952,8.5015,8.5144,8.5144,8.5369,8.5786,8.6623,8.6627,8.6312,8.6509,8.638,8.6245,8.6564,8.6515,8.6396,8.6599,8.6297,8.5935,8.6037,8.5039,8.4121,8.4517,8.3768,8.2923,8.2509,8.1799,8.1486,8.1968,7.9938,7.9228,8.2449,0.0,0.0,0.0,0.0,0.0,0.0,0.0,0.0,0.0,0.0,0.0,0.0,0.0,0.0,0.0,0.0,0.0,0.0,0.0,0.0,0.0,8.6834,8.8014,8.9033,8.8243,8.7986,8.8243,8.929,9.0501,9.1803,9.1803,9.1803,9.1803,9.1803,9.1803,9.1803,9.1803,9.1803,9.1803,9.1803,9.1803,9.1803,7.1266,7.3176,7.5163,7.6509,7.7257,7.7466,7.6868,7.6779,7.6779,7.6779,7.6779,7.6305,7.5053,7.5497,7.5617,7.4963,7.4903,7.556,7.716,7.8847,7.9773,0.0,0.0,8.3469,8.1139,8.3381,8.4208,8.3396,0.0,0.0,7.6096,7.3915,7.4851,7.8452,8.1137,8.4005,8.6839,8.6873,8.6907,8.6907,8.6907,8.6433,8.5784,8.5784,8.6053,8.639,8.639,8.7116,8.8156,8.8178,8.8428,8.8552,8.7398,8.7033,8.6935,8.6047,8.5369,8.4952,8.5622,8.5312,8.486,8.5164,8.5257,8.5181,8.4694,8.458,8.414,8.2686,8.1799,8.1317,8.1317,8.1283,8.0784,7.9397,0.0,0.0,0.0,0.0,0.0,0.0,0.0,7.4743,8.3124,0.0,0.0,0.0,0.0,0.0,0.0,0.0,0.0,8.3535,8.2001,0.0,8.332,8.5768,8.7418,8.8206,8.7399,8.7435,8.8243,8.9858,9.1033,9.1803,9.1803,9.1803,9.1803,9.1803,9.1803,9.1803,9.1803,9.1803,9.1803,9.1803,9.1803,9.1803,7.5044,7.5687,7.6335,7.6719,7.6958,7.7048,7.6838,7.6779,7.6779,7.6779,7.823,7.893,7.8041,7.7731,7.745,0.0,7.7826,7.8439,0.0,8.0528,8.1447,8.1447,8.3476,8.4231,8.3503,8.4204,8.4478,8.4242,0.0,0.0,0.0,7.9212,8.0632,8.4163,8.4007,8.5019,8.6873,8.6366,8.6738,8.7617,8.711,8.6771,8.6576,8.6919,8.7122,8.725,8.7515,8.7861,8.8313,8.9157,8.9518,8.9597,8.9504,8.9076,8.8604,8.833,8.8095,8.7671,8.6565,8.5932,8.5389,8.4679,8.4274,8.4037,8.39,8.3862,8.3727,8.3253,8.2577,8.2205,8.2712,8.278,8.2813,8.2821,8.3016,0.0,0.0,0.0,0.0,0.0,0.0,8.3006,0.0,8.3682,0.0,0.0,0.0,0.0,0.0,0.0,0.0,0.0,8.5009,0.0,8.584,8.713,8.7949,8.8206,8.7399,8.7711,8.9033,8.9546,9.0519,9.1803,9.1803,9.1803,9.1803,9.1803,9.1803,9.1803,9.1803,9.1803,9.1803,9.1803,9.1803,9.1803,7.7562,7.7562,7.7562,7.7562,7.7562,7.7744,7.8451,7.8525,7.8768,7.9428,8.0817,8.1577,8.1171,8.1028,0.0,7.9758,8.0268,8.0878,8.1483,8.2465,8.328,8.3947,8.493,8.5459,8.5459,8.5459,0.0,8.5459,8.3625,8.305,8.3659,8.349,8.4505,8.6467,8.579,8.6163,8.7279,8.6805,8.7313,8.8361,8.7922,8.7845,8.8062,8.8337,8.867,8.9024,8.9263,8.945,8.9662,9.0404,9.0676,9.072,9.0979,9.0702,9.0097,8.9216,8.8959,8.8507,8.6578,8.5545,8.4895,8.432,8.3631,8.3219,8.3795,8.393,8.3828,8.3558,8.3118,8.2881,8.305,8.3084,8.3253,8.37,8.3152,8.3016,8.4065,0.0,0.0,0.0,0.0,0.0,0.0,8.45,0.0,0.0,0.0,0.0,0.0,0.0,0.0,8.3113,8.7701,0.0,8.7472,8.7655,8.7766,8.7729,8.7234,8.7822,8.94,8.94,9.028,9.1803,9.1803,9.1803,9.1803,9.1803,9.1803,9.1803,9.1803,9.1803,9.1803,9.1803,9.1803,9.1803,7.8908,7.8938,7.8908,7.8878,7.8957,7.9576,8.1169,8.1514,8.2157,8.3802,8.4091,8.4187,8.4187,8.5072,8.4811,8.2665,0.0,0.0,0.0,8.4573,8.5245,8.6825,8.6907,8.6907,8.6907,8.6907,8.6907,8.6907,8.6974,8.6602,8.5892,8.6602,8.6501,8.5851,8.6467,8.7144,8.7854,8.7888,8.8294,8.8965,8.9178,8.9483,8.9895,9.0098,9.0704,9.1455,9.1501,9.1688,9.1877,9.1877,9.184,9.1803,9.1803,9.1767,9.1289,8.9014,8.8264,8.7722,8.5795,8.4421,8.3635,8.3854,8.3189,8.2847,8.4275,8.4614,8.4411,8.3727,8.3592,8.3355,8.2678,8.2577,8.2577,8.2577,8.1934,8.196,8.3389,0.0,0.0,0.0,0.0,0.0,0.0,8.1239,8.4699,0.0,0.0,0.0,0.0,0.0,8.2312,9.0355,8.9803,8.8996,8.8206,8.7472,8.7051,8.6978,8.7051,8.7895,8.94,8.9473,9.0317,9.1803,9.1803,9.1803,9.1803,9.1803,9.1803,9.1803,9.1803,9.1803,9.1803,9.1803,9.1803,9.1803,0.0,0.0,8.0165,7.9656,8.0634,8.1514,8.1436,8.2558,8.3543,8.3963,8.5101,8.5905,8.5905,8.7274,8.8017,8.7467,8.6406,8.5884,8.6281,8.6281,8.6481,8.6879,8.6907,8.6907,8.6907,8.6907,8.6907,8.6907,8.7482,8.7347,8.6636,8.6839,8.6501,8.5784,8.5351,8.5587,8.6332,8.6907,8.7279,8.7598,8.9724,9.0287,9.0098,9.1983,9.2855,9.3106,9.3448,9.3268,9.2794,9.2794,9.2354,9.1803,9.1803,9.1363,9.0776,9.0188,8.8983,8.7403,8.5457,8.4036,8.2963,8.2166,8.2606,8.349,8.4377,8.4614,8.4546,8.4377,8.4343,8.4275,8.4106,8.4072,8.4072,8.4072,8.3456,8.3287,8.4208,8.3862,0.0,0.0,8.4038,8.4758,8.6245,8.8362,8.8266,0.0,0.0,0.0,0.0,8.3647,8.5353,9.0446,8.9803,8.8996,8.8206,8.8023,8.7619,8.7014,8.7619,8.8463,8.9436,9.0024,9.0849,9.1803,9.1803,9.1803,9.1803,9.1803,9.1803,9.1803,9.1803,9.1803,9.1803,9.1803,9.1803,9.1803,8.0734,8.1468,8.1938,8.1572,8.2968,8.4279,8.4726,8.5599,8.6484,8.7227,8.8108,8.8575,8.8242,8.9062,8.9444,8.9134,8.8361,8.7922,8.7922,8.7922,8.7922,8.7922,8.7922,8.7922,8.7922,8.7922,8.7922,8.7922,8.7955,8.7617,8.6879,8.6569,8.5993,8.5249,8.4783,8.5046,8.5844,8.6799,8.7404,8.7946,9.0338,9.1402,9.1763,9.3502,9.4291,9.4511,9.4751,9.4336,9.3602,9.3235,9.2794,9.2317,9.1913,9.151,9.1143,9.1143,8.9898,8.813,8.6562,8.5241,8.4007,8.2624,8.3152,8.4133,8.4512,8.4614,8.4614,8.4614,8.4614,8.4614,8.4614,8.4614,8.4715,8.508,8.3659,8.3118,8.4911,8.3625,8.333,8.5644,8.5894,8.6603,8.8349,8.995,8.9577,8.6482,8.7704,0.0,8.6647,8.6682,8.7742,8.9987,8.9987,8.9546,8.8757,8.839,8.7802,8.7014,8.7435,8.8262,8.94,8.984,9.0702,9.1803,9.1803,9.1803,9.1803,9.1803,9.1803,9.1803,9.1803,9.1803,9.1803,9.1803,9.1803,9.1803,8.1439,8.2765,8.388,8.4033,8.5538,8.7211,8.8597,8.8997,8.97,9.1098,9.1305,9.1068,9.0425,9.0391,9.0087,8.9309,8.9241,8.9207,8.9134,8.91,8.91,8.91,8.91,8.91,8.91,8.91,8.91,8.91,8.8463,8.7719,8.6907,8.6264,8.5486,8.4606,8.4819,8.5264,8.5981,8.7455,8.8351,8.9006,9.1258,9.2738,9.3708,9.4708,9.5349,9.5675,9.5675,9.518,9.4373,9.3675,9.3308,9.2978,9.2244,9.1913,9.1803,9.1803,9.0849,8.9495,8.8227,8.6871,8.5492,8.4258,8.4291,8.4614,8.4614,8.4614,8.4614,8.4614,8.4614,8.4614,8.4614,8.4614,8.4681,8.4911,8.3279,8.2704,8.4667,0.0,8.3182,8.5624,8.6098,8.7143,8.9477,8.9712,9.0391,9.2042,9.1436,9.1216,9.1767,9.0519,8.9693,8.9583,9.0244,9.028,8.9583,8.8683,8.7876,8.7161,8.7161,8.7968,8.94,8.9546,9.0391,9.1803,9.1803,9.1803,9.1803,9.1803,9.1803,9.1803,9.1803,9.1803,9.1803,9.1803,9.1803,9.1803,8.4346,8.5014,8.5506,8.6464,8.802,8.9066,8.885,8.9999,9.1011,9.1276,9.1305,9.1271,9.1135,9.1135,9.0831,9.0087,9.0019,8.9748,8.9168,8.91,8.91,8.91,8.91,8.91,8.91,8.91,8.91,8.91,8.8998,8.8226,8.6907,8.6805,8.5966,8.4633,8.5659,8.6196,8.6469,8.9059,8.9846,8.9679,9.2987,9.4043,9.3892,9.5715,9.6477,9.6502,9.6502,9.5988,9.5272,9.5161,9.4226,9.3088,9.2941,9.2391,9.1803,9.1803,9.162,9.1015,8.9208,8.7098,8.5464,8.5871,8.5267,8.4614,8.4614,8.4614,8.4614,8.4614,8.4614,8.4614,8.4614,8.4614,8.3836,8.146,8.3321,8.4133,8.1426,8.4257,8.72,8.8649,8.9741,9.1166,9.3245,9.3469,9.3599,9.3896,9.3161,9.2464,9.1932,9.1583,9.1106,9.0427,9.0537,9.0555,9.0391,8.894,8.8133,8.8023,8.8023,8.8482,8.9436,9.0097,9.0922,9.1803,9.1803,9.1803,9.1803,9.1803,9.1803,9.1803,9.1803,9.1803,9.1803,9.1803,9.1803,9.1803,8.6544,8.7747,8.8559,8.909,9.0618,9.1723,9.1419,9.2049,9.2522,9.2522,9.2522,9.2353,9.1947,9.1913,9.1609,9.0865,9.0797,9.0662,9.029,8.954,8.91,8.91,8.91,8.91,8.91,8.9478,8.9681,8.9681,8.9681,8.9342,8.8666,8.9006,8.8764,8.8156,8.897,8.9364,8.9435,9.0526,9.1032,9.1319,9.3602,9.4192,9.3871,9.593,9.583,9.4848,9.6203,9.6023,9.5167,9.541,9.474,9.3675,9.3235,9.2501,9.1803,9.1803,9.1803,9.1455,8.9893,8.9013,8.8352,8.7573,8.7299,8.7048,8.6362,8.6217,8.6045,8.5376,8.5249,8.5114,8.4681,8.4614,8.4411,8.3896,8.3896,8.4321,8.5292,8.5999,8.7594,9.0728,9.161,9.257,9.4132,9.4299,9.4299,9.4299,9.3125,9.2427,9.2537,9.1657,9.1179,9.1253,9.1253,9.1033,9.0592,8.9858,8.905,8.8206,8.8206,8.839,8.8793,8.9583,9.0391,9.1179,9.162,9.1803,9.1803,9.1803,9.1803,9.1803,9.1803,9.1803,9.1803,9.1803,9.1803,9.1803,8.8489,8.9935,9.1021,9.1461,9.2665,9.3601,9.3601,9.3601,9.3601,9.3601,9.3601,9.3334,9.2759,9.2692,9.2387,9.1609,9.1575,9.1406,9.1068,9.0121,8.9512,8.9342,8.9342,8.9342,8.9342,9.0087,9.0459,9.0459,9.0459,9.0528,9.0683,9.1131,9.1444,9.1615,9.2294,9.2601,9.2597,9.2251,9.2445,9.3085,9.3712,9.3774,9.3604,9.5192,9.4806,9.3593,9.5549,9.581,9.5296,9.5682,9.5254,9.4483,9.3859,9.3088,9.2391,9.2391,9.2391,9.2078,9.0785,9.0859,9.0923,8.9326,8.9356,8.9527,8.8523,8.8093,8.7637,8.6707,8.6236,8.5824,8.5019,8.5019,8.5222,8.5554,8.4539,8.4862,8.8125,8.759,8.8357,9.2307,9.3019,9.3631,9.4738,9.4666,9.4666,9.485,9.3161,9.2464,9.3345,9.1803,9.1179,9.1767,9.1803,9.151,9.0886,9.0702,8.9968,8.8757,8.839,8.8316,8.85,8.9106,8.984,9.0629,9.1436,9.1803,9.1803,9.1803,9.1803,9.1803,9.1803,9.1803,9.1803,9.1803,9.1803,9.1803,9.0353,9.08,9.143,9.3122,9.3512,9.3601,9.3601,9.3601,9.3601,9.3601,9.3601,9.3601,9.3503,9.3503,9.3199,9.2392,9.2324,9.1715,9.0391,9.0831,9.0831,9.0154,9.0121,9.0121,9.0121,9.0831,9.1203,9.1203,9.1203,9.1497,9.2053,9.2088,9.2405,9.2991,9.4154,9.4691,9.4655,9.4568,9.4589,9.454,9.345,9.2989,9.299,9.3119,9.381,9.4698,9.487,9.5647,9.6589,9.6574,9.6098,9.5382,9.5345,9.4777,9.4116,9.4116,9.4116,9.3786,9.2115,9.1506,9.1253,9.1099,9.0852,9.0581,9.0466,8.9558,8.8691,8.8591,8.7644,8.6602,8.5824,8.6264,8.5621,8.2238,8.5012,8.6912,8.498,8.8474,9.1826,9.3422,9.4611,9.5599,9.6465,9.586,9.5713,9.6465,9.4336,9.3345,9.4153,9.2611,9.173,9.1803,9.1803,9.1767,9.1693,9.0959,9.0555,9.0408,8.8904,8.861,8.9326,8.9363,8.984,9.0629,9.1436,9.1803,9.1803,9.1803,9.1803,9.1803,9.1803,9.1803,9.1803,9.1803,9.1803,9.1803,9.2237,9.2574,9.2819,9.3483,9.3601,9.3601,9.3601,9.3601,9.3601,9.3601,9.3601,9.3601,9.3601,9.3601,9.347,9.3165,9.3131,9.2692,9.1614,9.1846,9.1474,9.0256,9.0628,9.0662,9.0222,9.1372,9.1981,9.1981,9.3292,9.4041,9.429,9.5943,9.6838,9.7083,9.79,9.8254,9.8181,9.7175,9.6525,9.6177,9.5537,9.4601,9.3711,9.4857,9.4576,9.3832,9.5426,9.5769,9.5647,9.6436,9.6171,9.5492,9.5492,9.496,9.4299,9.4299,9.4299,9.4153,9.3529,9.3632,9.3781,9.3307,9.3412,9.3266,9.1671,9.0928,9.0143,8.86,8.7899,8.7347,8.6636,8.7356,8.759,8.6147,8.8018,8.9781,9.0036,9.1745,9.3603,9.534,9.5977,9.6355,9.6685,9.6428,9.6355,9.6685,9.5401,9.452,9.4299,9.2721,9.1803,9.1803,9.1803,9.1803,9.1803,9.151,9.1106,9.0592,8.9968,8.9583,8.9436,8.9913,9.0317,9.0629,9.1436,9.1803,9.1803,9.1803,9.1803,9.1803,9.1803,9.1803,9.1803,9.1803,9.1803,9.1803,9.3364,9.3601,9.3601,9.3601,9.3601,9.3601,9.3601,9.3601,9.3601,9.3601,9.3601,9.3601,9.3601,9.3601,9.3601,9.3601,9.3601,9.3267,9.2459,9.2392,9.1715,9.0256,9.0899,9.1068,9.056,9.2015,9.2992,9.335,9.4827,9.5914,9.6793,9.8644,9.9698,10.0093,10.0509,10.0395,9.9958,9.8607,9.7597,9.6841,9.6427,9.5546,9.4515,9.5787,9.5275,9.4122,9.5851,9.6008,9.5529,9.6397,9.6318,9.5859,9.5859,9.5511,9.5034,9.5034,9.5034,9.5034,9.5034,9.5474,9.5694,9.4887,9.4969,9.4811,9.3091,9.2047,9.0996,8.9282,8.8947,8.864,8.7658,8.8699,8.9532,8.8994,8.9894,9.1228,9.2976,9.3492,9.4327,9.613,9.6539,9.6685,9.6685,9.6685,9.6685,9.6685,9.5951,9.5034,9.3969,9.2574,9.1803,9.1803,9.1803,9.1803,9.1803,9.1803,9.151,9.0959,9.0739,9.0317,8.9803,9.0354,9.0592,9.0629,9.1436,9.1803,9.1803,9.1803,9.1803,9.1803,9.1803,9.1803,9.1803,9.1803,9.1803,9.1803,9.3601,9.3601,9.3601,9.3601,9.3601,9.3601,9.3601,9.3601,9.3601,9.3601,9.3601,9.3601,9.3601,9.3601,9.3601,9.3601,9.3601,9.3267,9.2459,9.2392,9.1715,9.029,9.0932,9.1305,9.1305,9.2822,9.4254,9.55,9.5527,9.6905,9.9497,9.952,10.0209,10.1494,10.1514,10.0787,9.9425,9.8712,9.7637,9.6368,9.5613,9.5318,9.5294,9.5318,9.5609,9.604,9.604,9.6302,9.6722,9.6685,9.6685,9.6685,9.6685,9.6685,9.6685,9.6685,9.6685,9.6685,9.6685,9.6685,9.6483,9.5712,9.5126,9.4784,9.4763,9.2802,9.1022,9.1022,9.1022,9.0512,8.9022,9.0331,9.1186,8.9652,9.0018,9.0983,9.2235,9.3088,9.4068,9.5341,9.6208,9.6685,9.6685,9.6685,9.6685,9.6685,9.5951,9.4813,9.3198,9.2281,9.1803,9.1803,9.1803,9.1803,9.1803,9.1803,9.1803,9.1803,9.0996,9.0629,9.0629,9.0629,9.0629,9.0665,9.1473,9.1803,9.1803,9.1803,9.1803,9.1803,9.1803,9.1803,9.1803,9.1803,9.1803,9.1803,9.3601,9.3601,9.3601,9.3601,9.3601,9.3601,9.3601,9.3601,9.3601,9.3601,9.3601,9.3601,9.3601,9.3601,9.3601,9.3601,9.3601,9.347,9.3267,9.2218,9.1677,9.1715,9.2489,9.2658,9.2054,9.3958,9.5124,9.55,9.7374,9.8715,9.952,10.0497,10.0588,10.0108,10.1095,10.0787,9.9565,10.0306,9.9781,9.8598,9.8759,9.8259,9.7448,9.7817,9.8068,9.8079,9.7552,9.7422,9.7456,9.6906,9.6685,9.6685,9.6685,9.6685,9.6685,9.6685,9.6685,9.6685,9.6685,9.6027,9.5291,9.5073,9.4895,9.4336,9.2515,9.1549,9.1022,9.1022,9.1022,9.0957,9.0838,9.2024,9.2503,9.0903,9.2063,9.3105,9.2908,9.3586,9.4214,9.4592,9.5364,9.5878,9.586,9.6355,9.6685,9.6685,9.5437,9.4446,9.3969,9.2574,9.1803,9.1803,9.1803,9.1803,9.1803,9.1803,9.1803,9.1803,9.1546,9.1767,9.2317,9.173,9.1767,9.2317,9.195,9.1803,9.1803,9.1803,9.1803,9.1803,9.1803,9.1803,9.1803,9.1803,9.1803,9.1803,9.3601,9.3601,9.3601,9.3601,9.3601,9.3601,9.3601,9.3601,9.3601,9.3601,9.3601,9.3601,9.3601,9.3601,9.3601,9.3601,9.3601,9.3601,9.3601,9.2725,9.2421,9.2861,9.3814,9.3993,9.3207,9.5219,9.6571,9.7108,9.8691,9.9779,10.0296,10.1079,10.1095,10.0296,10.1099,10.0787,9.9587,10.0897,10.0693,9.9573,10.0406,10.0301,9.9611,9.9932,9.9842,9.9475,9.8668,9.8154,9.7787,9.6979,9.6685,9.6685,9.6685,9.6685,9.6685,9.6685,9.6358,9.5947,9.5947,9.5033,9.3922,9.3445,9.3306,9.2873,9.1347,9.1022,9.1022,9.1022,9.1546,9.2035,9.1973,9.2767,9.2985,9.1657,9.2784,9.3675,9.3161,9.4079,9.4777,9.4777,9.5474,9.5988,9.597,9.6392,9.6575,9.6245,9.5034,9.4153,9.3822,9.2537,9.1803,9.1803,9.1803,9.1803,9.1803,9.1803,9.1803,9.1803,9.1803,9.2244,9.3088,9.2207,9.2281,9.3051,9.217,9.1803,9.1803,9.1803,9.1803,9.1803,9.1803,9.1803,9.1803,9.1803,9.1803,9.1803,9.3601,9.3601,9.3601,9.3601,9.3601,9.3601,9.3601,9.3601,9.3601,9.3601,9.3601,9.3601,9.3601,9.3601,9.3601,9.3601,9.3601,9.3601,9.3601,9.3601,9.3659,9.3743,9.4992,9.5422,9.4886,9.6695,9.8289,9.9497,9.9609,10.0296,10.1514,10.1514,10.1417,10.1299,10.138,10.0787,9.9587,10.0897,10.0808,9.9801,10.0996,10.1514,10.1514,10.1514,10.098,10.0283,9.9512,9.8704,9.786,9.7016,9.6685,9.6685,9.6685,9.6685,9.6666,9.657,9.5708,9.4784,9.4677,9.3719,9.2442,9.1296,9.1022,9.0971,9.0867,9.0919,9.1048,9.1142,9.2517,9.3492,9.2817,9.3027,9.3015,9.217,9.2684,9.3198,9.3198,9.4483,9.5382,9.5382,9.6098,9.6575,9.6575,9.6575,9.6282,9.5455,9.4666,9.3859,9.3125,9.2281,9.1803,9.1803,9.1877,9.1877,9.1803,9.1877,9.1877,9.1803,9.1803,9.2281,9.3198,9.2244,9.2317,9.3161,9.2207,9.1803,9.1803,9.1803,9.1803,9.1803,9.1803,9.1803,9.1803,9.1803,9.1803,9.1803,9.3601,9.3601,9.3601,9.3601,9.3601,9.3601,9.3601,9.3601,9.3601,9.3601,9.3601,9.3601,9.3601,9.3601,9.3601,9.3601,9.3601,9.3601,9.3601,9.3601,9.4058,9.5041,9.6362,9.7477,9.837,9.8829,9.9189,9.9497,10.0619,10.1197,10.1514,10.1514,10.0897,9.9977,10.1017,10.0787,9.9587,10.0897,10.1299,10.1095,10.1413,10.1514,10.1514,10.1514,10.1404,10.109,10.0319,9.9512,9.8631,9.7199,9.6685,9.6685,9.6685,9.6685,9.6494,9.5488,9.5033,9.4554,9.357,9.237,9.1347,9.11,9.1022,9.0736,8.9717,9.0304,9.1296,9.2273,9.3577,9.459,9.4789,9.4899,9.4703,9.3896,9.3932,9.4042,9.4042,9.4336,9.4556,9.4556,9.529,9.5768,9.575,9.5768,9.5437,9.463,9.3822,9.3272,9.3125,9.2281,9.1803,9.1803,9.2464,9.2501,9.1803,9.2464,9.2464,9.1803,9.1803,9.2574,9.3969,9.2464,9.2611,9.3969,9.2464,9.1803,9.1803,9.1803,9.1803,9.1803,9.1803,9.1803,9.1803,9.1803,9.1803,9.1803,9.3601,9.3601,9.3601,9.3601,9.3601,9.3601,9.3601,9.3601,9.3601,9.3601,9.3601,9.3601,9.3601,9.3601,9.3601,9.3601,9.3601,9.3601,9.3601,9.3601,9.4168,9.5438,9.6767,9.8145,9.9475,10.0086,10.0497,10.0497,10.1193,10.1514,10.1514,10.1514,10.1099,10.0482,10.1177,10.1115,10.0503,10.1197,10.1514,10.1514,10.1514,10.1514,10.1514,10.1514,10.1514,10.1404,10.0613,9.9548,9.8411,9.7566,9.7016,9.6589,9.5987,9.579,9.5529,9.4292,9.3468,9.2825,9.2151,9.1065,9.025,9.0841,9.1022,9.0815,9.017,9.1439,9.2991,9.3674,9.4517,9.5214,9.5433,9.518,9.4777,9.4373,9.463,9.4887,9.4887,9.5217,9.5437,9.5437,9.5804,9.5914,9.5547,9.5144,9.4593,9.3786,9.3345,9.2941,9.2501,9.206,9.1987,9.2391,9.2868,9.3088,9.2978,9.3051,9.2868,9.2427,9.1987,9.2684,9.4263,9.2978,9.3308,9.4813,9.3529,9.2978,9.2978,9.2978,9.2758,9.2427,9.2537,9.2299,9.1803,9.1785,9.1804,9.1803,9.3601,9.3601,9.3601,9.3601,9.3601,9.3601,9.3601,9.3601,9.3601,9.3601,9.3601,9.3601,9.3601,9.3601,9.3601,9.3601,9.3601,9.3601,9.3601,9.3801,9.4499,9.5789,9.7123,9.8479,9.9823,10.0897,10.1514,10.1514,10.1514,10.1514,10.1514,10.1514,10.1514,10.1514,10.1514,10.1514,10.1514,10.1514,10.1514,10.1514,10.1514,10.1514,10.1514,10.1514,10.1514,10.1404,10.0686,9.9548,9.8244,9.7737,9.7129,9.6346,9.4906,9.4467,9.4248,9.2944,9.184,9.1022,9.1022,9.025,8.9751,9.1022,9.1499,9.164,9.164,9.3271,9.4784,9.4784,9.528,9.5712,9.5712,9.5144,9.4703,9.4703,9.529,9.5712,9.5712,9.6282,9.6685,9.6685,9.6575,9.6171,9.5364,9.4556,9.3822,9.3161,9.2978,9.2574,9.184,9.195,9.2354,9.3088,9.3382,9.3749,9.4299,9.3786,9.3455,9.3308,9.2574,9.2941,9.4263,9.3602,9.4116,9.5455,9.4666,9.4299,9.4299,9.4153,9.3712,9.3106,9.3179,9.2813,9.217,9.1895,9.1804,9.1803,9.3601,9.3601,9.3601,9.3601,9.3601,9.3601,9.3601,9.3601,9.3601,9.3601,9.3601,9.3601,9.3601,9.3601,9.3601,9.3601,9.3601,9.3601,9.3601,9.4641,9.585,9.7149,9.8527,9.9867,10.1197,10.1397,10.1514,10.1514,10.1514,10.1514,10.1514,10.1514,10.1514,10.1514,10.1514,10.1514,10.1514,10.1514,10.1514,10.1514,10.1514,10.1514,10.1514,10.1514,10.1514,10.1514,10.1404,10.0816,9.9593,9.7101,9.6182,9.5751,9.3761,9.3155,9.2896,9.1615,9.1117,9.1022,9.1022,9.0867,9.1039,9.2321,9.3455,9.4292,9.4292,9.4532,9.4784,9.4784,9.5717,9.6539,9.6539,9.6465,9.6392,9.6392,9.6465,9.6539,9.6539,9.6649,9.6685,9.6685,9.6098,9.5364,9.452,9.3749,9.3235,9.3125,9.2391,9.1913,9.1803,9.2501,9.2978,9.3088,9.4427,9.4887,9.4299,9.4887,9.485,9.4153,9.4006,9.4079,9.4299,9.4189,9.463,9.5455,9.4666,9.4299,9.4226,9.3565,9.3198,9.3015,9.2317,9.2813,9.3804,9.2335,9.1803,9.1803,9.3601,9.3601,9.3601,9.3601,9.3601,9.3601,9.3601,9.3601,9.3601,9.3601,9.3601,9.3601,9.3601,9.3601,9.3601,9.3601,9.4254,9.4635,9.4663,9.5869,9.7234,9.855,9.9167,10.0086,10.1494,10.1514,10.1514,10.1514,10.1514,10.1514,10.1514,10.1514,10.1514,10.1514,10.1514,10.1514,10.1514,10.1514,10.1514,10.1514,10.1514,10.1514,10.1514,10.1514,10.1514,10.1514,10.1514,10.098,9.9983,9.8311,9.6986,9.5751,9.4374,9.2967,9.1865,9.2038,9.154,9.1142,9.1865,9.2053,9.237,9.3651,9.438,9.4991,9.5708,9.5866,9.5866,9.5866,9.6318,9.6685,9.6685,9.6685,9.6685,9.6685,9.6685,9.6685,9.6685,9.7089,9.7346,9.7346,9.5878,9.4703,9.4336,9.3565,9.2905,9.2391,9.2868,9.3015,9.2537,9.3308,9.3969,9.4427,9.5125,9.5547,9.5621,9.5547,9.5308,9.496,9.496,9.496,9.496,9.496,9.5401,9.6171,9.5804,9.5621,9.5621,9.5254,9.485,9.4391,9.4042,9.3841,9.3713,9.2317,9.1803,9.1803]}]]